Wetterdaten: Mittwoch, 10.05.2017
Datum Zeit Temp. A. Pool Temp. Feuchte A. Luftdruck Regen Wind Richtung Richtung Sonnenschein ET UV Solar Taupunkt Windchill Windben Empfang
10.05.2017 00:00 5,3 C 13,9 C 91 % 1015,2 hPa 0,0 l/m 4,2 km/h (1 Bft) O-SO 123 0 min 0,000 mm 0,0 UV-I 0 W/m 4,0 C 5,3 C 6,4 km/h (2 Bft) 97,87 %
10.05.2017 00:02 5,3 C 13,9 C 91 % 1015,1 hPa 0,0 l/m 5,3 km/h (1 Bft) SO 126 0 min 0,000 mm 0,0 UV-I 0 W/m 4,0 C 5,3 C 11,3 km/h (2 Bft) 100,00 %
10.05.2017 00:04 5,3 C 13,9 C 91 % 1015,0 hPa 0,0 l/m 5,6 km/h (1 Bft) SO 124 0 min 0,000 mm 0,0 UV-I 0 W/m 4,0 C 5,3 C 8,0 km/h (2 Bft) 100,00 %
10.05.2017 00:06 5,2 C 13,9 C 91 % 1015,1 hPa 0,0 l/m 5,2 km/h (1 Bft) SO 126 0 min 0,000 mm 0,0 UV-I 0 W/m 3,9 C 5,2 C 6,4 km/h (2 Bft) 100,00 %
10.05.2017 00:08 5,2 C 13,9 C 91 % 1015,1 hPa 0,0 l/m 4,5 km/h (1 Bft) SO 125 0 min 0,000 mm 0,0 UV-I 0 W/m 3,9 C 5,2 C 6,4 km/h (2 Bft) 100,00 %
10.05.2017 00:10 5,2 C 13,9 C 92 % 1015,1 hPa 0,0 l/m 4,7 km/h (1 Bft) O-SO 104 0 min 0,000 mm 0,0 UV-I 0 W/m 4,0 C 5,2 C 9,7 km/h (2 Bft) 100,00 %
10.05.2017 00:12 5,2 C 13,9 C 92 % 1015,1 hPa 0,0 l/m 4,0 km/h (1 Bft) O-SO 104 0 min 0,000 mm 0,0 UV-I 0 W/m 4,0 C 5,2 C 4,8 km/h (1 Bft) 95,12 %
10.05.2017 00:14 5,1 C 13,9 C 92 % 1015,1 hPa 0,0 l/m 3,6 km/h (1 Bft) O-SO 109 0 min 0,000 mm 0,0 UV-I 0 W/m 3,9 C 5,1 C 4,8 km/h (1 Bft) 96,43 %
10.05.2017 00:16 5,1 C 13,9 C 92 % 1015,0 hPa 0,0 l/m 3,3 km/h (1 Bft) O-SO 113 0 min 0,000 mm 0,0 UV-I 0 W/m 3,9 C 5,1 C 4,8 km/h (1 Bft) 97,56 %
10.05.2017 00:18 5,1 C 13,9 C 92 % 1015,1 hPa 0,0 l/m 4,5 km/h (1 Bft) O-SO 108 0 min 0,000 mm 0,0 UV-I 0 W/m 3,9 C 5,1 C 6,4 km/h (2 Bft) 98,00 %
10.05.2017 00:20 5,1 C 13,9 C 92 % 1015,0 hPa 0,0 l/m 5,0 km/h (1 Bft) O-SO 112 0 min 0,000 mm 0,0 UV-I 0 W/m 3,9 C 5,1 C 6,4 km/h (2 Bft) 98,11 %
10.05.2017 00:22 5,1 C 13,9 C 93 % 1015,1 hPa 0,0 l/m 4,5 km/h (1 Bft) O-SO 112 0 min 0,000 mm 0,0 UV-I 0 W/m 4,1 C 5,1 C 6,4 km/h (2 Bft) 97,56 %
10.05.2017 00:24 5,1 C 13,9 C 93 % 1015,0 hPa 0,0 l/m 5,2 km/h (1 Bft) O-SO 105 0 min 0,000 mm 0,0 UV-I 0 W/m 4,1 C 5,1 C 6,4 km/h (2 Bft) 100,00 %
10.05.2017 00:26 5,1 C 13,9 C 92 % 1015,1 hPa 0,0 l/m 4,2 km/h (1 Bft) O 92 0 min 0,000 mm 0,0 UV-I 0 W/m 3,9 C 5,1 C 6,4 km/h (2 Bft) 94,64 %
10.05.2017 00:28 5,1 C 13,9 C 92 % 1015,1 hPa 0,0 l/m 5,6 km/h (1 Bft) O 89 0 min 0,000 mm 0,0 UV-I 0 W/m 3,9 C 5,1 C 8,0 km/h (2 Bft) 94,00 %
10.05.2017 00:30 5,2 C 13,9 C 92 % 1015,0 hPa 0,0 l/m 4,8 km/h (1 Bft) O 89 0 min 0,000 mm 0,0 UV-I 0 W/m 4,0 C 5,2 C 6,4 km/h (2 Bft) 100,00 %
10.05.2017 00:32 5,2 C 13,9 C 92 % 1015,1 hPa 0,0 l/m 4,1 km/h (1 Bft) O 90 0 min 0,000 mm 0,0 UV-I 0 W/m 4,0 C 5,2 C 6,4 km/h (2 Bft) 95,83 %
10.05.2017 00:34 5,2 C 13,9 C 92 % 1015,1 hPa 0,0 l/m 4,1 km/h (1 Bft) O 90 0 min 0,000 mm 0,0 UV-I 0 W/m 4,0 C 5,2 C 6,4 km/h (2 Bft) 100,00 %
10.05.2017 00:36 5,2 C 13,9 C 92 % 1015,0 hPa 0,0 l/m 4,3 km/h (1 Bft) O 90 0 min 0,000 mm 0,0 UV-I 0 W/m 4,0 C 5,2 C 6,4 km/h (2 Bft) 97,22 %
10.05.2017 00:38 5,2 C 13,9 C 92 % 1015,0 hPa 0,0 l/m 4,3 km/h (1 Bft) O 90 0 min 0,000 mm 0,0 UV-I 0 W/m 4,0 C 5,2 C 6,4 km/h (2 Bft) 98,39 %
10.05.2017 00:40 5,2 C 13,9 C 92 % 1015,0 hPa 0,0 l/m 5,1 km/h (1 Bft) O 82 0 min 0,000 mm 0,0 UV-I 0 W/m 4,0 C 5,2 C 8,0 km/h (2 Bft) 100,00 %
10.05.2017 00:42 5,2 C 13,9 C 92 % 1015,0 hPa 0,0 l/m 3,2 km/h (1 Bft) O 82 0 min 0,000 mm 0,0 UV-I 0 W/m 4,0 C 5,2 C 4,8 km/h (1 Bft) 98,00 %
10.05.2017 00:44 5,2 C 13,9 C 92 % 1015,0 hPa 0,0 l/m 3,8 km/h (1 Bft) O 82 0 min 0,000 mm 0,0 UV-I 0 W/m 4,0 C 5,2 C 4,8 km/h (1 Bft) 100,00 %
10.05.2017 00:46 5,2 C 13,9 C 92 % 1015,0 hPa 0,0 l/m 3,6 km/h (1 Bft) O 82 0 min 0,000 mm 0,0 UV-I 0 W/m 4,0 C 5,2 C 4,8 km/h (1 Bft) 95,74 %
10.05.2017 00:48 5,2 C 13,9 C 92 % 1015,0 hPa 0,0 l/m 2,9 km/h (1 Bft) O 82 0 min 0,000 mm 0,0 UV-I 0 W/m 4,0 C 5,2 C 4,8 km/h (1 Bft) 95,74 %
10.05.2017 00:50 5,1 C 13,9 C 92 % 1015,0 hPa 0,0 l/m 3,0 km/h (1 Bft) O 82 0 min 0,000 mm 0,0 UV-I 0 W/m 3,9 C 5,1 C 4,8 km/h (1 Bft) 94,29 %
10.05.2017 00:52 5,1 C 13,9 C 93 % 1014,9 hPa 0,0 l/m 3,3 km/h (1 Bft) O 82 0 min 0,000 mm 0,0 UV-I 0 W/m 4,1 C 5,1 C 6,4 km/h (2 Bft) 96,00 %
10.05.2017 00:54 5,1 C 13,9 C 93 % 1014,9 hPa 0,0 l/m 4,4 km/h (1 Bft) O 82 0 min 0,000 mm 0,0 UV-I 0 W/m 4,1 C 5,1 C 6,4 km/h (2 Bft) 98,11 %
10.05.2017 00:56 5,1 C 13,9 C 93 % 1014,9 hPa 0,0 l/m 4,7 km/h (1 Bft) O 82 0 min 0,000 mm 0,0 UV-I 0 W/m 4,1 C 5,1 C 6,4 km/h (2 Bft) 93,62 %
10.05.2017 00:58 5,0 C 13,9 C 93 % 1014,9 hPa 0,0 l/m 5,0 km/h (1 Bft) O 81 0 min 0,000 mm 0,0 UV-I 0 W/m 4,0 C 5,0 C 8,0 km/h (2 Bft) 97,87 %
10.05.2017 01:00 5,0 C 13,9 C 93 % 1014,9 hPa 0,0 l/m 4,9 km/h (1 Bft) O 81 0 min 0,000 mm 0,0 UV-I 0 W/m 4,0 C 5,0 C 6,4 km/h (2 Bft) 94,74 %
10.05.2017 01:02 4,9 C 13,9 C 93 % 1014,9 hPa 0,0 l/m 5,2 km/h (1 Bft) O 81 0 min 0,000 mm 0,0 UV-I 0 W/m 3,9 C 4,9 C 6,4 km/h (2 Bft) 96,00 %
10.05.2017 01:04 4,9 C 13,9 C 93 % 1014,9 hPa 0,0 l/m 5,1 km/h (1 Bft) O 79 0 min 0,000 mm 0,0 UV-I 0 W/m 3,9 C 4,9 C 6,4 km/h (2 Bft) 91,49 %
10.05.2017 01:06 4,9 C 13,9 C 93 % 1014,9 hPa 0,0 l/m 4,4 km/h (1 Bft) O 79 0 min 0,000 mm 0,0 UV-I 0 W/m 3,9 C 4,9 C 6,4 km/h (2 Bft) 95,74 %
10.05.2017 01:08 4,9 C 13,9 C 93 % 1014,9 hPa 0,0 l/m 3,9 km/h (1 Bft) O-NO 78 0 min 0,000 mm 0,0 UV-I 0 W/m 3,9 C 4,9 C 4,8 km/h (1 Bft) 90,24 %
10.05.2017 01:10 4,9 C 13,9 C 94 % 1014,8 hPa 0,0 l/m 3,9 km/h (1 Bft) O-NO 78 0 min 0,000 mm 0,0 UV-I 0 W/m 4,0 C 4,9 C 6,4 km/h (2 Bft) 90,00 %
10.05.2017 01:12 4,9 C 13,9 C 94 % 1014,8 hPa 0,0 l/m 3,1 km/h (1 Bft) O-NO 78 0 min 0,000 mm 0,0 UV-I 0 W/m 4,0 C 4,9 C 4,8 km/h (1 Bft) 94,34 %
10.05.2017 01:14 4,9 C 13,9 C 94 % 1014,7 hPa 0,0 l/m 3,5 km/h (1 Bft) O-NO 78 0 min 0,000 mm 0,0 UV-I 0 W/m 4,0 C 4,9 C 4,8 km/h (1 Bft) 90,00 %
10.05.2017 01:16 4,9 C 13,9 C 94 % 1014,7 hPa 0,0 l/m 5,0 km/h (1 Bft) O-NO 77 0 min 0,000 mm 0,0 UV-I 0 W/m 4,0 C 4,9 C 8,0 km/h (2 Bft) 94,87 %
10.05.2017 01:18 4,9 C 13,9 C 94 % 1014,7 hPa 0,0 l/m 5,0 km/h (1 Bft) O 80 0 min 0,000 mm 0,0 UV-I 0 W/m 4,0 C 4,9 C 8,0 km/h (2 Bft) 94,00 %
10.05.2017 01:20 4,9 C 13,9 C 94 % 1014,7 hPa 0,0 l/m 3,4 km/h (1 Bft) O 80 0 min 0,000 mm 0,0 UV-I 0 W/m 4,0 C 4,9 C 4,8 km/h (1 Bft) 94,74 %
10.05.2017 01:22 4,8 C 13,9 C 94 % 1014,7 hPa 0,0 l/m 3,3 km/h (1 Bft) O 80 0 min 0,000 mm 0,0 UV-I 0 W/m 3,9 C 4,8 C 6,4 km/h (2 Bft) 90,57 %
10.05.2017 01:24 4,8 C 13,9 C 94 % 1014,7 hPa 0,0 l/m 4,8 km/h (1 Bft) O 80 0 min 0,000 mm 0,0 UV-I 0 W/m 3,9 C 4,8 C 6,4 km/h (2 Bft) 94,34 %
10.05.2017 01:26 4,8 C 13,9 C 94 % 1014,7 hPa 0,0 l/m 5,4 km/h (1 Bft) O-NO 78 0 min 0,000 mm 0,0 UV-I 0 W/m 3,9 C 4,8 C 6,4 km/h (2 Bft) 91,49 %
10.05.2017 01:28 4,8 C 13,9 C 94 % 1014,7 hPa 0,0 l/m 3,5 km/h (1 Bft) O-NO 75 0 min 0,000 mm 0,0 UV-I 0 W/m 3,9 C 4,8 C 6,4 km/h (2 Bft) 92,68 %
10.05.2017 01:30 4,8 C 13,9 C 94 % 1014,7 hPa 0,0 l/m 4,4 km/h (1 Bft) O-NO 75 0 min 0,000 mm 0,0 UV-I 0 W/m 3,9 C 4,8 C 6,4 km/h (2 Bft) 91,49 %
10.05.2017 01:32 4,8 C 13,9 C 94 % 1014,7 hPa 0,0 l/m 3,2 km/h (1 Bft) O-NO 75 0 min 0,000 mm 0,0 UV-I 0 W/m 3,9 C 4,8 C 4,8 km/h (1 Bft) 93,62 %
10.05.2017 01:34 4,8 C 13,9 C 94 % 1014,7 hPa 0,0 l/m 3,6 km/h (1 Bft) O-NO 75 0 min 0,000 mm 0,0 UV-I 0 W/m 3,9 C 4,8 C 4,8 km/h (1 Bft) 96,00 %
10.05.2017 01:36 4,8 C 13,9 C 94 % 1014,7 hPa 0,0 l/m 3,4 km/h (1 Bft) O-NO 75 0 min 0,000 mm 0,0 UV-I 0 W/m 3,9 C 4,8 C 4,8 km/h (1 Bft) 95,12 %
10.05.2017 01:38 4,8 C 13,9 C 94 % 1014,7 hPa 0,0 l/m 3,3 km/h (1 Bft) O-NO 75 0 min 0,000 mm 0,0 UV-I 0 W/m 3,9 C 4,8 C 4,8 km/h (1 Bft) 98,00 %
10.05.2017 01:40 4,8 C 13,9 C 94 % 1014,7 hPa 0,0 l/m 3,2 km/h (1 Bft) O-NO 75 0 min 0,000 mm 0,0 UV-I 0 W/m 3,9 C 4,8 C 4,8 km/h (1 Bft) 94,00 %
10.05.2017 01:42 4,8 C 13,9 C 94 % 1014,7 hPa 0,0 l/m 3,1 km/h (1 Bft) O-NO 75 0 min 0,000 mm 0,0 UV-I 0 W/m 3,9 C 4,8 C 4,8 km/h (1 Bft) 92,11 %
10.05.2017 01:44 4,8 C 13,9 C 94 % 1014,7 hPa 0,0 l/m 3,1 km/h (1 Bft) O-NO 75 0 min 0,000 mm 0,0 UV-I 0 W/m 3,9 C 4,8 C 4,8 km/h (1 Bft) 96,61 %
10.05.2017 01:46 4,8 C 13,9 C 94 % 1014,6 hPa 0,0 l/m 4,4 km/h (1 Bft) O-NO 74 0 min 0,000 mm 0,0 UV-I 0 W/m 3,9 C 4,8 C 6,4 km/h (2 Bft) 100,00 %
10.05.2017 01:48 4,8 C 13,9 C 94 % 1014,6 hPa 0,0 l/m 3,5 km/h (1 Bft) O-NO 74 0 min 0,000 mm 0,0 UV-I 0 W/m 3,9 C 4,8 C 4,8 km/h (1 Bft) 100,00 %
10.05.2017 01:50 4,8 C 13,9 C 95 % 1014,5 hPa 0,0 l/m 1,9 km/h (1 Bft) O-NO 74 0 min 0,000 mm 0,0 UV-I 0 W/m 4,1 C 4,8 C 3,2 km/h (1 Bft) 97,87 %
10.05.2017 01:52 4,8 C 13,9 C 95 % 1014,5 hPa 0,0 l/m 1,9 km/h (1 Bft) O-NO 74 0 min 0,000 mm 0,0 UV-I 0 W/m 4,1 C 4,8 C 4,8 km/h (1 Bft) 96,00 %
10.05.2017 01:54 4,8 C 13,9 C 95 % 1014,5 hPa 0,0 l/m 2,9 km/h (1 Bft) O-NO 74 0 min 0,000 mm 0,0 UV-I 0 W/m 4,1 C 4,8 C 4,8 km/h (1 Bft) 95,83 %
10.05.2017 01:56 4,8 C 13,9 C 95 % 1014,5 hPa 0,0 l/m 2,7 km/h (1 Bft) O-NO 74 0 min 0,000 mm 0,0 UV-I 0 W/m 4,1 C 4,8 C 4,8 km/h (1 Bft) 100,00 %
10.05.2017 01:58 4,7 C 13,9 C 95 % 1014,5 hPa 0,0 l/m 0,3 km/h (0 Bft) O-NO 74 0 min 0,000 mm 0,0 UV-I 0 W/m 4,0 C 4,7 C 1,6 km/h (1 Bft) 97,87 %
10.05.2017 02:00 4,7 C 13,9 C 95 % 1014,5 hPa 0,0 l/m 2,3 km/h (1 Bft) O-NO 74 0 min 0,000 mm 0,0 UV-I 0 W/m 4,0 C 4,7 C 4,8 km/h (1 Bft) 95,74 %
10.05.2017 02:02 4,7 C 13,9 C 95 % 1014,5 hPa 0,0 l/m 2,2 km/h (1 Bft) O-NO 74 0 min 0,000 mm 0,0 UV-I 0 W/m 4,0 C 4,7 C 3,2 km/h (1 Bft) 98,00 %
10.05.2017 02:04 4,8 C 13,9 C 95 % 1014,4 hPa 0,0 l/m 3,7 km/h (1 Bft) O-NO 74 0 min 0,000 mm 0,0 UV-I 0 W/m 4,1 C 4,8 C 4,8 km/h (1 Bft) 97,14 %
10.05.2017 02:06 4,7 C 13,9 C 95 % 1014,4 hPa 0,0 l/m 2,8 km/h (1 Bft) O-NO 74 0 min 0,000 mm 0,0 UV-I 0 W/m 4,0 C 4,7 C 4,8 km/h (1 Bft) 98,00 %
10.05.2017 02:08 4,7 C 13,9 C 95 % 1014,4 hPa 0,0 l/m 2,4 km/h (1 Bft) O-NO 74 0 min 0,000 mm 0,0 UV-I 0 W/m 4,0 C 4,7 C 4,8 km/h (1 Bft) 97,87 %
10.05.2017 02:10 4,7 C 13,9 C 95 % 1014,4 hPa 0,0 l/m 3,1 km/h (1 Bft) O-NO 74 0 min 0,000 mm 0,0 UV-I 0 W/m 4,0 C 4,7 C 4,8 km/h (1 Bft) 100,00 %
10.05.2017 02:12 4,7 C 13,9 C 95 % 1014,4 hPa 0,0 l/m 3,6 km/h (1 Bft) O-NO 71 0 min 0,000 mm 0,0 UV-I 0 W/m 4,0 C 4,7 C 4,8 km/h (1 Bft) 96,00 %
10.05.2017 02:14 4,7 C 13,9 C 95 % 1014,3 hPa 0,0 l/m 4,4 km/h (1 Bft) O-NO 71 0 min 0,000 mm 0,0 UV-I 0 W/m 4,0 C 4,7 C 6,4 km/h (2 Bft) 96,00 %
10.05.2017 02:16 4,7 C 13,9 C 95 % 1014,3 hPa 0,0 l/m 4,0 km/h (1 Bft) O-NO 71 0 min 0,000 mm 0,0 UV-I 0 W/m 4,0 C 4,7 C 6,4 km/h (2 Bft) 100,00 %
10.05.2017 02:18 4,7 C 13,9 C 95 % 1014,3 hPa 0,0 l/m 3,3 km/h (1 Bft) O-NO 71 0 min 0,000 mm 0,0 UV-I 0 W/m 4,0 C 4,7 C 4,8 km/h (1 Bft) 98,00 %
10.05.2017 02:20 4,7 C 13,9 C 95 % 1014,3 hPa 0,0 l/m 3,2 km/h (1 Bft) O-NO 71 0 min 0,000 mm 0,0 UV-I 0 W/m 4,0 C 4,7 C 4,8 km/h (1 Bft) 100,00 %
10.05.2017 02:22 4,6 C 13,9 C 95 % 1014,2 hPa 0,0 l/m 3,1 km/h (1 Bft) O-NO 71 0 min 0,000 mm 0,0 UV-I 0 W/m 3,9 C 4,6 C 4,8 km/h (1 Bft) 98,11 %
10.05.2017 02:24 4,6 C 13,9 C 95 % 1014,2 hPa 0,0 l/m 4,2 km/h (1 Bft) O-NO 71 0 min 0,000 mm 0,0 UV-I 0 W/m 3,9 C 4,6 C 6,4 km/h (2 Bft) 100,00 %
10.05.2017 02:26 4,6 C 13,9 C 95 % 1014,2 hPa 0,0 l/m 3,3 km/h (1 Bft) O-NO 71 0 min 0,000 mm 0,0 UV-I 0 W/m 3,9 C 4,6 C 4,8 km/h (1 Bft) 98,31 %
10.05.2017 02:28 4,6 C 13,9 C 95 % 1014,2 hPa 0,0 l/m 3,0 km/h (1 Bft) O-NO 71 0 min 0,000 mm 0,0 UV-I 0 W/m 3,9 C 4,6 C 4,8 km/h (1 Bft) 97,87 %
10.05.2017 02:30 4,6 C 13,9 C 95 % 1014,2 hPa 0,0 l/m 4,0 km/h (1 Bft) O-NO 71 0 min 0,000 mm 0,0 UV-I 0 W/m 3,9 C 4,6 C 4,8 km/h (1 Bft) 97,22 %
10.05.2017 02:32 4,6 C 13,9 C 95 % 1014,2 hPa 0,0 l/m 3,8 km/h (1 Bft) O-NO 71 0 min 0,000 mm 0,0 UV-I 0 W/m 3,9 C 4,6 C 4,8 km/h (1 Bft) 100,00 %
10.05.2017 02:34 4,6 C 13,9 C 96 % 1014,1 hPa 0,0 l/m 2,9 km/h (1 Bft) O-NO 71 0 min 0,000 mm 0,0 UV-I 0 W/m 4,0 C 4,6 C 4,8 km/h (1 Bft) 97,87 %
10.05.2017 02:36 4,6 C 13,9 C 96 % 1014,1 hPa 0,0 l/m 1,8 km/h (1 Bft) O-NO 71 0 min 0,000 mm 0,0 UV-I 0 W/m 4,0 C 4,6 C 3,2 km/h (1 Bft) 98,11 %
10.05.2017 02:38 4,5 C 13,9 C 96 % 1014,2 hPa 0,0 l/m 1,9 km/h (1 Bft) O-NO 71 0 min 0,000 mm 0,0 UV-I 0 W/m 3,9 C 4,5 C 3,2 km/h (1 Bft) 100,00 %
10.05.2017 02:40 4,5 C 13,9 C 96 % 1014,1 hPa 0,0 l/m 2,8 km/h (1 Bft) O-NO 71 0 min 0,000 mm 0,0 UV-I 0 W/m 3,9 C 4,5 C 4,8 km/h (1 Bft) 98,00 %
10.05.2017 02:42 4,4 C 13,9 C 96 % 1014,1 hPa 0,0 l/m 3,0 km/h (1 Bft) O-NO 71 0 min 0,000 mm 0,0 UV-I 0 W/m 3,8 C 4,4 C 3,2 km/h (1 Bft) 100,00 %
10.05.2017 02:44 4,4 C 13,9 C 95 % 1014,1 hPa 0,0 l/m 2,0 km/h (1 Bft) O-NO 71 0 min 0,000 mm 0,0 UV-I 0 W/m 3,7 C 4,4 C 3,2 km/h (1 Bft) 97,87 %
10.05.2017 02:46 4,4 C 13,9 C 96 % 1014,1 hPa 0,0 l/m 2,0 km/h (1 Bft) O-NO 71 0 min 0,000 mm 0,0 UV-I 0 W/m 3,8 C 4,4 C 3,2 km/h (1 Bft) 100,00 %
10.05.2017 02:48 4,4 C 13,9 C 96 % 1014,0 hPa 0,0 l/m 2,7 km/h (1 Bft) O-NO 71 0 min 0,000 mm 0,0 UV-I 0 W/m 3,8 C 4,4 C 4,8 km/h (1 Bft) 100,00 %
10.05.2017 02:50 4,4 C 13,9 C 96 % 1014,0 hPa 0,0 l/m 2,3 km/h (1 Bft) O-NO 71 0 min 0,000 mm 0,0 UV-I 0 W/m 3,8 C 4,4 C 4,8 km/h (1 Bft) 96,23 %
10.05.2017 02:52 4,4 C 13,9 C 96 % 1014,1 hPa 0,0 l/m 1,8 km/h (1 Bft) O-NO 71 0 min 0,000 mm 0,0 UV-I 0 W/m 3,8 C 4,4 C 3,2 km/h (1 Bft) 94,74 %
10.05.2017 02:54 4,4 C 13,9 C 96 % 1014,1 hPa 0,0 l/m 0,3 km/h (0 Bft) O-NO 71 0 min 0,000 mm 0,0 UV-I 0 W/m 3,8 C 4,4 C 1,6 km/h (1 Bft) 98,00 %
10.05.2017 02:56 4,4 C 13,9 C 96 % 1014,0 hPa 0,0 l/m 1,0 km/h (0 Bft) O-NO 71 0 min 0,000 mm 0,0 UV-I 0 W/m 3,8 C 4,4 C 1,6 km/h (1 Bft) 97,37 %
10.05.2017 02:58 4,4 C 13,9 C 96 % 1013,9 hPa 0,0 l/m 2,7 km/h (1 Bft) O-NO 71 0 min 0,000 mm 0,0 UV-I 0 W/m 3,8 C 4,4 C 3,2 km/h (1 Bft) 98,00 %
10.05.2017 03:00 4,4 C 13,9 C 96 % 1013,9 hPa 0,0 l/m 3,0 km/h (1 Bft) O-NO 71 0 min 0,000 mm 0,0 UV-I 0 W/m 3,8 C 4,4 C 3,2 km/h (1 Bft) 96,00 %
10.05.2017 03:02 4,4 C 13,9 C 96 % 1013,9 hPa 0,0 l/m 2,1 km/h (1 Bft) O-NO 71 0 min 0,000 mm 0,0 UV-I 0 W/m 3,8 C 4,4 C 3,2 km/h (1 Bft) 92,68 %
10.05.2017 03:04 4,4 C 13,3 C 96 % 1013,9 hPa 0,0 l/m 2,7 km/h (1 Bft) O-NO 71 0 min 0,000 mm 0,0 UV-I 0 W/m 3,8 C 4,4 C 4,8 km/h (1 Bft) 96,23 %
10.05.2017 03:06 4,3 C 13,3 C 96 % 1013,9 hPa 0,0 l/m 3,1 km/h (1 Bft) O-NO 70 0 min 0,000 mm 0,0 UV-I 0 W/m 3,7 C 4,3 C 4,8 km/h (1 Bft) 96,23 %
10.05.2017 03:08 4,3 C 13,3 C 96 % 1013,9 hPa 0,0 l/m 0,6 km/h (0 Bft) O-NO 70 0 min 0,000 mm 0,0 UV-I 0 W/m 3,7 C 4,3 C 1,6 km/h (1 Bft) 95,12 %
10.05.2017 03:10 4,3 C 13,3 C 96 % 1013,9 hPa 0,0 l/m 1,2 km/h (1 Bft) O-NO 70 0 min 0,000 mm 0,0 UV-I 0 W/m 3,7 C 4,3 C 1,6 km/h (1 Bft) 98,11 %
10.05.2017 03:12 4,3 C 13,3 C 96 % 1013,8 hPa 0,0 l/m 1,6 km/h (1 Bft) O-NO 70 0 min 0,000 mm 0,0 UV-I 0 W/m 3,7 C 4,3 C 3,2 km/h (1 Bft) 95,45 %
10.05.2017 03:14 4,3 C 13,9 C 96 % 1013,8 hPa 0,0 l/m 0,8 km/h (0 Bft) O-NO 70 0 min 0,000 mm 0,0 UV-I 0 W/m 3,7 C 4,3 C 3,2 km/h (1 Bft) 97,62 %
10.05.2017 03:16 4,2 C 13,3 C 96 % 1013,7 hPa 0,0 l/m 2,8 km/h (1 Bft) O-NO 70 0 min 0,000 mm 0,0 UV-I 0 W/m 3,6 C 4,2 C 4,8 km/h (1 Bft) 95,74 %
10.05.2017 03:18 4,2 C 13,3 C 96 % 1013,7 hPa 0,0 l/m 3,2 km/h (1 Bft) O-NO 70 0 min 0,000 mm 0,0 UV-I 0 W/m 3,6 C 4,2 C 4,8 km/h (1 Bft) 95,74 %
10.05.2017 03:20 4,2 C 13,3 C 96 % 1013,6 hPa 0,0 l/m 2,1 km/h (1 Bft) O-NO 70 0 min 0,000 mm 0,0 UV-I 0 W/m 3,6 C 4,2 C 3,2 km/h (1 Bft) 96,00 %
10.05.2017 03:22 4,2 C 13,3 C 96 % 1013,6 hPa 0,0 l/m 2,2 km/h (1 Bft) O-NO 70 0 min 0,000 mm 0,0 UV-I 0 W/m 3,6 C 4,2 C 3,2 km/h (1 Bft) 95,45 %
10.05.2017 03:24 4,2 C 13,3 C 96 % 1013,6 hPa 0,0 l/m 2,6 km/h (1 Bft) O-NO 70 0 min 0,000 mm 0,0 UV-I 0 W/m 3,6 C 4,2 C 4,8 km/h (1 Bft) 93,62 %
10.05.2017 03:26 4,1 C 13,3 C 96 % 1013,5 hPa 0,0 l/m 3,1 km/h (1 Bft) O-NO 70 0 min 0,000 mm 0,0 UV-I 0 W/m 3,5 C 4,1 C 4,8 km/h (1 Bft) 94,34 %
10.05.2017 03:28 4,1 C 13,3 C 96 % 1013,5 hPa 0,0 l/m 3,4 km/h (1 Bft) O-NO 70 0 min 0,000 mm 0,0 UV-I 0 W/m 3,5 C 4,1 C 4,8 km/h (1 Bft) 97,56 %
10.05.2017 03:30 4,1 C 13,3 C 96 % 1013,5 hPa 0,0 l/m 2,7 km/h (1 Bft) O-NO 70 0 min 0,000 mm 0,0 UV-I 0 W/m 3,5 C 4,1 C 3,2 km/h (1 Bft) 95,74 %
10.05.2017 03:32 4,0 C 13,3 C 96 % 1013,5 hPa 0,0 l/m 3,6 km/h (1 Bft) O-NO 70 0 min 0,000 mm 0,0 UV-I 0 W/m 3,4 C 4,0 C 4,8 km/h (1 Bft) 96,00 %
10.05.2017 03:34 3,9 C 13,3 C 96 % 1013,5 hPa 0,0 l/m 3,4 km/h (1 Bft) O-NO 70 0 min 0,000 mm 0,0 UV-I 0 W/m 3,3 C 3,9 C 6,4 km/h (2 Bft) 95,12 %
10.05.2017 03:36 3,8 C 13,3 C 96 % 1013,4 hPa 0,0 l/m 5,0 km/h (1 Bft) NO 49 0 min 0,000 mm 0,0 UV-I 0 W/m 3,2 C 3,8 C 6,4 km/h (2 Bft) 100,00 %
10.05.2017 03:38 3,7 C 13,3 C 96 % 1013,4 hPa 0,0 l/m 4,3 km/h (1 Bft) NO 49 0 min 0,000 mm 0,0 UV-I 0 W/m 3,1 C 3,7 C 6,4 km/h (2 Bft) 97,56 %
10.05.2017 03:40 3,7 C 13,3 C 96 % 1013,4 hPa 0,0 l/m 3,4 km/h (1 Bft) NO 49 0 min 0,000 mm 0,0 UV-I 0 W/m 3,1 C 3,7 C 4,8 km/h (1 Bft) 98,11 %
10.05.2017 03:42 3,7 C 13,3 C 96 % 1013,3 hPa 0,0 l/m 4,0 km/h (1 Bft) NO 49 0 min 0,000 mm 0,0 UV-I 0 W/m 3,1 C 3,7 C 4,8 km/h (1 Bft) 100,00 %
10.05.2017 03:44 3,7 C 13,3 C 96 % 1013,3 hPa 0,0 l/m 4,6 km/h (1 Bft) O-NO 61 0 min 0,000 mm 0,0 UV-I 0 W/m 3,1 C 3,7 C 6,4 km/h (2 Bft) 100,00 %
10.05.2017 03:46 3,7 C 13,3 C 96 % 1013,3 hPa 0,0 l/m 4,3 km/h (1 Bft) O-NO 61 0 min 0,000 mm 0,0 UV-I 0 W/m 3,1 C 3,7 C 6,4 km/h (2 Bft) 100,00 %
10.05.2017 03:48 3,7 C 13,3 C 96 % 1013,3 hPa 0,0 l/m 3,8 km/h (1 Bft) O-NO 61 0 min 0,000 mm 0,0 UV-I 0 W/m 3,1 C 3,7 C 6,4 km/h (2 Bft) 96,00 %
10.05.2017 03:50 3,6 C 13,3 C 96 % 1013,3 hPa 0,0 l/m 3,0 km/h (1 Bft) O-NO 61 0 min 0,000 mm 0,0 UV-I 0 W/m 3,0 C 3,6 C 4,8 km/h (1 Bft) 100,00 %
10.05.2017 03:52 3,6 C 13,3 C 96 % 1013,3 hPa 0,0 l/m 2,7 km/h (1 Bft) O-NO 61 0 min 0,000 mm 0,0 UV-I 0 W/m 3,0 C 3,6 C 4,8 km/h (1 Bft) 95,74 %
10.05.2017 03:54 3,5 C 13,3 C 96 % 1013,2 hPa 0,0 l/m 3,7 km/h (1 Bft) O-NO 61 0 min 0,000 mm 0,0 UV-I 0 W/m 2,9 C 3,5 C 4,8 km/h (1 Bft) 100,00 %
10.05.2017 03:56 3,5 C 13,3 C 96 % 1013,2 hPa 0,0 l/m 3,3 km/h (1 Bft) O-NO 61 0 min 0,000 mm 0,0 UV-I 0 W/m 2,9 C 3,5 C 4,8 km/h (1 Bft) 100,00 %
10.05.2017 03:58 3,5 C 13,3 C 96 % 1013,2 hPa 0,0 l/m 3,2 km/h (1 Bft) O-NO 62 0 min 0,000 mm 0,0 UV-I 0 W/m 2,9 C 3,5 C 4,8 km/h (1 Bft) 100,00 %
10.05.2017 04:00 3,5 C 13,3 C 96 % 1013,2 hPa 0,0 l/m 4,0 km/h (1 Bft) O-NO 62 0 min 0,000 mm 0,0 UV-I 0 W/m 2,9 C 3,5 C 4,8 km/h (1 Bft) 95,74 %
10.05.2017 04:04 3,3 C 13,3 C 96 % 1013,2 hPa 0,0 l/m 3,1 km/h (1 Bft) O-NO 62 0 min 0,000 mm 0,0 UV-I 0 W/m 2,7 C 3,3 C 3,2 km/h (1 Bft) 100,00 %
10.05.2017 04:06 3,3 C 13,3 C 96 % 1013,1 hPa 0,0 l/m 2,1 km/h (1 Bft) O-NO 62 0 min 0,000 mm 0,0 UV-I 0 W/m 2,7 C 3,3 C 3,2 km/h (1 Bft) 96,00 %
10.05.2017 04:08 3,3 C 13,3 C 96 % 1013,1 hPa 0,0 l/m 2,6 km/h (1 Bft) O-NO 62 0 min 0,000 mm 0,0 UV-I 0 W/m 2,7 C 3,3 C 3,2 km/h (1 Bft) 95,12 %
10.05.2017 04:10 3,2 C 13,3 C 96 % 1013,1 hPa 0,0 l/m 3,0 km/h (1 Bft) O-NO 62 0 min 0,000 mm 0,0 UV-I 0 W/m 2,6 C 3,2 C 4,8 km/h (1 Bft) 98,00 %
10.05.2017 04:12 3,1 C 13,3 C 96 % 1013,0 hPa 0,0 l/m 3,5 km/h (1 Bft) O-NO 62 0 min 0,000 mm 0,0 UV-I 0 W/m 2,5 C 3,1 C 4,8 km/h (1 Bft) 96,00 %
10.05.2017 04:14 3,1 C 13,3 C 96 % 1013,0 hPa 0,0 l/m 2,3 km/h (1 Bft) O-NO 62 0 min 0,000 mm 0,0 UV-I 0 W/m 2,5 C 3,1 C 4,8 km/h (1 Bft) 96,15 %
10.05.2017 04:16 3,2 C 13,3 C 97 % 1013,0 hPa 0,0 l/m 0,9 km/h (0 Bft) O-NO 62 0 min 0,000 mm 0,0 UV-I 0 W/m 2,8 C 3,2 C 3,2 km/h (1 Bft) 95,38 %
10.05.2017 04:18 3,2 C 13,3 C 97 % 1013,1 hPa 0,0 l/m 1,1 km/h (1 Bft) O-NO 62 0 min 0,000 mm 0,0 UV-I 0 W/m 2,8 C 3,2 C 3,2 km/h (1 Bft) 95,74 %
10.05.2017 04:20 3,1 C 13,3 C 96 % 1013,0 hPa 0,0 l/m 2,2 km/h (1 Bft) O-NO 62 0 min 0,000 mm 0,0 UV-I 0 W/m 2,5 C 3,1 C 3,2 km/h (1 Bft) 97,37 %
10.05.2017 04:22 3,0 C 13,3 C 96 % 1012,9 hPa 0,0 l/m 2,7 km/h (1 Bft) O-NO 62 0 min 0,000 mm 0,0 UV-I 0 W/m 2,4 C 3,0 C 4,8 km/h (1 Bft) 97,87 %
10.05.2017 04:24 3,0 C 13,3 C 96 % 1012,9 hPa 0,0 l/m 2,8 km/h (1 Bft) O-NO 62 0 min 0,000 mm 0,0 UV-I 0 W/m 2,4 C 3,0 C 4,8 km/h (1 Bft) 95,74 %
10.05.2017 04:26 3,0 C 13,3 C 96 % 1012,9 hPa 0,0 l/m 2,8 km/h (1 Bft) O-NO 62 0 min 0,000 mm 0,0 UV-I 0 W/m 2,4 C 3,0 C 4,8 km/h (1 Bft) 96,00 %
10.05.2017 04:28 3,0 C 13,3 C 97 % 1012,9 hPa 0,0 l/m 2,8 km/h (1 Bft) O-NO 62 0 min 0,000 mm 0,0 UV-I 0 W/m 2,6 C 3,0 C 4,8 km/h (1 Bft) 97,87 %
10.05.2017 04:30 2,9 C 13,3 C 96 % 1012,9 hPa 0,0 l/m 1,1 km/h (1 Bft) O-NO 62 0 min 0,000 mm 0,0 UV-I 0 W/m 2,3 C 2,9 C 3,2 km/h (1 Bft) 96,23 %
10.05.2017 04:32 2,8 C 13,3 C 96 % 1012,9 hPa 0,0 l/m 0,0 km/h (0 Bft) O-NO 62 0 min 0,000 mm 0,0 UV-I 0 W/m 2,2 C 2,8 C 0,0 km/h (0 Bft) 97,22 %
10.05.2017 04:34 2,8 C 13,3 C 96 % 1012,9 hPa 0,0 l/m 0,0 km/h (0 Bft) O-NO 62 0 min 0,000 mm 0,0 UV-I 0 W/m 2,2 C 2,8 C 0,0 km/h (0 Bft) 98,11 %
10.05.2017 04:36 2,7 C 13,3 C 96 % 1012,9 hPa 0,0 l/m 0,0 km/h (0 Bft) O-NO 62 0 min 0,000 mm 0,0 UV-I 0 W/m 2,1 C 2,7 C 0,0 km/h (0 Bft) 92,00 %
10.05.2017 04:38 2,8 C 13,3 C 97 % 1012,9 hPa 0,0 l/m 0,0 km/h (0 Bft) O-NO 62 0 min 0,000 mm 0,0 UV-I 0 W/m 2,4 C 2,8 C 0,0 km/h (0 Bft) 90,24 %
10.05.2017 04:40 2,8 C 13,3 C 96 % 1012,9 hPa 0,0 l/m 0,0 km/h (0 Bft) O-NO 62 0 min 0,000 mm 0,0 UV-I 0 W/m 2,2 C 2,8 C 0,0 km/h (0 Bft) 92,45 %
10.05.2017 04:42 2,8 C 13,3 C 97 % 1012,8 hPa 0,0 l/m 0,1 km/h (0 Bft) O-NO 62 0 min 0,000 mm 0,0 UV-I 0 W/m 2,4 C 2,8 C 1,6 km/h (1 Bft) 97,37 %
10.05.2017 04:44 2,8 C 13,3 C 97 % 1012,9 hPa 0,0 l/m 0,3 km/h (0 Bft) O-NO 62 0 min 0,000 mm 0,0 UV-I 0 W/m 2,4 C 2,8 C 1,6 km/h (1 Bft) 94,00 %
10.05.2017 04:46 2,8 C 13,3 C 97 % 1012,9 hPa 0,0 l/m 0,0 km/h (0 Bft) O-NO 62 0 min 0,000 mm 0,0 UV-I 0 W/m 2,4 C 2,8 C 0,0 km/h (0 Bft) 98,00 %
10.05.2017 04:48 2,8 C 13,3 C 97 % 1012,9 hPa 0,0 l/m 0,0 km/h (0 Bft) O-NO 62 0 min 0,000 mm 0,0 UV-I 0 W/m 2,4 C 2,8 C 0,0 km/h (0 Bft) 95,12 %
10.05.2017 04:50 2,8 C 13,3 C 97 % 1012,9 hPa 0,0 l/m 0,0 km/h (0 Bft) O-NO 62 0 min 0,000 mm 0,0 UV-I 0 W/m 2,4 C 2,8 C 0,0 km/h (0 Bft) 100,00 %
10.05.2017 04:52 2,8 C 13,3 C 97 % 1012,8 hPa 0,0 l/m 0,0 km/h (0 Bft) O-NO 62 0 min 0,000 mm 0,0 UV-I 0 W/m 2,4 C 2,8 C 0,0 km/h (0 Bft) 98,00 %
10.05.2017 04:54 2,7 C 13,3 C 97 % 1012,8 hPa 0,0 l/m 1,0 km/h (0 Bft) O-NO 62 0 min 0,000 mm 0,0 UV-I 0 W/m 2,3 C 2,7 C 3,2 km/h (1 Bft) 98,00 %
10.05.2017 04:56 2,7 C 13,3 C 97 % 1012,9 hPa 0,0 l/m 0,6 km/h (0 Bft) O-NO 62 0 min 0,000 mm 0,0 UV-I 0 W/m 2,3 C 2,7 C 1,6 km/h (1 Bft) 100,00 %
10.05.2017 04:58 2,7 C 13,3 C 97 % 1012,9 hPa 0,0 l/m 1,1 km/h (1 Bft) O-NO 62 0 min 0,000 mm 0,0 UV-I 0 W/m 2,3 C 2,7 C 3,2 km/h (1 Bft) 100,00 %
10.05.2017 05:00 2,8 C 13,3 C 97 % 1012,8 hPa 0,0 l/m 1,5 km/h (1 Bft) O-NO 62 0 min 0,000 mm 0,0 UV-I 0 W/m 2,4 C 2,8 C 3,2 km/h (1 Bft) 100,00 %
10.05.2017 05:02 2,8 C 13,3 C 97 % 1012,8 hPa 0,0 l/m 3,0 km/h (1 Bft) O-NO 62 0 min 0,000 mm 0,0 UV-I 0 W/m 2,4 C 2,8 C 4,8 km/h (1 Bft) 100,00 %
10.05.2017 05:04 2,9 C 13,3 C 97 % 1012,7 hPa 0,0 l/m 2,1 km/h (1 Bft) O-NO 62 0 min 0,000 mm 0,0 UV-I 0 W/m 2,5 C 2,9 C 4,8 km/h (1 Bft) 100,00 %
10.05.2017 05:06 2,9 C 13,3 C 97 % 1012,8 hPa 0,0 l/m 0,6 km/h (0 Bft) O-NO 62 0 min 0,000 mm 0,0 UV-I 0 W/m 2,5 C 2,9 C 3,2 km/h (1 Bft) 96,15 %
10.05.2017 05:08 2,9 C 13,3 C 97 % 1012,8 hPa 0,0 l/m 0,5 km/h (0 Bft) O-NO 62 0 min 0,000 mm 0,0 UV-I 0 W/m 2,5 C 2,9 C 1,6 km/h (1 Bft) 95,74 %
10.05.2017 05:10 2,9 C 13,3 C 97 % 1012,7 hPa 0,0 l/m 1,1 km/h (1 Bft) O-NO 62 0 min 0,000 mm 0,0 UV-I 0 W/m 2,5 C 2,9 C 3,2 km/h (1 Bft) 95,83 %
10.05.2017 05:12 2,9 C 13,3 C 97 % 1012,7 hPa 0,0 l/m 1,5 km/h (1 Bft) O-NO 62 0 min 0,000 mm 0,0 UV-I 0 W/m 2,5 C 2,9 C 3,2 km/h (1 Bft) 97,87 %
10.05.2017 05:14 2,8 C 13,3 C 97 % 1012,7 hPa 0,0 l/m 0,7 km/h (0 Bft) O-NO 62 0 min 0,000 mm 0,0 UV-I 0 W/m 2,4 C 2,8 C 1,6 km/h (1 Bft) 95,45 %
10.05.2017 05:16 2,8 C 13,3 C 97 % 1012,7 hPa 0,0 l/m 0,2 km/h (0 Bft) O-NO 62 0 min 0,000 mm 0,0 UV-I 0 W/m 2,4 C 2,8 C 1,6 km/h (1 Bft) 98,00 %
10.05.2017 05:18 2,8 C 13,3 C 97 % 1012,7 hPa 0,0 l/m 0,0 km/h (0 Bft) O-NO 62 0 min 0,000 mm 0,0 UV-I 5 W/m 2,4 C 2,8 C 0,0 km/h (0 Bft) 96,00 %
10.05.2017 05:20 2,8 C 13,3 C 97 % 1012,7 hPa 0,0 l/m 0,0 km/h (0 Bft) O-NO 62 0 min 0,000 mm 0,0 UV-I 5 W/m 2,4 C 2,8 C 0,0 km/h (0 Bft) 93,62 %
10.05.2017 05:22 2,8 C 13,3 C 97 % 1012,7 hPa 0,0 l/m 0,0 km/h (0 Bft) O-NO 62 0 min 0,000 mm 0,0 UV-I 5 W/m 2,4 C 2,8 C 0,0 km/h (0 Bft) 96,08 %
10.05.2017 05:24 2,7 C 13,3 C 97 % 1012,7 hPa 0,0 l/m 0,0 km/h (0 Bft) O-NO 62 0 min 0,000 mm 0,0 UV-I 5 W/m 2,3 C 2,7 C 0,0 km/h (0 Bft) 94,74 %
10.05.2017 05:26 2,7 C 13,3 C 97 % 1012,7 hPa 0,0 l/m 0,0 km/h (0 Bft) O-NO 62 0 min 0,000 mm 0,0 UV-I 7 W/m 2,3 C 2,7 C 1,6 km/h (1 Bft) 100,00 %
10.05.2017 05:30 2,6 C 13,3 C 97 % 1012,7 hPa 0,0 l/m 1,3 km/h (1 Bft) O-NO 62 0 min 0,000 mm 0,0 UV-I 7 W/m 2,2 C 2,6 C 1,6 km/h (1 Bft) 89,47 %
10.05.2017 05:32 2,6 C 13,3 C 97 % 1012,7 hPa 0,0 l/m 0,2 km/h (0 Bft) O-NO 62 0 min 0,000 mm 0,0 UV-I 7 W/m 2,2 C 2,6 C 1,6 km/h (1 Bft) 98,18 %
10.05.2017 05:34 2,5 C 13,3 C 97 % 1012,7 hPa 0,0 l/m 0,0 km/h (0 Bft) O-NO 62 0 min 0,000 mm 0,0 UV-I 8 W/m 2,1 C 2,5 C 0,0 km/h (0 Bft) 94,87 %
10.05.2017 05:36 2,5 C 13,3 C 97 % 1012,7 hPa 0,0 l/m 0,0 km/h (0 Bft) O-NO 62 0 min 0,000 mm 0,0 UV-I 9 W/m 2,1 C 2,5 C 0,0 km/h (0 Bft) 97,87 %
10.05.2017 05:38 2,4 C 13,3 C 97 % 1012,7 hPa 0,0 l/m 0,0 km/h (0 Bft) O-NO 62 0 min 0,000 mm 0,0 UV-I 10 W/m 2,0 C 2,4 C 0,0 km/h (0 Bft) 94,00 %
10.05.2017 05:40 2,4 C 13,3 C 97 % 1012,8 hPa 0,0 l/m 0,0 km/h (0 Bft) O-NO 62 0 min 0,000 mm 0,0 UV-I 12 W/m 2,0 C 2,4 C 0,0 km/h (0 Bft) 100,00 %
10.05.2017 05:42 2,5 C 13,3 C 97 % 1012,7 hPa 0,0 l/m 0,0 km/h (0 Bft) O-NO 62 0 min 0,000 mm 0,0 UV-I 13 W/m 2,1 C 2,5 C 0,0 km/h (0 Bft) 97,87 %
10.05.2017 05:44 2,4 C 13,3 C 97 % 1012,7 hPa 0,0 l/m 0,0 km/h (0 Bft) O-NO 62 2 min 0,000 mm 0,0 UV-I 16 W/m 2,0 C 2,4 C 0,0 km/h (0 Bft) 94,74 %
10.05.2017 05:46 2,3 C 13,3 C 97 % 1012,7 hPa 0,0 l/m 0,0 km/h (0 Bft) O-NO 62 2 min 0,000 mm 0,0 UV-I 18 W/m 1,9 C 2,3 C 0,0 km/h (0 Bft) 100,00 %
10.05.2017 05:48 2,3 C 13,3 C 97 % 1012,8 hPa 0,0 l/m 0,0 km/h (0 Bft) O-NO 62 2 min 0,000 mm 0,0 UV-I 18 W/m 1,9 C 2,3 C 0,0 km/h (0 Bft) 98,00 %
10.05.2017 05:50 2,2 C 13,3 C 97 % 1012,8 hPa 0,0 l/m 0,0 km/h (0 Bft) O-NO 62 2 min 0,000 mm 0,0 UV-I 21 W/m 1,8 C 2,2 C 0,0 km/h (0 Bft) 98,00 %
10.05.2017 05:52 2,2 C 13,3 C 97 % 1012,8 hPa 0,0 l/m 0,0 km/h (0 Bft) O-NO 62 0 min 0,000 mm 0,0 UV-I 21 W/m 1,8 C 2,2 C 0,0 km/h (0 Bft) 95,74 %
10.05.2017 05:54 2,1 C 13,3 C 97 % 1012,7 hPa 0,0 l/m 0,0 km/h (0 Bft) O-NO 62 0 min 0,000 mm 0,0 UV-I 21 W/m 1,7 C 2,1 C 0,0 km/h (0 Bft) 98,00 %
10.05.2017 05:56 2,0 C 13,3 C 97 % 1012,7 hPa 0,0 l/m 0,0 km/h (0 Bft) O-NO 62 0 min 0,000 mm 0,0 UV-I 23 W/m 1,6 C 2,0 C 0,0 km/h (0 Bft) 100,00 %
10.05.2017 05:58 1,9 C 13,3 C 97 % 1012,7 hPa 0,0 l/m 0,0 km/h (0 Bft) O-NO 62 0 min 0,000 mm 0,0 UV-I 25 W/m 1,5 C 1,9 C 0,0 km/h (0 Bft) 96,00 %
10.05.2017 06:00 1,9 C 13,3 C 97 % 1012,7 hPa 0,0 l/m 0,0 km/h (0 Bft) O-NO 62 0 min 0,000 mm 0,0 UV-I 28 W/m 1,5 C 1,9 C 0,0 km/h (0 Bft) 97,87 %
10.05.2017 06:02 2,0 C 13,3 C 97 % 1012,7 hPa 0,0 l/m 0,0 km/h (0 Bft) O-NO 62 0 min 0,000 mm 0,0 UV-I 30 W/m 1,6 C 2,0 C 0,0 km/h (0 Bft) 100,00 %
10.05.2017 06:04 2,0 C 13,3 C 97 % 1012,7 hPa 0,0 l/m 0,3 km/h (0 Bft) O-NO 62 0 min 0,000 mm 0,0 UV-I 29 W/m 1,6 C 2,0 C 1,6 km/h (1 Bft) 94,29 %
10.05.2017 06:06 2,0 C 13,3 C 97 % 1012,7 hPa 0,0 l/m 0,0 km/h (0 Bft) O-NO 62 0 min 0,000 mm 0,0 UV-I 32 W/m 1,6 C 2,0 C 0,0 km/h (0 Bft) 100,00 %
10.05.2017 06:08 2,1 C 13,3 C 97 % 1012,7 hPa 0,0 l/m 0,0 km/h (0 Bft) O-NO 62 0 min 0,000 mm 0,0 UV-I 35 W/m 1,7 C 2,1 C 0,0 km/h (0 Bft) 100,00 %
10.05.2017 06:10 2,1 C 13,3 C 97 % 1012,7 hPa 0,0 l/m 0,0 km/h (0 Bft) O-NO 62 0 min 0,000 mm 0,0 UV-I 38 W/m 1,7 C 2,1 C 0,0 km/h (0 Bft) 98,00 %
10.05.2017 06:12 2,1 C 13,3 C 97 % 1012,7 hPa 0,0 l/m 0,0 km/h (0 Bft) O-NO 62 0 min 0,000 mm 0,0 UV-I 45 W/m 1,7 C 2,1 C 0,0 km/h (0 Bft) 95,74 %
10.05.2017 06:14 2,1 C 13,3 C 97 % 1012,7 hPa 0,0 l/m 0,0 km/h (0 Bft) O-NO 62 0 min 0,000 mm 0,0 UV-I 48 W/m 1,7 C 2,1 C 0,0 km/h (0 Bft) 95,74 %
10.05.2017 06:16 2,1 C 13,3 C 97 % 1012,7 hPa 0,0 l/m 0,0 km/h (0 Bft) O-NO 62 0 min 0,000 mm 0,0 UV-I 50 W/m 1,7 C 2,1 C 0,0 km/h (0 Bft) 100,00 %
10.05.2017 06:18 2,1 C 13,3 C 97 % 1012,7 hPa 0,0 l/m 0,0 km/h (0 Bft) O-NO 62 0 min 0,000 mm 0,0 UV-I 50 W/m 1,7 C 2,1 C 0,0 km/h (0 Bft) 96,23 %
10.05.2017 06:20 2,2 C 13,3 C 97 % 1012,7 hPa 0,0 l/m 0,0 km/h (0 Bft) O-NO 62 0 min 0,000 mm 0,0 UV-I 53 W/m 1,8 C 2,2 C 0,0 km/h (0 Bft) 95,74 %
10.05.2017 06:22 2,2 C 13,3 C 97 % 1012,7 hPa 0,0 l/m 0,0 km/h (0 Bft) O-NO 62 0 min 0,000 mm 0,0 UV-I 54 W/m 1,8 C 2,2 C 0,0 km/h (0 Bft) 97,87 %
10.05.2017 06:24 2,2 C 13,3 C 97 % 1012,7 hPa 0,0 l/m 0,0 km/h (0 Bft) O-NO 62 0 min 0,000 mm 0,0 UV-I 57 W/m 1,8 C 2,2 C 0,0 km/h (0 Bft) 100,00 %
10.05.2017 06:26 2,2 C 13,3 C 97 % 1012,7 hPa 0,0 l/m 0,0 km/h (0 Bft) O-NO 62 0 min 0,000 mm 0,0 UV-I 57 W/m 1,8 C 2,2 C 0,0 km/h (0 Bft) 96,77 %
10.05.2017 06:28 2,3 C 13,3 C 97 % 1012,7 hPa 0,0 l/m 0,1 km/h (0 Bft) O-NO 62 0 min 0,000 mm 0,0 UV-I 58 W/m 1,9 C 2,3 C 1,6 km/h (1 Bft) 97,56 %
10.05.2017 06:30 2,4 C 13,3 C 97 % 1012,8 hPa 0,0 l/m 0,2 km/h (0 Bft) O-NO 62 0 min 0,000 mm 0,0 UV-I 55 W/m 2,0 C 2,4 C 1,6 km/h (1 Bft) 98,11 %
10.05.2017 06:32 2,5 C 13,3 C 98 % 1012,7 hPa 0,0 l/m 0,5 km/h (0 Bft) O-NO 62 0 min 0,000 mm 0,0 UV-I 53 W/m 2,2 C 2,5 C 3,2 km/h (1 Bft) 97,62 %
10.05.2017 06:34 2,6 C 13,3 C 98 % 1012,7 hPa 0,0 l/m 0,5 km/h (0 Bft) O-NO 62 0 min 0,000 mm 0,0 UV-I 49 W/m 2,3 C 2,6 C 3,2 km/h (1 Bft) 95,12 %
10.05.2017 06:36 2,6 C 13,3 C 98 % 1012,7 hPa 0,0 l/m 1,3 km/h (1 Bft) O-NO 70 0 min 0,000 mm 0,0 UV-I 49 W/m 2,3 C 2,6 C 3,2 km/h (1 Bft) 100,00 %
10.05.2017 06:38 2,8 C 13,3 C 97 % 1012,7 hPa 0,0 l/m 0,9 km/h (0 Bft) O-NO 70 0 min 0,000 mm 0,0 UV-I 57 W/m 2,4 C 2,8 C 3,2 km/h (1 Bft) 95,74 %
10.05.2017 06:40 2,8 C 13,3 C 98 % 1012,7 hPa 0,0 l/m 2,7 km/h (1 Bft) O-NO 73 0 min 0,000 mm 0,0 UV-I 62 W/m 2,5 C 2,8 C 4,8 km/h (1 Bft) 100,00 %
10.05.2017 06:42 2,7 C 13,3 C 97 % 1012,7 hPa 0,0 l/m 2,9 km/h (1 Bft) O-NO 73 0 min 0,000 mm 0,0 UV-I 66 W/m 2,3 C 2,7 C 6,4 km/h (2 Bft) 97,44 %
10.05.2017 06:44 2,7 C 13,3 C 97 % 1012,7 hPa 0,0 l/m 3,3 km/h (1 Bft) O 83 0 min 0,000 mm 0,0 UV-I 70 W/m 2,3 C 2,7 C 4,8 km/h (1 Bft) 98,11 %
10.05.2017 06:46 2,7 C 13,3 C 97 % 1012,7 hPa 0,0 l/m 2,1 km/h (1 Bft) O 88 0 min 0,000 mm 0,0 UV-I 73 W/m 2,3 C 2,7 C 4,8 km/h (1 Bft) 97,56 %
10.05.2017 06:48 2,7 C 13,3 C 97 % 1012,7 hPa 0,0 l/m 3,9 km/h (1 Bft) O 84 0 min 0,000 mm 0,0 UV-I 85 W/m 2,3 C 2,7 C 6,4 km/h (2 Bft) 96,23 %
10.05.2017 06:50 2,8 C 13,3 C 97 % 1012,7 hPa 0,0 l/m 3,1 km/h (1 Bft) O 84 0 min 0,000 mm 0,0 UV-I 100 W/m 2,4 C 2,8 C 4,8 km/h (1 Bft) 98,00 %
10.05.2017 06:52 2,9 C 13,3 C 98 % 1012,7 hPa 0,0 l/m 1,3 km/h (1 Bft) O 84 0 min 0,000 mm 0,0 UV-I 101 W/m 2,6 C 2,9 C 3,2 km/h (1 Bft) 92,31 %
10.05.2017 06:54 2,9 C 13,3 C 98 % 1012,7 hPa 0,0 l/m 1,7 km/h (1 Bft) O 84 0 min 0,000 mm 0,0 UV-I 99 W/m 2,6 C 2,9 C 3,2 km/h (1 Bft) 97,87 %
10.05.2017 06:56 2,9 C 13,3 C 98 % 1012,8 hPa 0,0 l/m 2,7 km/h (1 Bft) O 84 0 min 0,000 mm 0,0 UV-I 94 W/m 2,6 C 2,9 C 4,8 km/h (1 Bft) 97,87 %
10.05.2017 06:58 3,0 C 13,3 C 98 % 1012,8 hPa 0,0 l/m 4,9 km/h (1 Bft) O-NO 70 0 min 0,000 mm 0,0 UV-I 106 W/m 2,7 C 3,0 C 9,7 km/h (2 Bft) 97,87 %
10.05.2017 07:00 3,0 C 13,3 C 98 % 1012,7 hPa 0,0 l/m 4,4 km/h (1 Bft) O-NO 70 0 min 0,025 mm 0,0 UV-I 103 W/m 2,7 C 3,0 C 8,0 km/h (2 Bft) 98,00 %
10.05.2017 07:02 3,0 C 13,3 C 98 % 1012,7 hPa 0,0 l/m 3,4 km/h (1 Bft) O-NO 66 0 min 0,000 mm 0,0 UV-I 80 W/m 2,7 C 3,0 C 6,4 km/h (2 Bft) 94,00 %
10.05.2017 07:04 3,0 C 13,3 C 97 % 1012,7 hPa 0,0 l/m 4,3 km/h (1 Bft) NO 55 0 min 0,000 mm 0,0 UV-I 88 W/m 2,6 C 3,0 C 6,4 km/h (2 Bft) 97,56 %
10.05.2017 07:06 3,1 C 13,3 C 97 % 1012,7 hPa 0,0 l/m 5,4 km/h (1 Bft) NO 49 0 min 0,000 mm 0,0 UV-I 86 W/m 2,7 C 3,1 C 8,0 km/h (2 Bft) 88,00 %
10.05.2017 07:08 3,1 C 13,3 C 98 % 1012,8 hPa 0,0 l/m 6,1 km/h (2 Bft) NO 49 0 min 0,000 mm 0,0 UV-I 83 W/m 2,8 C 3,1 C 8,0 km/h (2 Bft) 96,23 %
10.05.2017 07:10 3,1 C 13,3 C 98 % 1012,8 hPa 0,0 l/m 7,7 km/h (2 Bft) NO 44 0 min 0,000 mm 0,0 UV-I 81 W/m 2,8 C 1,9 C 9,7 km/h (2 Bft) 89,47 %
10.05.2017 07:12 3,1 C 13,3 C 98 % 1012,8 hPa 0,0 l/m 6,7 km/h (2 Bft) NO 42 0 min 0,000 mm 0,0 UV-I 87 W/m 2,8 C 2,8 C 8,0 km/h (2 Bft) 92,00 %
10.05.2017 07:14 3,0 C 13,3 C 97 % 1012,8 hPa 0,0 l/m 6,1 km/h (2 Bft) NO 36 0 min 0,000 mm 0,0 UV-I 93 W/m 2,6 C 3,0 C 8,0 km/h (2 Bft) 90,00 %
10.05.2017 07:16 2,9 C 13,3 C 97 % 1012,8 hPa 0,0 l/m 4,1 km/h (1 Bft) NO 51 0 min 0,000 mm 0,0 UV-I 95 W/m 2,5 C 2,9 C 8,0 km/h (2 Bft) 94,29 %
10.05.2017 07:18 2,9 C 13,3 C 97 % 1012,9 hPa 0,0 l/m 5,6 km/h (1 Bft) NO 45 0 min 0,000 mm 0,0 UV-I 94 W/m 2,5 C 2,9 C 9,7 km/h (2 Bft) 93,44 %
10.05.2017 07:20 2,9 C 13,3 C 97 % 1012,9 hPa 0,0 l/m 5,1 km/h (1 Bft) O-NO 71 0 min 0,000 mm 0,0 UV-I 82 W/m 2,5 C 2,9 C 8,0 km/h (2 Bft) 92,68 %
10.05.2017 07:22 2,8 C 13,3 C 98 % 1012,9 hPa 0,0 l/m 3,8 km/h (1 Bft) O-NO 71 0 min 0,000 mm 0,0 UV-I 76 W/m 2,5 C 2,8 C 4,8 km/h (1 Bft) 93,62 %
10.05.2017 07:24 2,9 C 13,3 C 97 % 1012,9 hPa 0,0 l/m 4,2 km/h (1 Bft) O-NO 75 0 min 0,000 mm 0,0 UV-I 84 W/m 2,5 C 2,9 C 6,4 km/h (2 Bft) 92,00 %
10.05.2017 07:26 2,9 C 13,3 C 97 % 1012,9 hPa 0,0 l/m 2,5 km/h (1 Bft) O-NO 61 0 min 0,000 mm 0,0 UV-I 82 W/m 2,5 C 2,9 C 4,8 km/h (1 Bft) 89,36 %
10.05.2017 07:28 3,0 C 13,3 C 97 % 1012,9 hPa 0,0 l/m 2,7 km/h (1 Bft) NO 55 0 min 0,000 mm 0,0 UV-I 80 W/m 2,6 C 3,0 C 4,8 km/h (1 Bft) 92,11 %
10.05.2017 07:30 3,2 C 13,3 C 98 % 1012,9 hPa 0,0 l/m 3,1 km/h (1 Bft) NO 36 0 min 0,000 mm 0,0 UV-I 83 W/m 2,9 C 3,2 C 6,4 km/h (2 Bft) 92,00 %
10.05.2017 07:32 3,2 C 13,3 C 98 % 1012,9 hPa 0,0 l/m 1,7 km/h (1 Bft) NO 36 0 min 0,000 mm 0,0 UV-I 89 W/m 2,9 C 3,2 C 4,8 km/h (1 Bft) 90,00 %
10.05.2017 07:34 3,3 C 13,3 C 98 % 1012,9 hPa 0,0 l/m 5,5 km/h (1 Bft) NO 56 0 min 0,000 mm 0,0 UV-I 100 W/m 3,0 C 3,3 C 9,7 km/h (2 Bft) 87,18 %
10.05.2017 07:36 3,3 C 13,3 C 98 % 1012,9 hPa 0,0 l/m 4,6 km/h (1 Bft) NO 53 0 min 0,000 mm 0,0 UV-I 99 W/m 3,0 C 3,3 C 6,4 km/h (2 Bft) 96,23 %
10.05.2017 07:38 3,3 C 13,3 C 98 % 1012,9 hPa 0,0 l/m 3,2 km/h (1 Bft) NO 53 0 min 0,000 mm 0,0 UV-I 95 W/m 3,0 C 3,3 C 6,4 km/h (2 Bft) 95,74 %
10.05.2017 07:40 3,2 C 13,3 C 98 % 1012,9 hPa 0,0 l/m 3,7 km/h (1 Bft) NO 53 0 min 0,000 mm 0,0 UV-I 98 W/m 2,9 C 3,2 C 4,8 km/h (1 Bft) 96,00 %
10.05.2017 07:42 3,2 C 13,3 C 98 % 1012,9 hPa 0,0 l/m 4,2 km/h (1 Bft) O-NO 58 0 min 0,000 mm 0,0 UV-I 117 W/m 2,9 C 3,2 C 6,4 km/h (2 Bft) 94,00 %
10.05.2017 07:44 3,2 C 13,3 C 98 % 1012,8 hPa 0,0 l/m 4,3 km/h (1 Bft) O-NO 62 0 min 0,000 mm 0,0 UV-I 124 W/m 2,9 C 3,2 C 8,0 km/h (2 Bft) 97,37 %
10.05.2017 07:46 3,2 C 13,3 C 98 % 1012,8 hPa 0,0 l/m 3,1 km/h (1 Bft) O-NO 67 0 min 0,000 mm 0,0 UV-I 127 W/m 2,9 C 3,2 C 6,4 km/h (2 Bft) 92,86 %
10.05.2017 07:48 3,2 C 13,3 C 98 % 1012,8 hPa 0,0 l/m 4,5 km/h (1 Bft) O 84 0 min 0,000 mm 0,0 UV-I 142 W/m 2,9 C 3,2 C 6,4 km/h (2 Bft) 97,56 %
10.05.2017 07:50 3,3 C 13,3 C 98 % 1012,8 hPa 0,0 l/m 5,0 km/h (1 Bft) O 82 0 min 0,000 mm 0,0 UV-I 138 W/m 3,0 C 3,3 C 8,0 km/h (2 Bft) 100,00 %
10.05.2017 07:52 3,2 C 13,3 C 98 % 1012,7 hPa 0,0 l/m 1,8 km/h (1 Bft) O 82 0 min 0,000 mm 0,0 UV-I 133 W/m 2,9 C 3,2 C 3,2 km/h (1 Bft) 97,56 %
10.05.2017 07:54 3,3 C 13,3 C 98 % 1012,7 hPa 0,0 l/m 2,2 km/h (1 Bft) O 82 0 min 0,000 mm 0,0 UV-I 139 W/m 3,0 C 3,3 C 3,2 km/h (1 Bft) 97,14 %
10.05.2017 07:56 3,4 C 13,3 C 98 % 1012,6 hPa 0,0 l/m 2,3 km/h (1 Bft) O 82 0 min 0,000 mm 0,0 UV-I 138 W/m 3,1 C 3,4 C 3,2 km/h (1 Bft) 94,64 %
10.05.2017 07:58 3,4 C 13,3 C 98 % 1012,7 hPa 0,0 l/m 2,5 km/h (1 Bft) O 82 0 min 0,000 mm 0,0 UV-I 139 W/m 3,1 C 3,4 C 4,8 km/h (1 Bft) 100,00 %
10.05.2017 08:00 3,5 C 13,3 C 98 % 1012,7 hPa 0,0 l/m 2,2 km/h (1 Bft) O 82 0 min 0,051 mm 0,0 UV-I 145 W/m 3,2 C 3,5 C 4,8 km/h (1 Bft) 96,00 %
10.05.2017 08:02 3,5 C 13,3 C 98 % 1012,7 hPa 0,0 l/m 4,8 km/h (1 Bft) O 88 0 min 0,000 mm 0,0 UV-I 150 W/m 3,2 C 3,5 C 6,4 km/h (2 Bft) 97,87 %
10.05.2017 08:04 3,5 C 13,3 C 98 % 1012,6 hPa 0,0 l/m 4,6 km/h (1 Bft) O 84 0 min 0,000 mm 0,0 UV-I 158 W/m 3,2 C 3,5 C 8,0 km/h (2 Bft) 96,00 %
10.05.2017 08:06 3,4 C 13,3 C 98 % 1012,6 hPa 0,0 l/m 3,1 km/h (1 Bft) O 82 0 min 0,000 mm 0,0 UV-I 162 W/m 3,1 C 3,4 C 4,8 km/h (1 Bft) 97,37 %
10.05.2017 08:08 3,5 C 13,3 C 98 % 1012,6 hPa 0,0 l/m 5,0 km/h (1 Bft) O 84 0 min 0,000 mm 0,0 UV-I 147 W/m 3,2 C 3,5 C 8,0 km/h (2 Bft) 96,23 %
10.05.2017 08:10 3,5 C 13,3 C 98 % 1012,6 hPa 0,0 l/m 4,5 km/h (1 Bft) O-NO 78 0 min 0,000 mm 0,0 UV-I 144 W/m 3,2 C 3,5 C 6,4 km/h (2 Bft) 97,62 %
10.05.2017 08:12 3,6 C 13,3 C 98 % 1012,6 hPa 0,0 l/m 4,1 km/h (1 Bft) O-SO 105 0 min 0,000 mm 0,0 UV-I 152 W/m 3,3 C 3,6 C 6,4 km/h (2 Bft) 98,00 %
10.05.2017 08:14 3,5 C 13,3 C 98 % 1012,6 hPa 0,0 l/m 3,8 km/h (1 Bft) O-SO 110 0 min 0,000 mm 0,0 UV-I 147 W/m 3,2 C 3,5 C 6,4 km/h (2 Bft) 97,56 %
10.05.2017 08:16 3,7 C 13,3 C 97 % 1012,7 hPa 0,0 l/m 2,2 km/h (1 Bft) O-SO 103 0 min 0,000 mm 0,0 UV-I 134 W/m 3,3 C 3,7 C 4,8 km/h (1 Bft) 98,11 %
10.05.2017 08:18 3,7 C 13,3 C 97 % 1012,7 hPa 0,0 l/m 2,4 km/h (1 Bft) O-SO 103 0 min 0,000 mm 0,0 UV-I 146 W/m 3,3 C 3,7 C 4,8 km/h (1 Bft) 100,00 %
10.05.2017 08:20 3,7 C 13,3 C 97 % 1012,6 hPa 0,0 l/m 2,3 km/h (1 Bft) O-SO 103 0 min 0,000 mm 0,2 UV-I 160 W/m 3,3 C 3,7 C 4,8 km/h (1 Bft) 100,00 %
10.05.2017 08:22 3,7 C 13,3 C 98 % 1012,6 hPa 0,0 l/m 4,3 km/h (1 Bft) O-NO 73 0 min 0,000 mm 0,4 UV-I 157 W/m 3,4 C 3,7 C 8,0 km/h (2 Bft) 98,21 %
10.05.2017 08:24 3,7 C 13,3 C 97 % 1012,7 hPa 0,0 l/m 3,0 km/h (1 Bft) O 91 0 min 0,000 mm 0,2 UV-I 156 W/m 3,3 C 3,7 C 4,8 km/h (1 Bft) 100,00 %
10.05.2017 08:26 3,8 C 13,3 C 97 % 1012,6 hPa 0,0 l/m 3,5 km/h (1 Bft) O-NO 78 0 min 0,000 mm 0,5 UV-I 166 W/m 3,4 C 3,8 C 6,4 km/h (2 Bft) 100,00 %
10.05.2017 08:28 3,7 C 13,3 C 97 % 1012,6 hPa 0,0 l/m 4,5 km/h (1 Bft) O-NO 60 0 min 0,000 mm 0,5 UV-I 176 W/m 3,3 C 3,7 C 6,4 km/h (2 Bft) 100,00 %
10.05.2017 08:30 3,8 C 13,3 C 97 % 1012,6 hPa 0,0 l/m 4,7 km/h (1 Bft) O-NO 62 0 min 0,000 mm 0,5 UV-I 200 W/m 3,4 C 3,8 C 9,7 km/h (2 Bft) 100,00 %
10.05.2017 08:32 3,8 C 13,3 C 97 % 1012,6 hPa 0,0 l/m 5,3 km/h (1 Bft) O-NO 59 0 min 0,000 mm 0,6 UV-I 201 W/m 3,4 C 3,8 C 9,7 km/h (2 Bft) 97,87 %
10.05.2017 08:34 3,8 C 13,3 C 97 % 1012,6 hPa 0,0 l/m 2,8 km/h (1 Bft) O-NO 59 0 min 0,000 mm 0,5 UV-I 166 W/m 3,4 C 3,8 C 6,4 km/h (2 Bft) 100,00 %
10.05.2017 08:36 3,9 C 13,3 C 97 % 1012,6 hPa 0,0 l/m 3,7 km/h (1 Bft) NO 49 0 min 0,000 mm 0,5 UV-I 158 W/m 3,5 C 3,9 C 6,4 km/h (2 Bft) 98,00 %
10.05.2017 08:38 4,0 C 13,3 C 97 % 1012,6 hPa 0,0 l/m 2,6 km/h (1 Bft) NO 43 0 min 0,000 mm 0,5 UV-I 165 W/m 3,6 C 4,0 C 6,4 km/h (2 Bft) 97,87 %
10.05.2017 08:40 4,0 C 13,3 C 97 % 1012,6 hPa 0,0 l/m 5,0 km/h (1 Bft) O-SO 123 0 min 0,000 mm 0,5 UV-I 164 W/m 3,6 C 4,0 C 11,3 km/h (2 Bft) 100,00 %
10.05.2017 08:42 3,9 C 13,3 C 97 % 1012,6 hPa 0,0 l/m 4,8 km/h (1 Bft) O 87 0 min 0,000 mm 0,5 UV-I 179 W/m 3,5 C 3,9 C 8,0 km/h (2 Bft) 97,56 %
10.05.2017 08:44 3,9 C 13,3 C 97 % 1012,6 hPa 0,0 l/m 3,5 km/h (1 Bft) O 80 0 min 0,000 mm 0,6 UV-I 200 W/m 3,5 C 3,9 C 6,4 km/h (2 Bft) 100,00 %
10.05.2017 08:46 4,1 C 13,3 C 97 % 1012,6 hPa 0,0 l/m 6,4 km/h (2 Bft) O 98 0 min 0,000 mm 0,7 UV-I 218 W/m 3,7 C 4,1 C 11,3 km/h (2 Bft) 97,73 %
10.05.2017 08:48 4,0 C 13,3 C 97 % 1012,7 hPa 0,0 l/m 5,3 km/h (1 Bft) O 84 0 min 0,000 mm 0,7 UV-I 226 W/m 3,6 C 4,0 C 9,7 km/h (2 Bft) 100,00 %
10.05.2017 08:50 4,0 C 13,3 C 97 % 1012,7 hPa 0,0 l/m 3,3 km/h (1 Bft) O 84 0 min 0,000 mm 0,7 UV-I 226 W/m 3,6 C 4,0 C 6,4 km/h (2 Bft) 98,00 %
10.05.2017 08:52 4,1 C 13,3 C 97 % 1012,7 hPa 0,0 l/m 5,2 km/h (1 Bft) O 92 0 min 0,000 mm 0,7 UV-I 222 W/m 3,7 C 4,1 C 9,7 km/h (2 Bft) 98,00 %
10.05.2017 08:54 4,0 C 13,3 C 96 % 1012,7 hPa 0,0 l/m 1,8 km/h (1 Bft) O 96 0 min 0,000 mm 0,7 UV-I 206 W/m 3,4 C 4,0 C 4,8 km/h (1 Bft) 100,00 %
10.05.2017 08:56 4,0 C 13,3 C 96 % 1012,7 hPa 0,0 l/m 0,9 km/h (0 Bft) O-SO 111 0 min 0,000 mm 0,7 UV-I 204 W/m 3,4 C 4,0 C 3,2 km/h (1 Bft) 98,39 %
10.05.2017 08:58 4,2 C 13,3 C 97 % 1012,7 hPa 0,0 l/m 1,5 km/h (1 Bft) O-SO 111 0 min 0,000 mm 0,7 UV-I 214 W/m 3,8 C 4,2 C 3,2 km/h (1 Bft) 100,00 %
10.05.2017 09:00 4,2 C 13,3 C 97 % 1012,7 hPa 0,0 l/m 3,7 km/h (1 Bft) O-SO 115 0 min 0,076 mm 0,7 UV-I 215 W/m 3,8 C 4,2 C 6,4 km/h (2 Bft) 97,37 %
10.05.2017 09:02 4,2 C 13,3 C 96 % 1012,7 hPa 0,0 l/m 0,7 km/h (0 Bft) O-SO 116 0 min 0,000 mm 0,8 UV-I 216 W/m 3,6 C 4,2 C 3,2 km/h (1 Bft) 98,11 %
10.05.2017 09:04 4,2 C 13,3 C 96 % 1012,7 hPa 0,0 l/m 0,0 km/h (0 Bft) O-SO 116 0 min 0,000 mm 0,7 UV-I 205 W/m 3,6 C 4,2 C 1,6 km/h (1 Bft) 96,00 %
10.05.2017 09:06 4,1 C 13,3 C 96 % 1012,7 hPa 0,0 l/m 1,5 km/h (1 Bft) O-SO 116 0 min 0,000 mm 0,7 UV-I 215 W/m 3,5 C 4,1 C 4,8 km/h (1 Bft) 94,29 %
10.05.2017 09:08 4,3 C 13,3 C 96 % 1012,7 hPa 0,0 l/m 0,1 km/h (0 Bft) O-SO 116 0 min 0,000 mm 0,8 UV-I 242 W/m 3,7 C 4,3 C 1,6 km/h (1 Bft) 96,23 %
10.05.2017 09:10 4,4 C 13,3 C 97 % 1012,7 hPa 0,0 l/m 4,1 km/h (1 Bft) O-NO 61 0 min 0,000 mm 0,9 UV-I 254 W/m 4,0 C 4,4 C 6,4 km/h (2 Bft) 95,74 %
10.05.2017 09:12 4,6 C 13,3 C 97 % 1012,7 hPa 0,0 l/m 2,4 km/h (1 Bft) O-NO 61 0 min 0,000 mm 0,9 UV-I 250 W/m 4,2 C 4,6 C 4,8 km/h (1 Bft) 96,00 %
10.05.2017 09:14 4,6 C 13,3 C 96 % 1012,7 hPa 0,0 l/m 3,4 km/h (1 Bft) NO 36 0 min 0,000 mm 0,9 UV-I 238 W/m 4,0 C 4,6 C 8,0 km/h (2 Bft) 94,74 %
10.05.2017 09:16 4,4 C 13,3 C 95 % 1012,7 hPa 0,0 l/m 0,0 km/h (0 Bft) NO 36 0 min 0,000 mm 0,9 UV-I 238 W/m 3,7 C 4,4 C 0,0 km/h (0 Bft) 98,21 %
10.05.2017 09:18 4,5 C 13,3 C 96 % 1012,7 hPa 0,0 l/m 1,6 km/h (1 Bft) NO 36 0 min 0,000 mm 1,0 UV-I 250 W/m 3,9 C 4,5 C 6,4 km/h (2 Bft) 94,74 %
10.05.2017 09:20 4,5 C 13,3 C 95 % 1012,6 hPa 0,0 l/m 1,0 km/h (0 Bft) NO 36 0 min 0,000 mm 1,0 UV-I 257 W/m 3,8 C 4,5 C 4,8 km/h (1 Bft) 96,00 %
10.05.2017 09:22 4,6 C 13,3 C 96 % 1012,7 hPa 0,0 l/m 0,0 km/h (0 Bft) NO 36 0 min 0,000 mm 1,0 UV-I 288 W/m 4,0 C 4,6 C 0,0 km/h (0 Bft) 95,74 %
10.05.2017 09:24 4,8 C 13,3 C 96 % 1012,6 hPa 0,0 l/m 0,0 km/h (0 Bft) NO 36 0 min 0,000 mm 1,1 UV-I 306 W/m 4,2 C 4,8 C 0,0 km/h (0 Bft) 97,87 %
10.05.2017 09:26 4,8 C 13,3 C 95 % 1012,6 hPa 0,0 l/m 5,1 km/h (1 Bft) O-SO 103 0 min 0,000 mm 1,1 UV-I 283 W/m 4,1 C 4,8 C 9,7 km/h (2 Bft) 94,34 %
10.05.2017 09:28 4,8 C 13,3 C 95 % 1012,7 hPa 0,0 l/m 3,9 km/h (1 Bft) O-NO 69 0 min 0,000 mm 1,0 UV-I 276 W/m 4,1 C 4,8 C 6,4 km/h (2 Bft) 95,45 %
10.05.2017 09:30 4,8 C 13,3 C 95 % 1012,6 hPa 0,0 l/m 3,1 km/h (1 Bft) O-NO 63 0 min 0,000 mm 1,0 UV-I 285 W/m 4,1 C 4,8 C 4,8 km/h (1 Bft) 98,00 %
10.05.2017 09:32 4,8 C 13,3 C 95 % 1012,7 hPa 0,0 l/m 2,4 km/h (1 Bft) O-NO 61 2 min 0,000 mm 1,1 UV-I 337 W/m 4,1 C 4,8 C 4,8 km/h (1 Bft) 91,67 %
10.05.2017 09:34 5,1 C 13,3 C 95 % 1012,6 hPa 0,0 l/m 0,3 km/h (0 Bft) O-NO 61 2 min 0,000 mm 1,4 UV-I 429 W/m 4,4 C 5,1 C 3,2 km/h (1 Bft) 96,23 %
10.05.2017 09:36 5,3 C 13,3 C 95 % 1012,6 hPa 0,0 l/m 3,0 km/h (1 Bft) O-NO 61 2 min 0,000 mm 1,5 UV-I 405 W/m 4,6 C 5,3 C 4,8 km/h (1 Bft) 100,00 %
10.05.2017 09:38 5,4 C 13,3 C 94 % 1012,6 hPa 0,0 l/m 5,8 km/h (2 Bft) O-SO 108 2 min 0,000 mm 1,6 UV-I 401 W/m 4,5 C 5,4 C 11,3 km/h (2 Bft) 97,73 %
10.05.2017 09:40 5,5 C 13,3 C 94 % 1012,6 hPa 0,0 l/m 5,0 km/h (1 Bft) O-NO 75 2 min 0,000 mm 1,6 UV-I 361 W/m 4,6 C 5,5 C 11,3 km/h (2 Bft) 98,00 %
10.05.2017 09:42 5,5 C 13,3 C 93 % 1012,6 hPa 0,0 l/m 4,9 km/h (1 Bft) NO 49 2 min 0,000 mm 1,7 UV-I 376 W/m 4,5 C 5,5 C 8,0 km/h (2 Bft) 100,00 %
10.05.2017 09:44 5,4 C 13,3 C 93 % 1012,5 hPa 0,0 l/m 1,6 km/h (1 Bft) SO 145 2 min 0,000 mm 1,6 UV-I 364 W/m 4,4 C 5,4 C 6,4 km/h (2 Bft) 98,00 %
10.05.2017 09:46 5,4 C 13,3 C 93 % 1012,5 hPa 0,0 l/m 1,5 km/h (1 Bft) S-SO 155 2 min 0,000 mm 1,9 UV-I 445 W/m 4,4 C 5,4 C 4,8 km/h (1 Bft) 98,11 %
10.05.2017 09:48 5,7 C 13,3 C 94 % 1012,5 hPa 0,0 l/m 6,3 km/h (2 Bft) O 82 2 min 0,000 mm 2,1 UV-I 566 W/m 4,8 C 5,7 C 11,3 km/h (2 Bft) 97,87 %
10.05.2017 09:50 5,7 C 13,3 C 92 % 1012,5 hPa 0,0 l/m 5,2 km/h (1 Bft) NO 50 2 min 0,000 mm 1,8 UV-I 396 W/m 4,5 C 5,7 C 8,0 km/h (2 Bft) 100,00 %
10.05.2017 09:52 5,7 C 13,3 C 92 % 1012,4 hPa 0,0 l/m 2,3 km/h (1 Bft) NO 42 0 min 0,000 mm 1,7 UV-I 305 W/m 4,5 C 5,7 C 4,8 km/h (1 Bft) 97,87 %
10.05.2017 09:54 5,8 C 13,3 C 92 % 1012,4 hPa 0,0 l/m 6,3 km/h (2 Bft) SO 126 0 min 0,000 mm 1,8 UV-I 331 W/m 4,6 C 5,8 C 11,3 km/h (2 Bft) 98,11 %
10.05.2017 09:56 5,8 C 13,3 C 92 % 1012,4 hPa 0,0 l/m 2,0 km/h (1 Bft) SO 140 0 min 0,000 mm 2,4 UV-I 357 W/m 4,6 C 5,8 C 6,4 km/h (2 Bft) 100,00 %
10.05.2017 09:58 5,8 C 13,3 C 92 % 1012,4 hPa 0,0 l/m 6,7 km/h (2 Bft) O-NO 71 2 min 0,000 mm 2,0 UV-I 568 W/m 4,6 C 5,6 C 12,9 km/h (3 Bft) 98,11 %
10.05.2017 10:00 5,9 C 13,3 C 91 % 1012,4 hPa 0,0 l/m 4,4 km/h (1 Bft) O-NO 63 2 min 0,127 mm 2,3 UV-I 439 W/m 4,5 C 5,9 C 6,4 km/h (2 Bft) 100,00 %
10.05.2017 10:02 6,0 C 13,3 C 91 % 1012,3 hPa 0,0 l/m 3,4 km/h (1 Bft) SO 124 2 min 0,000 mm 2,6 UV-I 537 W/m 4,6 C 6,0 C 6,4 km/h (2 Bft) 98,11 %
10.05.2017 10:04 6,2 C 13,3 C 92 % 1012,2 hPa 0,0 l/m 0,5 km/h (0 Bft) SO 124 2 min 0,000 mm 2,4 UV-I 725 W/m 5,0 C 6,2 C 1,6 km/h (1 Bft) 97,87 %
10.05.2017 10:06 6,2 C 13,3 C 91 % 1012,1 hPa 0,0 l/m 1,9 km/h (1 Bft) SO 135 2 min 0,000 mm 2,1 UV-I 449 W/m 4,8 C 6,2 C 3,2 km/h (1 Bft) 100,00 %
10.05.2017 10:08 6,3 C 13,3 C 91 % 1012,2 hPa 0,0 l/m 1,2 km/h (1 Bft) O-SO 121 0 min 0,000 mm 2,4 UV-I 371 W/m 4,9 C 6,3 C 4,8 km/h (1 Bft) 98,08 %
10.05.2017 10:10 6,4 C 13,3 C 90 % 1012,2 hPa 0,0 l/m 4,6 km/h (1 Bft) S-SO 159 2 min 0,000 mm 2,4 UV-I 428 W/m 4,9 C 6,4 C 8,0 km/h (2 Bft) 97,62 %
10.05.2017 10:12 6,6 C 13,3 C 91 % 1012,1 hPa 0,0 l/m 1,8 km/h (1 Bft) S-SO 149 2 min 0,000 mm 2,7 UV-I 564 W/m 5,2 C 6,6 C 4,8 km/h (1 Bft) 98,00 %
10.05.2017 10:14 6,7 C 13,3 C 91 % 1012,2 hPa 0,0 l/m 4,6 km/h (1 Bft) O-NO 69 2 min 0,000 mm 2,7 UV-I 619 W/m 5,3 C 6,7 C 8,0 km/h (2 Bft) 100,00 %
10.05.2017 10:16 6,8 C 13,3 C 90 % 1012,2 hPa 0,0 l/m 2,3 km/h (1 Bft) S 171 2 min 0,000 mm 2,9 UV-I 432 W/m 5,3 C 6,8 C 4,8 km/h (1 Bft) 100,00 %
10.05.2017 10:18 6,8 C 13,3 C 89 % 1012,2 hPa 0,0 l/m 2,4 km/h (1 Bft) SO 142 2 min 0,000 mm 2,9 UV-I 539 W/m 5,1 C 6,8 C 6,4 km/h (2 Bft) 96,00 %
10.05.2017 10:20 7,1 C 13,3 C 90 % 1012,2 hPa 0,0 l/m 3,3 km/h (1 Bft) SO 138 2 min 0,000 mm 2,8 UV-I 849 W/m 5,6 C 7,1 C 4,8 km/h (1 Bft) 100,00 %
10.05.2017 10:22 7,3 C 13,3 C 90 % 1012,1 hPa 0,0 l/m 4,3 km/h (1 Bft) SO 137 2 min 0,000 mm 3,0 UV-I 779 W/m 5,8 C 7,3 C 9,7 km/h (2 Bft) 92,45 %
10.05.2017 10:24 7,7 C 13,3 C 90 % 1012,1 hPa 0,0 l/m 6,6 km/h (2 Bft) O-SO 119 2 min 0,000 mm 3,0 UV-I 776 W/m 6,2 C 7,6 C 12,9 km/h (3 Bft) 97,37 %
10.05.2017 10:26 7,5 C 13,3 C 87 % 1012,1 hPa 0,0 l/m 3,1 km/h (1 Bft) O-SO 115 2 min 0,000 mm 3,1 UV-I 761 W/m 5,5 C 7,5 C 11,3 km/h (2 Bft) 96,23 %
10.05.2017 10:28 7,4 C 13,3 C 88 % 1012,1 hPa 0,0 l/m 1,9 km/h (1 Bft) S-SO 160 2 min 0,000 mm 2,9 UV-I 787 W/m 5,5 C 7,4 C 4,8 km/h (1 Bft) 100,00 %
10.05.2017 10:30 7,5 C 13,3 C 87 % 1012,1 hPa 0,0 l/m 6,5 km/h (2 Bft) SO 130 2 min 0,000 mm 3,0 UV-I 748 W/m 5,5 C 7,4 C 11,3 km/h (2 Bft) 100,00 %
10.05.2017 10:32 7,4 C 13,3 C 86 % 1012,1 hPa 0,0 l/m 3,6 km/h (1 Bft) SO 130 2 min 0,000 mm 3,2 UV-I 770 W/m 5,2 C 7,4 C 11,3 km/h (2 Bft) 100,00 %
10.05.2017 10:34 7,6 C 13,3 C 88 % 1012,2 hPa 0,0 l/m 1,7 km/h (1 Bft) SO 125 2 min 0,000 mm 3,3 UV-I 778 W/m 5,7 C 7,6 C 3,2 km/h (1 Bft) 98,11 %
10.05.2017 10:36 7,8 C 13,3 C 88 % 1012,2 hPa 0,0 l/m 4,2 km/h (1 Bft) NO 43 2 min 0,000 mm 3,1 UV-I 758 W/m 5,9 C 7,8 C 8,0 km/h (2 Bft) 94,74 %
10.05.2017 10:38 7,9 C 13,3 C 87 % 1012,2 hPa 0,0 l/m 3,1 km/h (1 Bft) O-NO 69 2 min 0,000 mm 3,2 UV-I 742 W/m 5,9 C 7,9 C 6,4 km/h (2 Bft) 98,00 %
10.05.2017 10:40 7,8 C 13,3 C 85 % 1012,2 hPa 0,0 l/m 4,6 km/h (1 Bft) O 89 2 min 0,000 mm 3,1 UV-I 675 W/m 5,4 C 7,8 C 8,0 km/h (2 Bft) 90,57 %
10.05.2017 10:42 8,0 C 13,3 C 87 % 1012,1 hPa 0,0 l/m 5,5 km/h (1 Bft) NO 42 2 min 0,000 mm 3,3 UV-I 804 W/m 6,0 C 8,0 C 8,0 km/h (2 Bft) 95,12 %
10.05.2017 10:44 8,4 C 13,3 C 88 % 1012,1 hPa 0,0 l/m 7,3 km/h (2 Bft) NO 50 2 min 0,000 mm 3,2 UV-I 855 W/m 6,5 C 7,7 C 14,5 km/h (3 Bft) 98,00 %
10.05.2017 10:46 8,3 C 13,3 C 84 % 1012,0 hPa 0,0 l/m 2,6 km/h (1 Bft) NO 40 2 min 0,000 mm 2,6 UV-I 578 W/m 5,8 C 8,3 C 6,4 km/h (2 Bft) 96,00 %
10.05.2017 10:48 8,1 C 13,3 C 84 % 1012,0 hPa 0,0 l/m 3,8 km/h (1 Bft) NO 52 0 min 0,000 mm 2,8 UV-I 355 W/m 5,6 C 8,1 C 6,4 km/h (2 Bft) 93,62 %
10.05.2017 10:50 7,9 C 13,3 C 85 % 1012,0 hPa 0,0 l/m 1,3 km/h (1 Bft) NO 52 0 min 0,000 mm 3,0 UV-I 355 W/m 5,5 C 7,9 C 4,8 km/h (1 Bft) 91,49 %
10.05.2017 10:52 8,4 C 13,3 C 90 % 1012,0 hPa 0,0 l/m 4,4 km/h (1 Bft) N-NO 27 0 min 0,000 mm 3,5 UV-I 355 W/m 6,9 C 8,4 C 8,0 km/h (2 Bft) 94,87 %
10.05.2017 10:54 8,5 C 13,3 C 87 % 1012,0 hPa 0,0 l/m 4,8 km/h (1 Bft) O-NO 69 0 min 0,000 mm 2,6 UV-I 355 W/m 6,5 C 8,5 C 8,0 km/h (2 Bft) 94,34 %
10.05.2017 10:56 8,6 C 13,3 C 85 % 1012,0 hPa 0,0 l/m 5,6 km/h (1 Bft) O-NO 74 2 min 0,000 mm 3,7 UV-I 812 W/m 6,2 C 8,6 C 11,3 km/h (2 Bft) 95,74 %
10.05.2017 10:58 8,6 C 13,9 C 85 % 1012,0 hPa 0,0 l/m 4,7 km/h (1 Bft) N-NO 32 2 min 0,000 mm 3,7 UV-I 843 W/m 6,2 C 8,6 C 12,9 km/h (3 Bft) 92,68 %
10.05.2017 11:00 8,6 C 13,3 C 85 % 1011,9 hPa 0,0 l/m 3,7 km/h (1 Bft) NO 49 2 min 0,280 mm 3,4 UV-I 833 W/m 6,2 C 8,6 C 11,3 km/h (2 Bft) 96,00 %
10.05.2017 11:02 8,5 C 13,9 C 84 % 1011,9 hPa 0,0 l/m 3,7 km/h (1 Bft) O-NO 67 2 min 0,000 mm 3,8 UV-I 877 W/m 6,0 C 8,5 C 8,0 km/h (2 Bft) 95,12 %
10.05.2017 11:04 8,8 C 13,9 C 85 % 1011,9 hPa 0,0 l/m 3,5 km/h (1 Bft) N-NO 30 2 min 0,000 mm 3,9 UV-I 871 W/m 6,4 C 8,8 C 9,7 km/h (2 Bft) 96,23 %
10.05.2017 11:06 8,8 C 13,9 C 84 % 1011,8 hPa 0,0 l/m 2,4 km/h (1 Bft) N-NO 28 2 min 0,000 mm 3,7 UV-I 853 W/m 6,2 C 8,8 C 4,8 km/h (1 Bft) 93,62 %
10.05.2017 11:08 9,0 C 13,9 C 86 % 1011,8 hPa 0,0 l/m 1,1 km/h (1 Bft) N-NW 342 2 min 0,000 mm 4,0 UV-I 859 W/m 6,8 C 9,0 C 4,8 km/h (1 Bft) 92,00 %
10.05.2017 11:10 9,1 C 13,9 C 86 % 1011,8 hPa 0,0 l/m 1,1 km/h (1 Bft) N-NW 335 2 min 0,000 mm 4,0 UV-I 853 W/m 6,9 C 9,1 C 3,2 km/h (1 Bft) 93,18 %
10.05.2017 11:12 9,1 C 13,9 C 84 % 1011,8 hPa 0,0 l/m 0,7 km/h (0 Bft) N-NO 14 2 min 0,000 mm 4,0 UV-I 865 W/m 6,5 C 9,1 C 4,8 km/h (1 Bft) 94,74 %
10.05.2017 11:14 9,1 C 13,9 C 82 % 1011,7 hPa 0,0 l/m 0,8 km/h (0 Bft) N-NO 14 2 min 0,000 mm 4,0 UV-I 869 W/m 6,2 C 9,1 C 3,2 km/h (1 Bft) 90,00 %
10.05.2017 11:16 9,3 C 13,9 C 84 % 1011,8 hPa 0,0 l/m 3,1 km/h (1 Bft) O 80 2 min 0,000 mm 4,1 UV-I 871 W/m 6,7 C 9,3 C 9,7 km/h (2 Bft) 92,00 %
10.05.2017 11:18 9,6 C 13,9 C 82 % 1011,6 hPa 0,0 l/m 1,3 km/h (1 Bft) N-NO 28 2 min 0,000 mm 4,1 UV-I 876 W/m 6,7 C 9,6 C 4,8 km/h (1 Bft) 94,00 %
10.05.2017 11:20 9,7 C 13,9 C 81 % 1011,6 hPa 0,0 l/m 0,4 km/h (0 Bft) N-NO 28 2 min 0,000 mm 4,2 UV-I 884 W/m 6,6 C 9,7 C 1,6 km/h (1 Bft) 94,00 %
10.05.2017 11:22 9,8 C 13,9 C 80 % 1011,6 hPa 0,0 l/m 5,2 km/h (1 Bft) O-NO 62 2 min 0,000 mm 4,3 UV-I 913 W/m 6,5 C 9,8 C 11,3 km/h (2 Bft) 93,62 %
10.05.2017 11:24 10,0 C 13,9 C 77 % 1011,6 hPa 0,0 l/m 8,4 km/h (2 Bft) O-NO 61 2 min 0,000 mm 4,2 UV-I 865 W/m 6,2 C 8,6 C 14,5 km/h (3 Bft) 97,37 %
10.05.2017 11:26 10,0 C 13,9 C 77 % 1011,6 hPa 0,0 l/m 5,6 km/h (1 Bft) NO 37 2 min 0,000 mm 3,9 UV-I 870 W/m 6,2 C 10,0 C 9,7 km/h (2 Bft) 90,57 %
10.05.2017 11:28 10,1 C 13,9 C 80 % 1011,6 hPa 0,0 l/m 7,0 km/h (2 Bft) NO 36 2 min 0,000 mm 4,2 UV-I 892 W/m 6,8 C 9,7 C 11,3 km/h (2 Bft) 87,18 %
10.05.2017 11:30 10,1 C 13,9 C 79 % 1011,6 hPa 0,0 l/m 5,6 km/h (1 Bft) NO 48 2 min 0,000 mm 4,2 UV-I 874 W/m 6,6 C 10,1 C 8,0 km/h (2 Bft) 92,00 %
10.05.2017 11:32 10,2 C 13,9 C 77 % 1011,6 hPa 0,0 l/m 5,4 km/h (1 Bft) O 79 2 min 0,000 mm 4,2 UV-I 848 W/m 6,4 C 10,2 C 8,0 km/h (2 Bft) 92,68 %
10.05.2017 11:34 9,9 C 13,9 C 74 % 1011,5 hPa 0,0 l/m 3,4 km/h (1 Bft) O-NO 71 2 min 0,000 mm 4,2 UV-I 855 W/m 5,5 C 9,9 C 8,0 km/h (2 Bft) 94,64 %
10.05.2017 11:36 10,0 C 13,9 C 78 % 1011,5 hPa 0,0 l/m 2,0 km/h (1 Bft) NO 56 2 min 0,000 mm 4,2 UV-I 859 W/m 6,3 C 10,0 C 6,4 km/h (2 Bft) 96,00 %
10.05.2017 11:38 10,2 C 13,9 C 80 % 1011,5 hPa 0,0 l/m 7,4 km/h (2 Bft) NO 42 2 min 0,000 mm 4,3 UV-I 875 W/m 6,9 C 9,5 C 12,9 km/h (3 Bft) 87,80 %
10.05.2017 11:40 10,5 C 13,9 C 77 % 1011,5 hPa 0,0 l/m 6,2 km/h (2 Bft) NO 50 2 min 0,000 mm 4,4 UV-I 900 W/m 6,6 C 10,5 C 9,7 km/h (2 Bft) 92,00 %
10.05.2017 11:42 10,6 C 13,9 C 72 % 1011,5 hPa 0,0 l/m 6,8 km/h (2 Bft) O 80 2 min 0,000 mm 4,5 UV-I 900 W/m 5,8 C 10,3 C 9,7 km/h (2 Bft) 97,56 %
10.05.2017 11:44 10,4 C 13,9 C 73 % 1011,5 hPa 0,0 l/m 3,4 km/h (1 Bft) NO 36 2 min 0,000 mm 4,4 UV-I 886 W/m 5,8 C 10,4 C 8,0 km/h (2 Bft) 93,62 %
10.05.2017 11:46 10,4 C 13,9 C 71 % 1011,5 hPa 0,0 l/m 3,1 km/h (1 Bft) NO 56 2 min 0,000 mm 4,4 UV-I 878 W/m 5,4 C 10,4 C 6,4 km/h (2 Bft) 92,86 %
10.05.2017 11:48 10,4 C 13,9 C 77 % 1011,5 hPa 0,0 l/m 1,2 km/h (1 Bft) O-NO 70 2 min 0,000 mm 4,5 UV-I 891 W/m 6,5 C 10,4 C 6,4 km/h (2 Bft) 91,49 %
10.05.2017 11:50 10,6 C 13,9 C 74 % 1011,5 hPa 0,0 l/m 5,9 km/h (2 Bft) O-NO 73 2 min 0,000 mm 4,6 UV-I 919 W/m 6,2 C 10,6 C 8,0 km/h (2 Bft) 95,74 %
10.05.2017 11:52 10,4 C 13,9 C 74 % 1011,4 hPa 0,0 l/m 2,8 km/h (1 Bft) NW 310 2 min 0,000 mm 4,6 UV-I 907 W/m 6,0 C 10,4 C 6,4 km/h (2 Bft) 89,47 %
10.05.2017 11:54 10,4 C 13,9 C 76 % 1011,4 hPa 0,0 l/m 2,9 km/h (1 Bft) O-NO 59 2 min 0,000 mm 4,6 UV-I 894 W/m 6,4 C 10,4 C 6,4 km/h (2 Bft) 95,74 %
10.05.2017 11:56 10,5 C 13,9 C 75 % 1011,4 hPa 0,0 l/m 4,0 km/h (1 Bft) NO 45 2 min 0,000 mm 3,2 UV-I 795 W/m 6,3 C 10,5 C 8,0 km/h (2 Bft) 94,00 %
10.05.2017 11:58 10,2 C 13,9 C 74 % 1011,3 hPa 0,0 l/m 3,9 km/h (1 Bft) NO 40 0 min 0,000 mm 3,1 UV-I 254 W/m 5,8 C 10,2 C 6,4 km/h (2 Bft) 96,00 %
10.05.2017 12:00 10,2 C 13,9 C 74 % 1011,3 hPa 0,0 l/m 5,4 km/h (1 Bft) NO 51 2 min 0,381 mm 3,7 UV-I 568 W/m 5,8 C 10,2 C 8,0 km/h (2 Bft) 92,68 %
10.05.2017 12:02 10,4 C 13,9 C 74 % 1011,2 hPa 0,0 l/m 2,1 km/h (1 Bft) O-NO 73 2 min 0,000 mm 4,5 UV-I 882 W/m 6,0 C 10,4 C 6,4 km/h (2 Bft) 91,49 %
10.05.2017 12:04 10,5 C 13,9 C 70 % 1011,2 hPa 0,0 l/m 3,9 km/h (1 Bft) O-NO 59 2 min 0,000 mm 4,6 UV-I 887 W/m 5,3 C 10,5 C 8,0 km/h (2 Bft) 96,23 %
10.05.2017 12:06 10,7 C 13,9 C 75 % 1011,2 hPa 0,0 l/m 1,1 km/h (1 Bft) NO 55 2 min 0,000 mm 4,7 UV-I 895 W/m 6,5 C 10,7 C 4,8 km/h (1 Bft) 91,67 %
10.05.2017 12:08 11,0 C 13,9 C 74 % 1011,2 hPa 0,0 l/m 7,3 km/h (2 Bft) O 83 2 min 0,000 mm 4,7 UV-I 901 W/m 6,5 C 10,4 C 11,3 km/h (2 Bft) 92,73 %
10.05.2017 12:10 10,8 C 13,9 C 71 % 1011,2 hPa 0,0 l/m 4,3 km/h (1 Bft) O-SO 109 2 min 0,000 mm 4,7 UV-I 894 W/m 5,8 C 10,8 C 9,7 km/h (2 Bft) 95,24 %
10.05.2017 12:12 11,2 C 13,9 C 78 % 1011,2 hPa 0,0 l/m 0,3 km/h (0 Bft) O-SO 109 2 min 0,000 mm 4,8 UV-I 939 W/m 7,5 C 11,2 C 1,6 km/h (1 Bft) 93,62 %
10.05.2017 12:14 11,3 C 13,9 C 72 % 1011,2 hPa 0,0 l/m 2,0 km/h (1 Bft) O 82 2 min 0,000 mm 4,8 UV-I 922 W/m 6,4 C 11,3 C 6,4 km/h (2 Bft) 96,23 %
10.05.2017 12:16 11,3 C 13,9 C 72 % 1011,2 hPa 0,0 l/m 6,4 km/h (2 Bft) SO 126 2 min 0,000 mm 4,8 UV-I 904 W/m 6,4 C 11,3 C 12,9 km/h (3 Bft) 97,87 %
10.05.2017 12:18 11,3 C 13,9 C 73 % 1011,2 hPa 0,0 l/m 7,1 km/h (2 Bft) O-NO 71 2 min 0,000 mm 4,8 UV-I 900 W/m 6,6 C 10,8 C 11,3 km/h (2 Bft) 95,74 %
10.05.2017 12:20 11,4 C 13,9 C 72 % 1011,2 hPa 0,0 l/m 6,2 km/h (2 Bft) O 92 2 min 0,000 mm 4,9 UV-I 910 W/m 6,5 C 11,4 C 9,7 km/h (2 Bft) 92,68 %
10.05.2017 12:22 11,5 C 13,9 C 73 % 1011,2 hPa 0,0 l/m 5,4 km/h (1 Bft) NO 54 2 min 0,000 mm 4,9 UV-I 916 W/m 6,8 C 11,5 C 9,7 km/h (2 Bft) 94,00 %
10.05.2017 12:24 11,3 C 13,9 C 69 % 1011,2 hPa 0,0 l/m 1,6 km/h (1 Bft) O 101 2 min 0,000 mm 4,9 UV-I 905 W/m 5,8 C 11,3 C 4,8 km/h (1 Bft) 97,37 %
10.05.2017 12:26 11,3 C 13,9 C 75 % 1011,1 hPa 0,0 l/m 1,5 km/h (1 Bft) O 88 2 min 0,000 mm 4,8 UV-I 893 W/m 7,0 C 11,3 C 6,4 km/h (2 Bft) 96,23 %
10.05.2017 12:28 11,4 C 13,9 C 70 % 1011,1 hPa 0,0 l/m 7,8 km/h (2 Bft) O-NO 70 2 min 0,000 mm 4,8 UV-I 886 W/m 6,1 C 10,5 C 12,9 km/h (3 Bft) 98,11 %
10.05.2017 12:30 11,6 C 13,9 C 69 % 1011,1 hPa 0,0 l/m 8,3 km/h (2 Bft) O-NO 59 2 min 0,000 mm 4,8 UV-I 887 W/m 6,1 C 10,3 C 16,1 km/h (3 Bft) 95,12 %
10.05.2017 12:32 11,7 C 13,9 C 72 % 1011,1 hPa 0,0 l/m 3,8 km/h (1 Bft) NO 36 2 min 0,000 mm 4,8 UV-I 890 W/m 6,8 C 11,7 C 8,0 km/h (2 Bft) 97,87 %
10.05.2017 12:34 11,6 C 13,9 C 71 % 1011,1 hPa 0,0 l/m 2,9 km/h (1 Bft) NO 36 2 min 0,000 mm 4,9 UV-I 916 W/m 6,5 C 11,6 C 4,8 km/h (1 Bft) 94,00 %
10.05.2017 12:36 11,3 C 13,9 C 67 % 1011,0 hPa 0,0 l/m 2,0 km/h (1 Bft) N 9 2 min 0,000 mm 4,9 UV-I 934 W/m 5,4 C 11,3 C 3,2 km/h (1 Bft) 95,74 %
10.05.2017 12:38 11,1 C 13,9 C 69 % 1011,1 hPa 0,0 l/m 1,3 km/h (1 Bft) N 5 2 min 0,000 mm 5,0 UV-I 910 W/m 5,6 C 11,1 C 3,2 km/h (1 Bft) 96,00 %
10.05.2017 12:40 11,3 C 13,9 C 71 % 1011,0 hPa 0,0 l/m 2,0 km/h (1 Bft) N-NW 344 2 min 0,000 mm 5,0 UV-I 903 W/m 6,2 C 11,3 C 4,8 km/h (1 Bft) 95,74 %
10.05.2017 12:42 11,7 C 13,9 C 78 % 1011,1 hPa 0,0 l/m 2,7 km/h (1 Bft) N-NW 328 2 min 0,000 mm 5,0 UV-I 901 W/m 8,0 C 11,7 C 8,0 km/h (2 Bft) 97,56 %
10.05.2017 12:44 11,8 C 14,4 C 70 % 1011,0 hPa 0,0 l/m 3,3 km/h (1 Bft) W-NW 291 2 min 0,000 mm 4,9 UV-I 892 W/m 6,5 C 11,8 C 6,4 km/h (2 Bft) 95,24 %
10.05.2017 12:46 11,8 C 13,9 C 68 % 1011,0 hPa 0,0 l/m 5,6 km/h (1 Bft) W-NW 298 2 min 0,000 mm 4,9 UV-I 898 W/m 6,1 C 11,8 C 8,0 km/h (2 Bft) 92,73 %
10.05.2017 12:48 11,9 C 14,4 C 69 % 1011,0 hPa 0,0 l/m 3,6 km/h (1 Bft) N-NW 338 2 min 0,000 mm 4,8 UV-I 882 W/m 6,4 C 11,9 C 6,4 km/h (2 Bft) 97,44 %
10.05.2017 12:50 11,9 C 14,4 C 68 % 1011,0 hPa 0,0 l/m 2,2 km/h (1 Bft) NW 304 2 min 0,000 mm 4,8 UV-I 900 W/m 6,2 C 11,9 C 4,8 km/h (1 Bft) 100,00 %
10.05.2017 12:52 11,9 C 14,4 C 65 % 1010,9 hPa 0,0 l/m 2,8 km/h (1 Bft) NO 48 2 min 0,000 mm 4,9 UV-I 894 W/m 5,5 C 11,9 C 6,4 km/h (2 Bft) 97,37 %
10.05.2017 12:54 11,9 C 14,4 C 66 % 1010,8 hPa 0,0 l/m 3,6 km/h (1 Bft) O-SO 109 2 min 0,000 mm 5,1 UV-I 911 W/m 5,8 C 11,9 C 6,4 km/h (2 Bft) 96,08 %
10.05.2017 12:56 12,1 C 14,4 C 69 % 1010,8 hPa 0,0 l/m 3,8 km/h (1 Bft) O-NO 78 2 min 0,000 mm 5,0 UV-I 908 W/m 6,6 C 12,1 C 8,0 km/h (2 Bft) 100,00 %
10.05.2017 12:58 12,1 C 14,4 C 66 % 1010,8 hPa 0,0 l/m 4,0 km/h (1 Bft) O 99 2 min 0,000 mm 3,7 UV-I 900 W/m 5,9 C 12,1 C 8,0 km/h (2 Bft) 95,74 %
10.05.2017 13:00 12,0 C 14,4 C 65 % 1010,8 hPa 0,0 l/m 6,8 km/h (2 Bft) O-NO 68 2 min 0,432 mm 4,0 UV-I 900 W/m 5,6 C 11,7 C 12,9 km/h (3 Bft) 100,00 %
10.05.2017 13:02 12,0 C 14,4 C 63 % 1010,8 hPa 0,0 l/m 4,6 km/h (1 Bft) O-NO 57 2 min 0,000 mm 4,9 UV-I 922 W/m 5,2 C 12,0 C 8,0 km/h (2 Bft) 95,45 %
10.05.2017 13:04 12,1 C 14,4 C 64 % 1010,7 hPa 0,0 l/m 6,9 km/h (2 Bft) O-NO 69 2 min 0,000 mm 4,9 UV-I 917 W/m 5,5 C 11,8 C 11,3 km/h (2 Bft) 95,45 %
10.05.2017 13:06 12,1 C 14,4 C 64 % 1010,7 hPa 0,0 l/m 4,7 km/h (1 Bft) O-NO 57 2 min 0,000 mm 4,9 UV-I 878 W/m 5,5 C 12,1 C 11,3 km/h (2 Bft) 98,11 %
10.05.2017 13:08 12,2 C 14,4 C 68 % 1010,7 hPa 0,0 l/m 4,7 km/h (1 Bft) O 98 2 min 0,000 mm 5,0 UV-I 915 W/m 6,5 C 12,2 C 6,4 km/h (2 Bft) 97,73 %
10.05.2017 13:10 12,1 C 14,4 C 65 % 1010,6 hPa 0,0 l/m 2,3 km/h (1 Bft) NO 56 2 min 0,000 mm 5,0 UV-I 913 W/m 5,7 C 12,1 C 4,8 km/h (1 Bft) 98,00 %
10.05.2017 13:12 12,2 C 14,4 C 68 % 1010,6 hPa 0,0 l/m 1,3 km/h (1 Bft) NW 326 2 min 0,000 mm 5,1 UV-I 912 W/m 6,5 C 12,2 C 3,2 km/h (1 Bft) 96,23 %
10.05.2017 13:14 12,3 C 14,4 C 70 % 1010,6 hPa 0,0 l/m 3,0 km/h (1 Bft) N-NO 14 2 min 0,000 mm 5,1 UV-I 910 W/m 7,0 C 12,3 C 11,3 km/h (2 Bft) 97,37 %
10.05.2017 13:16 12,7 C 14,4 C 68 % 1010,6 hPa 0,0 l/m 4,2 km/h (1 Bft) N-NO 22 2 min 0,000 mm 5,1 UV-I 913 W/m 6,9 C 12,7 C 11,3 km/h (2 Bft) 98,11 %
10.05.2017 13:18 12,6 C 14,4 C 68 % 1010,6 hPa 0,0 l/m 3,9 km/h (1 Bft) N-NO 27 2 min 0,000 mm 5,2 UV-I 918 W/m 6,9 C 12,6 C 8,0 km/h (2 Bft) 95,12 %
10.05.2017 13:20 12,6 C 14,4 C 67 % 1010,6 hPa 0,0 l/m 3,8 km/h (1 Bft) N-NO 21 2 min 0,000 mm 5,2 UV-I 915 W/m 6,6 C 12,6 C 8,0 km/h (2 Bft) 98,11 %
10.05.2017 13:22 12,8 C 14,4 C 68 % 1010,6 hPa 0,0 l/m 1,5 km/h (1 Bft) NW 317 2 min 0,000 mm 5,2 UV-I 914 W/m 7,0 C 12,8 C 4,8 km/h (1 Bft) 95,12 %
10.05.2017 13:24 12,8 C 14,4 C 67 % 1010,5 hPa 0,0 l/m 1,4 km/h (1 Bft) N 9 2 min 0,000 mm 5,2 UV-I 919 W/m 6,8 C 12,8 C 3,2 km/h (1 Bft) 94,74 %
10.05.2017 13:26 12,9 C 14,4 C 67 % 1010,5 hPa 0,0 l/m 2,7 km/h (1 Bft) W-NW 298 2 min 0,000 mm 5,3 UV-I 898 W/m 6,9 C 12,9 C 6,4 km/h (2 Bft) 93,55 %
10.05.2017 13:28 12,9 C 14,4 C 68 % 1010,5 hPa 0,0 l/m 2,9 km/h (1 Bft) W-NW 302 2 min 0,000 mm 5,2 UV-I 912 W/m 7,1 C 12,9 C 9,7 km/h (2 Bft) 95,74 %
10.05.2017 13:30 13,1 C 14,4 C 70 % 1010,4 hPa 0,0 l/m 4,2 km/h (1 Bft) NW 309 2 min 0,000 mm 5,3 UV-I 911 W/m 7,8 C 13,1 C 14,5 km/h (3 Bft) 97,37 %
10.05.2017 13:32 13,0 C 14,4 C 57 % 1010,5 hPa 0,0 l/m 7,8 km/h (2 Bft) N 9 2 min 0,000 mm 5,3 UV-I 944 W/m 4,7 C 12,1 C 12,9 km/h (3 Bft) 96,00 %
10.05.2017 13:34 12,7 C 14,4 C 60 % 1010,4 hPa 0,0 l/m 5,3 km/h (1 Bft) W 279 2 min 0,000 mm 4,8 UV-I 944 W/m 5,1 C 12,7 C 9,7 km/h (2 Bft) 96,23 %
10.05.2017 13:36 12,6 C 14,4 C 60 % 1010,4 hPa 0,0 l/m 4,7 km/h (1 Bft) W-NW 296 2 min 0,000 mm 5,1 UV-I 927 W/m 5,0 C 12,6 C 8,0 km/h (2 Bft) 96,00 %
10.05.2017 13:38 12,7 C 14,4 C 62 % 1010,4 hPa 0,0 l/m 8,1 km/h (2 Bft) W-NW 297 2 min 0,000 mm 5,1 UV-I 911 W/m 5,6 C 11,6 C 14,5 km/h (3 Bft) 97,87 %
10.05.2017 13:40 12,7 C 14,4 C 62 % 1010,4 hPa 0,0 l/m 2,6 km/h (1 Bft) W-NW 302 2 min 0,000 mm 5,0 UV-I 902 W/m 5,6 C 12,7 C 4,8 km/h (1 Bft) 100,00 %
10.05.2017 13:42 12,8 C 14,4 C 61 % 1010,3 hPa 0,0 l/m 4,5 km/h (1 Bft) W 269 2 min 0,000 mm 4,9 UV-I 841 W/m 5,5 C 12,8 C 9,7 km/h (2 Bft) 94,00 %
10.05.2017 13:44 12,8 C 14,4 C 59 % 1010,3 hPa 0,0 l/m 1,4 km/h (1 Bft) W-NW 283 2 min 0,000 mm 5,0 UV-I 884 W/m 5,0 C 12,8 C 4,8 km/h (1 Bft) 100,00 %
10.05.2017 13:46 13,0 C 14,4 C 63 % 1010,3 hPa 0,0 l/m 1,3 km/h (1 Bft) W 259 2 min 0,000 mm 4,8 UV-I 894 W/m 6,1 C 13,0 C 6,4 km/h (2 Bft) 96,00 %
10.05.2017 13:48 13,2 C 14,4 C 62 % 1010,3 hPa 0,0 l/m 4,6 km/h (1 Bft) W-NW 298 2 min 0,000 mm 4,6 UV-I 798 W/m 6,1 C 13,2 C 11,3 km/h (2 Bft) 100,00 %
10.05.2017 13:50 13,2 C 14,4 C 61 % 1010,3 hPa 0,0 l/m 3,7 km/h (1 Bft) NW 313 2 min 0,000 mm 4,6 UV-I 733 W/m 5,8 C 13,2 C 9,7 km/h (2 Bft) 96,00 %
10.05.2017 13:52 13,3 C 14,4 C 61 % 1010,2 hPa 0,0 l/m 4,6 km/h (1 Bft) W-NW 296 2 min 0,000 mm 4,9 UV-I 855 W/m 5,9 C 13,3 C 12,9 km/h (3 Bft) 94,00 %
10.05.2017 13:54 13,4 C 14,4 C 58 % 1010,2 hPa 0,0 l/m 4,8 km/h (1 Bft) W 271 2 min 0,000 mm 5,1 UV-I 917 W/m 5,3 C 13,4 C 12,9 km/h (3 Bft) 89,36 %
10.05.2017 13:56 13,3 C 14,4 C 58 % 1010,2 hPa 0,0 l/m 1,2 km/h (1 Bft) NW 304 2 min 0,000 mm 5,0 UV-I 892 W/m 5,2 C 13,3 C 8,0 km/h (2 Bft) 95,74 %
10.05.2017 13:58 13,3 C 14,4 C 60 % 1010,2 hPa 0,0 l/m 4,4 km/h (1 Bft) NW 310 2 min 0,000 mm 4,9 UV-I 862 W/m 5,7 C 13,3 C 8,0 km/h (2 Bft) 100,00 %
10.05.2017 14:00 13,4 C 14,4 C 61 % 1010,2 hPa 0,0 l/m 1,3 km/h (1 Bft) NW 313 2 min 0,457 mm 4,6 UV-I 776 W/m 6,0 C 13,4 C 4,8 km/h (1 Bft) 100,00 %
10.05.2017 14:02 13,3 C 14,4 C 58 % 1010,2 hPa 0,0 l/m 2,3 km/h (1 Bft) NW 323 2 min 0,000 mm 4,4 UV-I 759 W/m 5,2 C 13,3 C 6,4 km/h (2 Bft) 100,00 %
10.05.2017 14:04 13,3 C 14,4 C 61 % 1010,2 hPa 0,0 l/m 2,4 km/h (1 Bft) N 5 2 min 0,000 mm 4,7 UV-I 845 W/m 5,9 C 13,3 C 6,4 km/h (2 Bft) 95,74 %
10.05.2017 14:06 13,4 C 14,4 C 62 % 1010,2 hPa 0,0 l/m 3,7 km/h (1 Bft) NO 38 2 min 0,000 mm 4,7 UV-I 842 W/m 6,3 C 13,4 C 6,4 km/h (2 Bft) 100,00 %
10.05.2017 14:08 13,7 C 14,4 C 66 % 1010,2 hPa 0,0 l/m 7,4 km/h (2 Bft) NO 45 2 min 0,000 mm 4,9 UV-I 874 W/m 7,5 C 13,1 C 11,3 km/h (2 Bft) 88,68 %
10.05.2017 14:10 13,7 C 14,4 C 63 % 1010,1 hPa 0,0 l/m 4,0 km/h (1 Bft) O-NO 67 2 min 0,000 mm 4,9 UV-I 885 W/m 6,8 C 13,7 C 8,0 km/h (2 Bft) 93,62 %
10.05.2017 14:12 13,8 C 14,4 C 63 % 1010,1 hPa 0,0 l/m 6,4 km/h (2 Bft) O 94 2 min 0,000 mm 4,8 UV-I 889 W/m 6,9 C 13,8 C 9,7 km/h (2 Bft) 97,87 %
10.05.2017 14:14 13,9 C 14,4 C 60 % 1010,2 hPa 0,0 l/m 5,5 km/h (1 Bft) SO 126 2 min 0,000 mm 4,9 UV-I 911 W/m 6,3 C 13,9 C 11,3 km/h (2 Bft) 98,00 %
10.05.2017 14:16 13,6 C 14,4 C 59 % 1010,1 hPa 0,0 l/m 3,7 km/h (1 Bft) N-NO 32 2 min 0,000 mm 4,9 UV-I 911 W/m 5,7 C 13,6 C 6,4 km/h (2 Bft) 98,00 %
10.05.2017 14:18 13,7 C 15,0 C 62 % 1010,1 hPa 0,0 l/m 5,0 km/h (1 Bft) NO 38 2 min 0,000 mm 4,7 UV-I 857 W/m 6,6 C 13,7 C 9,7 km/h (2 Bft) 97,73 %
10.05.2017 14:20 13,7 C 15,0 C 59 % 1010,1 hPa 0,0 l/m 4,3 km/h (1 Bft) O-NO 63 2 min 0,000 mm 4,6 UV-I 826 W/m 5,8 C 13,7 C 9,7 km/h (2 Bft) 100,00 %
10.05.2017 14:22 13,6 C 15,0 C 58 % 1010,1 hPa 0,0 l/m 4,2 km/h (1 Bft) O-SO 113 2 min 0,000 mm 4,6 UV-I 848 W/m 5,5 C 13,6 C 11,3 km/h (2 Bft) 96,00 %
10.05.2017 14:24 13,5 C 15,0 C 62 % 1010,1 hPa 0,0 l/m 2,6 km/h (1 Bft) O-SO 115 2 min 0,000 mm 4,7 UV-I 881 W/m 6,4 C 13,5 C 4,8 km/h (1 Bft) 100,00 %
10.05.2017 14:26 13,4 C 15,0 C 58 % 1010,1 hPa 0,0 l/m 0,9 km/h (0 Bft) O-SO 115 2 min 0,000 mm 4,6 UV-I 860 W/m 5,3 C 13,4 C 1,6 km/h (1 Bft) 100,00 %
10.05.2017 14:28 13,6 C 15,0 C 59 % 1010,1 hPa 0,0 l/m 6,1 km/h (2 Bft) O-NO 74 2 min 0,000 mm 4,7 UV-I 868 W/m 5,7 C 13,6 C 9,7 km/h (2 Bft) 97,56 %
10.05.2017 14:30 13,8 C 15,0 C 65 % 1010,0 hPa 0,0 l/m 6,4 km/h (2 Bft) O-NO 57 2 min 0,000 mm 4,6 UV-I 862 W/m 7,3 C 13,8 C 12,9 km/h (3 Bft) 100,00 %
10.05.2017 14:32 13,9 C 15,0 C 58 % 1010,0 hPa 0,0 l/m 2,5 km/h (1 Bft) NO 40 2 min 0,000 mm 4,5 UV-I 855 W/m 5,8 C 13,9 C 8,0 km/h (2 Bft) 98,39 %
10.05.2017 14:34 13,9 C 15,0 C 63 % 1010,0 hPa 0,0 l/m 8,6 km/h (2 Bft) NO 36 2 min 0,000 mm 4,5 UV-I 847 W/m 7,0 C 12,6 C 14,5 km/h (3 Bft) 97,37 %
10.05.2017 14:36 14,1 C 15,0 C 63 % 1010,0 hPa 0,0 l/m 6,9 km/h (2 Bft) N 9 2 min 0,000 mm 4,4 UV-I 841 W/m 7,2 C 13,8 C 16,1 km/h (3 Bft) 96,43 %
10.05.2017 14:38 14,0 C 15,0 C 64 % 1009,9 hPa 0,0 l/m 5,3 km/h (1 Bft) N 5 2 min 0,000 mm 4,4 UV-I 837 W/m 7,3 C 14,0 C 12,9 km/h (3 Bft) 97,87 %
10.05.2017 14:40 13,9 C 15,0 C 59 % 1009,9 hPa 0,0 l/m 3,4 km/h (1 Bft) N 360 2 min 0,000 mm 4,3 UV-I 832 W/m 6,0 C 13,9 C 6,4 km/h (2 Bft) 100,00 %
10.05.2017 14:42 13,9 C 15,0 C 57 % 1009,9 hPa 0,0 l/m 2,1 km/h (1 Bft) N-NW 337 2 min 0,000 mm 4,3 UV-I 826 W/m 5,5 C 13,9 C 3,2 km/h (1 Bft) 96,00 %
10.05.2017 14:44 13,8 C 15,0 C 61 % 1009,9 hPa 0,0 l/m 2,7 km/h (1 Bft) O-NO 69 2 min 0,000 mm 4,3 UV-I 822 W/m 6,4 C 13,8 C 8,0 km/h (2 Bft) 98,00 %
10.05.2017 14:46 13,8 C 15,0 C 55 % 1009,8 hPa 0,0 l/m 1,5 km/h (1 Bft) O-NO 71 2 min 0,000 mm 4,3 UV-I 818 W/m 4,9 C 13,8 C 6,4 km/h (2 Bft) 95,24 %
10.05.2017 14:48 13,7 C 15,0 C 56 % 1009,8 hPa 0,0 l/m 1,2 km/h (1 Bft) S-SO 147 2 min 0,000 mm 4,3 UV-I 816 W/m 5,1 C 13,7 C 4,8 km/h (1 Bft) 100,00 %
10.05.2017 14:50 13,8 C 15,0 C 59 % 1009,8 hPa 0,0 l/m 8,8 km/h (2 Bft) O 87 2 min 0,000 mm 4,2 UV-I 813 W/m 5,9 C 12,4 C 14,5 km/h (3 Bft) 96,23 %
10.05.2017 14:52 13,9 C 15,0 C 57 % 1009,7 hPa 0,0 l/m 6,4 km/h (2 Bft) NO 56 2 min 0,000 mm 4,1 UV-I 806 W/m 5,5 C 13,9 C 8,0 km/h (2 Bft) 97,87 %
10.05.2017 14:54 14,2 C 15,0 C 56 % 1009,7 hPa 0,0 l/m 3,9 km/h (1 Bft) S-SO 149 2 min 0,000 mm 4,1 UV-I 798 W/m 5,6 C 14,2 C 6,4 km/h (2 Bft) 100,00 %
10.05.2017 14:56 14,3 C 15,0 C 59 % 1009,6 hPa 0,0 l/m 2,9 km/h (1 Bft) O-SO 119 2 min 0,000 mm 4,1 UV-I 793 W/m 6,4 C 14,3 C 6,4 km/h (2 Bft) 96,00 %
10.05.2017 14:58 14,4 C 15,0 C 54 % 1009,6 hPa 0,0 l/m 3,4 km/h (1 Bft) SO 132 2 min 0,000 mm 4,0 UV-I 794 W/m 5,2 C 14,4 C 8,0 km/h (2 Bft) 95,45 %
10.05.2017 15:00 14,3 C 15,0 C 53 % 1009,6 hPa 0,0 l/m 5,5 km/h (1 Bft) O-SO 107 2 min 0,432 mm 4,0 UV-I 796 W/m 4,9 C 14,3 C 9,7 km/h (2 Bft) 100,00 %
10.05.2017 15:02 14,2 C 15,0 C 58 % 1009,5 hPa 0,0 l/m 1,1 km/h (1 Bft) O-SO 107 2 min 0,000 mm 4,0 UV-I 795 W/m 6,1 C 14,2 C 3,2 km/h (1 Bft) 100,00 %
10.05.2017 15:04 14,3 C 15,0 C 55 % 1009,5 hPa 0,0 l/m 1,1 km/h (1 Bft) S-SW 198 2 min 0,000 mm 4,0 UV-I 784 W/m 5,4 C 14,3 C 4,8 km/h (1 Bft) 91,43 %
10.05.2017 15:06 14,4 C 15,0 C 53 % 1009,5 hPa 0,0 l/m 2,6 km/h (1 Bft) S 170 2 min 0,000 mm 3,9 UV-I 776 W/m 4,9 C 14,4 C 6,4 km/h (2 Bft) 98,39 %
10.05.2017 15:08 14,6 C 15,0 C 54 % 1009,5 hPa 0,0 l/m 4,8 km/h (1 Bft) SW 232 2 min 0,000 mm 3,9 UV-I 770 W/m 5,4 C 14,6 C 9,7 km/h (2 Bft) 93,18 %
10.05.2017 15:10 14,6 C 15,0 C 52 % 1009,5 hPa 0,0 l/m 5,6 km/h (1 Bft) S-SW 208 2 min 0,000 mm 3,9 UV-I 750 W/m 4,9 C 14,6 C 8,0 km/h (2 Bft) 94,34 %
10.05.2017 15:12 14,3 C 15,0 C 52 % 1009,4 hPa 0,0 l/m 1,4 km/h (1 Bft) S 186 2 min 0,000 mm 3,8 UV-I 745 W/m 4,6 C 14,3 C 6,4 km/h (2 Bft) 100,00 %
10.05.2017 15:14 14,3 C 15,0 C 54 % 1009,4 hPa 0,0 l/m 2,9 km/h (1 Bft) S-SO 165 2 min 0,000 mm 3,7 UV-I 741 W/m 5,1 C 14,3 C 6,4 km/h (2 Bft) 92,00 %
10.05.2017 15:16 14,3 C 15,0 C 53 % 1009,4 hPa 0,0 l/m 2,6 km/h (1 Bft) W-SW 248 2 min 0,000 mm 3,7 UV-I 729 W/m 4,9 C 14,3 C 9,7 km/h (2 Bft) 98,00 %
10.05.2017 15:18 14,5 C 15,0 C 54 % 1009,4 hPa 0,0 l/m 5,1 km/h (1 Bft) W 267 2 min 0,000 mm 3,7 UV-I 742 W/m 5,3 C 14,5 C 9,7 km/h (2 Bft) 94,87 %
10.05.2017 15:20 14,6 C 15,0 C 53 % 1009,3 hPa 0,0 l/m 4,1 km/h (1 Bft) W-SW 253 2 min 0,000 mm 3,7 UV-I 746 W/m 5,1 C 14,6 C 8,0 km/h (2 Bft) 95,92 %
10.05.2017 15:22 14,6 C 15,0 C 53 % 1009,3 hPa 0,0 l/m 2,0 km/h (1 Bft) W 271 2 min 0,000 mm 3,6 UV-I 749 W/m 5,1 C 14,6 C 6,4 km/h (2 Bft) 92,45 %
10.05.2017 15:24 14,7 C 15,0 C 57 % 1009,3 hPa 0,0 l/m 1,0 km/h (0 Bft) W-SW 238 2 min 0,000 mm 3,6 UV-I 753 W/m 6,3 C 14,7 C 3,2 km/h (1 Bft) 97,87 %
10.05.2017 15:26 14,8 C 15,0 C 54 % 1009,2 hPa 0,0 l/m 1,6 km/h (1 Bft) W-SW 237 2 min 0,000 mm 3,6 UV-I 750 W/m 5,6 C 14,8 C 4,8 km/h (1 Bft) 94,44 %
10.05.2017 15:28 14,9 C 15,0 C 59 % 1009,2 hPa 0,0 l/m 1,8 km/h (1 Bft) SW 220 2 min 0,000 mm 3,6 UV-I 746 W/m 7,0 C 14,9 C 3,2 km/h (1 Bft) 98,00 %
10.05.2017 15:30 14,9 C 15,0 C 54 % 1009,2 hPa 0,0 l/m 0,8 km/h (0 Bft) O-SO 117 2 min 0,000 mm 3,5 UV-I 743 W/m 5,7 C 14,9 C 4,8 km/h (1 Bft) 91,49 %
10.05.2017 15:32 14,8 C 15,0 C 55 % 1009,1 hPa 0,0 l/m 3,9 km/h (1 Bft) O-SO 116 2 min 0,000 mm 3,5 UV-I 736 W/m 5,8 C 14,8 C 6,4 km/h (2 Bft) 96,08 %
10.05.2017 15:34 14,7 C 15,0 C 52 % 1009,1 hPa 0,0 l/m 2,4 km/h (1 Bft) S-SO 156 2 min 0,000 mm 3,4 UV-I 730 W/m 5,0 C 14,7 C 6,4 km/h (2 Bft) 95,74 %
10.05.2017 15:36 14,7 C 15,0 C 56 % 1009,1 hPa 0,0 l/m 1,6 km/h (1 Bft) S 178 2 min 0,000 mm 3,4 UV-I 731 W/m 6,0 C 14,7 C 4,8 km/h (1 Bft) 95,74 %
10.05.2017 15:38 14,7 C 15,0 C 55 % 1009,1 hPa 0,0 l/m 2,2 km/h (1 Bft) SO 133 2 min 0,000 mm 3,4 UV-I 728 W/m 5,8 C 14,7 C 4,8 km/h (1 Bft) 97,56 %
10.05.2017 15:40 14,8 C 15,0 C 55 % 1009,0 hPa 0,0 l/m 3,2 km/h (1 Bft) NO 45 2 min 0,000 mm 3,3 UV-I 721 W/m 5,8 C 14,8 C 8,0 km/h (2 Bft) 98,00 %
10.05.2017 15:42 15,3 C 15,0 C 62 % 1009,0 hPa 0,0 l/m 2,4 km/h (1 Bft) NO 45 2 min 0,000 mm 3,3 UV-I 712 W/m 8,1 C 15,3 C 4,8 km/h (1 Bft) 97,87 %
10.05.2017 15:44 15,4 C 15,0 C 57 % 1009,0 hPa 0,0 l/m 3,1 km/h (1 Bft) N-NO 14 2 min 0,000 mm 3,2 UV-I 714 W/m 6,9 C 15,4 C 4,8 km/h (1 Bft) 100,00 %
10.05.2017 15:46 15,3 C 15,0 C 55 % 1008,9 hPa 0,0 l/m 2,8 km/h (1 Bft) NO 55 2 min 0,000 mm 3,2 UV-I 711 W/m 6,3 C 15,3 C 8,0 km/h (2 Bft) 97,56 %
10.05.2017 15:48 15,3 C 15,0 C 58 % 1008,9 hPa 0,0 l/m 4,5 km/h (1 Bft) O-NO 65 2 min 0,000 mm 3,2 UV-I 705 W/m 7,1 C 15,3 C 8,0 km/h (2 Bft) 100,00 %
10.05.2017 15:50 15,3 C 15,0 C 53 % 1008,9 hPa 0,0 l/m 9,1 km/h (2 Bft) O 86 2 min 0,000 mm 3,1 UV-I 700 W/m 5,8 C 13,9 C 14,5 km/h (3 Bft) 100,00 %
10.05.2017 15:52 15,2 C 15,0 C 55 % 1008,9 hPa 0,0 l/m 6,4 km/h (2 Bft) N-NO 20 2 min 0,000 mm 3,0 UV-I 676 W/m 6,2 C 15,2 C 11,3 km/h (2 Bft) 98,11 %
10.05.2017 15:54 15,3 C 15,0 C 59 % 1008,8 hPa 0,0 l/m 2,6 km/h (1 Bft) N-NO 20 2 min 0,000 mm 3,0 UV-I 663 W/m 7,3 C 15,3 C 6,4 km/h (2 Bft) 100,00 %
10.05.2017 15:56 15,2 C 15,0 C 59 % 1008,8 hPa 0,0 l/m 3,8 km/h (1 Bft) N 9 2 min 0,000 mm 2,9 UV-I 665 W/m 7,2 C 15,2 C 6,4 km/h (2 Bft) 98,11 %
10.05.2017 15:58 15,2 C 15,0 C 58 % 1008,8 hPa 0,0 l/m 1,9 km/h (1 Bft) O-SO 114 2 min 0,000 mm 2,9 UV-I 671 W/m 7,0 C 15,2 C 9,7 km/h (2 Bft) 100,00 %
10.05.2017 16:00 15,2 C 15,0 C 57 % 1008,8 hPa 0,0 l/m 11,8 km/h (2 Bft) SO 127 2 min 0,000 mm 2,9 UV-I 679 W/m 6,7 C 12,6 C 16,1 km/h (3 Bft) 98,08 %
10.05.2017 16:02 15,1 C 15,0 C 57 % 1008,8 hPa 0,0 l/m 7,3 km/h (2 Bft) NO 54 2 min 0,406 mm 2,9 UV-I 677 W/m 6,6 C 14,6 C 11,3 km/h (2 Bft) 100,00 %
10.05.2017 16:04 15,1 C 15,0 C 54 % 1008,7 hPa 0,0 l/m 3,5 km/h (1 Bft) NO 54 2 min 0,000 mm 2,8 UV-I 666 W/m 5,9 C 15,1 C 6,4 km/h (2 Bft) 96,00 %
10.05.2017 16:06 15,2 C 15,0 C 56 % 1008,7 hPa 0,0 l/m 7,0 km/h (2 Bft) O-NO 59 2 min 0,000 mm 2,7 UV-I 657 W/m 6,5 C 14,9 C 12,9 km/h (3 Bft) 97,56 %
10.05.2017 16:08 15,2 C 15,0 C 55 % 1008,7 hPa 0,0 l/m 7,7 km/h (2 Bft) O-NO 65 2 min 0,000 mm 2,7 UV-I 651 W/m 6,2 C 14,5 C 12,9 km/h (3 Bft) 100,00 %
10.05.2017 16:10 15,1 C 15,0 C 53 % 1008,7 hPa 0,0 l/m 2,8 km/h (1 Bft) O-SO 119 2 min 0,000 mm 2,6 UV-I 648 W/m 5,6 C 15,1 C 4,8 km/h (1 Bft) 98,11 %
10.05.2017 16:12 15,1 C 15,0 C 56 % 1008,7 hPa 0,0 l/m 3,0 km/h (1 Bft) N-NO 28 2 min 0,000 mm 2,6 UV-I 641 W/m 6,4 C 15,1 C 6,4 km/h (2 Bft) 100,00 %
10.05.2017 16:14 15,2 C 15,0 C 54 % 1008,6 hPa 0,0 l/m 5,3 km/h (1 Bft) O-NO 59 2 min 0,000 mm 2,6 UV-I 637 W/m 6,0 C 15,2 C 8,0 km/h (2 Bft) 92,31 %
10.05.2017 16:16 15,2 C 15,0 C 54 % 1008,6 hPa 0,0 l/m 2,0 km/h (1 Bft) NO 50 2 min 0,000 mm 2,5 UV-I 632 W/m 6,0 C 15,2 C 4,8 km/h (1 Bft) 98,39 %
10.05.2017 16:18 15,2 C 15,0 C 56 % 1008,7 hPa 0,0 l/m 2,3 km/h (1 Bft) NW 317 2 min 0,000 mm 2,5 UV-I 627 W/m 6,5 C 15,2 C 6,4 km/h (2 Bft) 98,11 %
10.05.2017 16:20 15,2 C 15,0 C 54 % 1008,6 hPa 0,0 l/m 3,8 km/h (1 Bft) W-NW 292 2 min 0,000 mm 2,5 UV-I 622 W/m 6,0 C 15,2 C 6,4 km/h (2 Bft) 100,00 %
10.05.2017 16:22 15,2 C 15,0 C 52 % 1008,6 hPa 0,0 l/m 4,1 km/h (1 Bft) W-NW 284 2 min 0,000 mm 2,4 UV-I 616 W/m 5,4 C 15,2 C 4,8 km/h (1 Bft) 97,87 %
10.05.2017 16:24 14,9 C 15,0 C 53 % 1008,6 hPa 0,0 l/m 4,2 km/h (1 Bft) W-NW 286 2 min 0,000 mm 2,4 UV-I 611 W/m 5,4 C 14,9 C 6,4 km/h (2 Bft) 100,00 %
10.05.2017 16:26 14,9 C 15,0 C 54 % 1008,5 hPa 0,0 l/m 2,9 km/h (1 Bft) W 279 2 min 0,000 mm 2,3 UV-I 605 W/m 5,7 C 14,9 C 4,8 km/h (1 Bft) 100,00 %
10.05.2017 16:28 15,1 C 15,0 C 59 % 1008,5 hPa 0,0 l/m 0,5 km/h (0 Bft) W 273 2 min 0,000 mm 2,3 UV-I 598 W/m 7,1 C 15,1 C 3,2 km/h (1 Bft) 98,00 %
10.05.2017 16:30 15,3 C 15,0 C 59 % 1008,5 hPa 0,0 l/m 1,8 km/h (1 Bft) O 80 2 min 0,000 mm 2,3 UV-I 593 W/m 7,3 C 15,3 C 4,8 km/h (1 Bft) 96,00 %
10.05.2017 16:32 15,4 C 15,0 C 53 % 1008,5 hPa 0,0 l/m 5,2 km/h (1 Bft) O 80 2 min 0,000 mm 2,2 UV-I 587 W/m 5,9 C 15,4 C 8,0 km/h (2 Bft) 93,18 %
10.05.2017 16:34 15,5 C 15,0 C 57 % 1008,4 hPa 0,0 l/m 6,3 km/h (2 Bft) N-NO 29 2 min 0,000 mm 2,2 UV-I 582 W/m 7,0 C 15,5 C 8,0 km/h (2 Bft) 97,87 %
10.05.2017 16:36 15,7 C 15,0 C 58 % 1008,4 hPa 0,0 l/m 6,1 km/h (2 Bft) NO 41 2 min 0,000 mm 2,2 UV-I 577 W/m 7,5 C 15,7 C 9,7 km/h (2 Bft) 94,87 %
10.05.2017 16:38 15,8 C 15,0 C 58 % 1008,3 hPa 0,0 l/m 4,1 km/h (1 Bft) O-NO 63 2 min 0,000 mm 2,1 UV-I 572 W/m 7,6 C 15,8 C 8,0 km/h (2 Bft) 94,55 %
10.05.2017 16:40 15,7 C 15,0 C 53 % 1008,3 hPa 0,0 l/m 4,2 km/h (1 Bft) O-NO 58 2 min 0,000 mm 2,1 UV-I 566 W/m 6,1 C 15,7 C 6,4 km/h (2 Bft) 100,00 %
10.05.2017 16:42 15,6 C 15,0 C 51 % 1008,3 hPa 0,0 l/m 0,8 km/h (0 Bft) O-NO 57 2 min 0,000 mm 2,0 UV-I 562 W/m 5,5 C 15,6 C 3,2 km/h (1 Bft) 100,00 %
10.05.2017 16:44 15,4 C 15,0 C 54 % 1008,2 hPa 0,0 l/m 1,5 km/h (1 Bft) O-NO 57 2 min 0,000 mm 2,0 UV-I 557 W/m 6,1 C 15,4 C 4,8 km/h (1 Bft) 94,00 %
10.05.2017 16:46 15,4 C 15,0 C 53 % 1008,2 hPa 0,0 l/m 3,3 km/h (1 Bft) NO 36 2 min 0,000 mm 2,0 UV-I 552 W/m 5,9 C 15,4 C 6,4 km/h (2 Bft) 97,37 %
10.05.2017 16:48 15,3 C 15,0 C 53 % 1008,2 hPa 0,0 l/m 1,3 km/h (1 Bft) N 9 2 min 0,000 mm 1,9 UV-I 547 W/m 5,8 C 15,3 C 3,2 km/h (1 Bft) 97,87 %
10.05.2017 16:50 15,6 C 15,0 C 55 % 1008,2 hPa 0,0 l/m 3,2 km/h (1 Bft) O-NO 68 2 min 0,000 mm 1,9 UV-I 543 W/m 6,6 C 15,6 C 6,4 km/h (2 Bft) 100,00 %
10.05.2017 16:52 15,4 C 15,0 C 52 % 1008,1 hPa 0,0 l/m 2,8 km/h (1 Bft) NO 50 2 min 0,000 mm 1,9 UV-I 537 W/m 5,6 C 15,4 C 6,4 km/h (2 Bft) 98,11 %
10.05.2017 16:54 15,4 C 15,0 C 55 % 1008,1 hPa 0,0 l/m 8,4 km/h (2 Bft) O-NO 76 2 min 0,000 mm 1,8 UV-I 529 W/m 6,4 C 14,3 C 16,1 km/h (3 Bft) 97,73 %
10.05.2017 16:56 15,7 C 15,0 C 57 % 1008,1 hPa 0,0 l/m 7,6 km/h (2 Bft) O-SO 113 2 min 0,000 mm 1,8 UV-I 522 W/m 7,2 C 15,0 C 11,3 km/h (2 Bft) 95,45 %
10.05.2017 16:58 15,8 C 15,0 C 59 % 1008,1 hPa 0,0 l/m 4,3 km/h (1 Bft) O-NO 57 2 min 0,000 mm 1,7 UV-I 514 W/m 7,8 C 15,8 C 6,4 km/h (2 Bft) 97,87 %
10.05.2017 17:00 15,8 C 15,0 C 55 % 1008,1 hPa 0,0 l/m 4,5 km/h (1 Bft) NO 44 2 min 0,000 mm 1,7 UV-I 508 W/m 6,8 C 15,8 C 8,0 km/h (2 Bft) 94,00 %
10.05.2017 17:02 15,8 C 15,0 C 58 % 1008,0 hPa 0,0 l/m 2,1 km/h (1 Bft) O-NO 75 2 min 0,330 mm 1,7 UV-I 505 W/m 7,6 C 15,8 C 8,0 km/h (2 Bft) 97,37 %
10.05.2017 17:04 16,0 C 15,0 C 54 % 1008,0 hPa 0,0 l/m 5,7 km/h (1 Bft) O-NO 63 2 min 0,000 mm 1,6 UV-I 500 W/m 6,7 C 16,0 C 8,0 km/h (2 Bft) 96,00 %
10.05.2017 17:06 15,9 C 15,0 C 51 % 1008,0 hPa 0,0 l/m 5,0 km/h (1 Bft) O-NO 60 2 min 0,000 mm 1,6 UV-I 494 W/m 5,8 C 15,9 C 8,0 km/h (2 Bft) 98,00 %
10.05.2017 17:08 15,8 C 15,0 C 52 % 1007,9 hPa 0,0 l/m 5,2 km/h (1 Bft) NO 55 2 min 0,000 mm 1,5 UV-I 487 W/m 6,0 C 15,8 C 8,0 km/h (2 Bft) 90,24 %
10.05.2017 17:10 15,8 C 15,0 C 54 % 1007,9 hPa 0,0 l/m 5,9 km/h (2 Bft) NO 43 2 min 0,000 mm 1,5 UV-I 479 W/m 6,5 C 15,8 C 9,7 km/h (2 Bft) 92,45 %
10.05.2017 17:12 15,7 C 15,0 C 54 % 1007,9 hPa 0,0 l/m 6,8 km/h (2 Bft) NO 51 2 min 0,000 mm 1,5 UV-I 475 W/m 6,4 C 15,5 C 9,7 km/h (2 Bft) 87,80 %
10.05.2017 17:14 15,7 C 15,0 C 57 % 1007,8 hPa 0,0 l/m 6,0 km/h (2 Bft) O-NO 59 2 min 0,000 mm 1,4 UV-I 469 W/m 7,2 C 15,7 C 8,0 km/h (2 Bft) 92,00 %
10.05.2017 17:16 15,7 C 15,0 C 55 % 1007,8 hPa 0,0 l/m 3,9 km/h (1 Bft) NO 51 2 min 0,000 mm 1,4 UV-I 465 W/m 6,7 C 15,7 C 8,0 km/h (2 Bft) 96,23 %
10.05.2017 17:18 15,7 C 15,0 C 58 % 1007,8 hPa 0,0 l/m 2,4 km/h (1 Bft) N-NO 19 2 min 0,000 mm 1,4 UV-I 461 W/m 7,5 C 15,7 C 8,0 km/h (2 Bft) 94,87 %
10.05.2017 17:20 15,7 C 15,0 C 57 % 1007,7 hPa 0,0 l/m 2,3 km/h (1 Bft) N-NO 22 2 min 0,000 mm 1,3 UV-I 455 W/m 7,2 C 15,7 C 8,0 km/h (2 Bft) 94,23 %
10.05.2017 17:22 15,7 C 15,0 C 56 % 1007,7 hPa 0,0 l/m 3,4 km/h (1 Bft) O-NO 63 2 min 0,000 mm 1,3 UV-I 451 W/m 6,9 C 15,7 C 8,0 km/h (2 Bft) 92,16 %
10.05.2017 17:24 15,7 C 15,0 C 55 % 1007,7 hPa 0,0 l/m 8,0 km/h (2 Bft) O-NO 57 2 min 0,000 mm 1,3 UV-I 444 W/m 6,7 C 14,8 C 12,9 km/h (3 Bft) 97,37 %
10.05.2017 17:26 15,7 C 15,0 C 55 % 1007,7 hPa 0,0 l/m 4,7 km/h (1 Bft) O 93 2 min 0,000 mm 1,3 UV-I 437 W/m 6,7 C 15,7 C 8,0 km/h (2 Bft) 95,45 %
10.05.2017 17:28 15,6 C 15,0 C 53 % 1007,6 hPa 0,0 l/m 7,4 km/h (2 Bft) O-SO 107 2 min 0,000 mm 1,2 UV-I 432 W/m 6,1 C 15,1 C 12,9 km/h (3 Bft) 95,74 %
10.05.2017 17:30 15,5 C 15,0 C 55 % 1007,7 hPa 0,0 l/m 4,3 km/h (1 Bft) O-NO 64 2 min 0,000 mm 1,2 UV-I 425 W/m 6,5 C 15,5 C 8,0 km/h (2 Bft) 92,86 %
10.05.2017 17:32 15,6 C 15,0 C 55 % 1007,6 hPa 0,0 l/m 6,5 km/h (2 Bft) O-NO 75 2 min 0,000 mm 1,2 UV-I 418 W/m 6,6 C 15,6 C 11,3 km/h (2 Bft) 100,00 %
10.05.2017 17:34 15,6 C 15,0 C 57 % 1007,5 hPa 0,0 l/m 6,0 km/h (2 Bft) O 92 2 min 0,000 mm 1,1 UV-I 411 W/m 7,1 C 15,6 C 11,3 km/h (2 Bft) 92,45 %
10.05.2017 17:36 15,8 C 15,0 C 59 % 1007,5 hPa 0,0 l/m 9,2 km/h (2 Bft) NO 37 2 min 0,000 mm 1,1 UV-I 404 W/m 7,8 C 14,4 C 14,5 km/h (3 Bft) 94,00 %
10.05.2017 17:38 15,9 C 15,0 C 55 % 1007,5 hPa 0,0 l/m 8,4 km/h (2 Bft) O 83 2 min 0,000 mm 1,1 UV-I 399 W/m 6,9 C 14,8 C 12,9 km/h (3 Bft) 97,37 %
10.05.2017 17:40 15,8 C 15,0 C 55 % 1007,5 hPa 0,0 l/m 6,3 km/h (2 Bft) O 97 2 min 0,000 mm 1,0 UV-I 395 W/m 6,8 C 15,8 C 12,9 km/h (3 Bft) 97,37 %
10.05.2017 17:42 15,7 C 15,0 C 53 % 1007,5 hPa 0,0 l/m 8,3 km/h (2 Bft) O-SO 117 2 min 0,000 mm 1,0 UV-I 390 W/m 6,1 C 14,7 C 12,9 km/h (3 Bft) 96,23 %
10.05.2017 17:44 15,6 C 15,0 C 55 % 1007,5 hPa 0,0 l/m 6,3 km/h (2 Bft) O 82 2 min 0,000 mm 1,0 UV-I 384 W/m 6,6 C 15,6 C 11,3 km/h (2 Bft) 96,61 %
10.05.2017 17:46 15,6 C 15,0 C 55 % 1007,5 hPa 0,0 l/m 7,4 km/h (2 Bft) O-NO 74 2 min 0,000 mm 1,0 UV-I 379 W/m 6,6 C 15,1 C 12,9 km/h (3 Bft) 100,00 %
10.05.2017 17:48 15,6 C 15,0 C 56 % 1007,5 hPa 0,0 l/m 6,6 km/h (2 Bft) O 80 2 min 0,000 mm 0,9 UV-I 373 W/m 6,9 C 15,5 C 11,3 km/h (2 Bft) 98,11 %
10.05.2017 17:50 15,4 C 15,0 C 54 % 1007,5 hPa 0,0 l/m 3,6 km/h (1 Bft) O 92 2 min 0,000 mm 0,9 UV-I 367 W/m 6,1 C 15,4 C 4,8 km/h (1 Bft) 95,74 %
10.05.2017 17:52 15,5 C 16,1 C 54 % 1007,5 hPa 0,0 l/m 5,5 km/h (1 Bft) NO 54 2 min 0,000 mm 0,9 UV-I 362 W/m 6,2 C 15,5 C 12,9 km/h (3 Bft) 97,22 %
10.05.2017 17:54 15,5 C 16,1 C 53 % 1007,5 hPa 0,0 l/m 8,2 km/h (2 Bft) O-NO 63 2 min 0,000 mm 0,8 UV-I 356 W/m 6,0 C 14,5 C 12,9 km/h (3 Bft) 98,18 %
10.05.2017 17:56 15,5 C 16,1 C 55 % 1007,5 hPa 0,0 l/m 8,7 km/h (2 Bft) O-NO 71 2 min 0,000 mm 0,8 UV-I 350 W/m 6,5 C 14,3 C 12,9 km/h (3 Bft) 100,00 %
10.05.2017 17:58 15,6 C 16,1 C 56 % 1007,5 hPa 0,0 l/m 5,5 km/h (1 Bft) O 86 2 min 0,000 mm 0,8 UV-I 344 W/m 6,9 C 15,6 C 9,7 km/h (2 Bft) 97,62 %
10.05.2017 18:00 15,5 C 16,1 C 54 % 1007,5 hPa 0,0 l/m 4,6 km/h (1 Bft) O-NO 78 2 min 0,000 mm 0,8 UV-I 338 W/m 6,2 C 15,5 C 6,4 km/h (2 Bft) 98,00 %
10.05.2017 18:02 15,4 C 16,1 C 54 % 1007,5 hPa 0,0 l/m 5,2 km/h (1 Bft) O-NO 57 2 min 0,254 mm 0,7 UV-I 331 W/m 6,1 C 15,4 C 8,0 km/h (2 Bft) 100,00 %
10.05.2017 18:04 15,4 C 16,1 C 55 % 1007,4 hPa 0,0 l/m 6,3 km/h (2 Bft) NO 53 2 min 0,000 mm 0,7 UV-I 324 W/m 6,4 C 15,4 C 9,7 km/h (2 Bft) 98,08 %
10.05.2017 18:06 15,6 C 16,1 C 53 % 1007,5 hPa 0,0 l/m 5,9 km/h (2 Bft) NO 54 2 min 0,000 mm 0,7 UV-I 318 W/m 6,1 C 15,6 C 8,0 km/h (2 Bft) 100,00 %
10.05.2017 18:08 15,6 C 16,1 C 53 % 1007,5 hPa 0,0 l/m 5,7 km/h (1 Bft) O 81 2 min 0,000 mm 0,7 UV-I 311 W/m 6,1 C 15,6 C 11,3 km/h (2 Bft) 100,00 %
10.05.2017 18:10 15,6 C 16,1 C 57 % 1007,3 hPa 0,0 l/m 4,5 km/h (1 Bft) O 79 2 min 0,000 mm 0,7 UV-I 306 W/m 7,1 C 15,6 C 11,3 km/h (2 Bft) 100,00 %
10.05.2017 18:12 15,7 C 16,1 C 56 % 1007,3 hPa 0,0 l/m 6,2 km/h (2 Bft) O-NO 73 2 min 0,000 mm 0,6 UV-I 299 W/m 6,9 C 15,7 C 11,3 km/h (2 Bft) 100,00 %
10.05.2017 18:14 15,5 C 16,1 C 54 % 1007,3 hPa 0,0 l/m 2,6 km/h (1 Bft) O-SO 103 2 min 0,000 mm 0,6 UV-I 294 W/m 6,2 C 15,5 C 4,8 km/h (1 Bft) 98,00 %
10.05.2017 18:16 15,4 C 16,1 C 54 % 1007,3 hPa 0,0 l/m 1,3 km/h (1 Bft) O-SO 103 2 min 0,000 mm 0,6 UV-I 287 W/m 6,1 C 15,4 C 3,2 km/h (1 Bft) 97,87 %
10.05.2017 18:18 15,5 C 16,1 C 57 % 1007,2 hPa 0,0 l/m 3,5 km/h (1 Bft) O-NO 69 2 min 0,000 mm 0,6 UV-I 281 W/m 7,0 C 15,5 C 6,4 km/h (2 Bft) 100,00 %
10.05.2017 18:20 15,6 C 16,1 C 55 % 1007,2 hPa 0,0 l/m 7,1 km/h (2 Bft) NO 40 2 min 0,000 mm 0,6 UV-I 276 W/m 6,6 C 15,2 C 9,7 km/h (2 Bft) 100,00 %
10.05.2017 18:22 15,5 C 16,1 C 55 % 1007,2 hPa 0,0 l/m 5,5 km/h (1 Bft) NO 37 2 min 0,000 mm 0,5 UV-I 269 W/m 6,5 C 15,5 C 9,7 km/h (2 Bft) 100,00 %
10.05.2017 18:24 15,6 C 16,1 C 54 % 1007,2 hPa 0,0 l/m 7,7 km/h (2 Bft) O-NO 69 2 min 0,000 mm 0,5 UV-I 264 W/m 6,3 C 14,9 C 9,7 km/h (2 Bft) 95,12 %
10.05.2017 18:26 15,6 C 16,1 C 53 % 1007,1 hPa 0,0 l/m 6,9 km/h (2 Bft) O-NO 77 2 min 0,000 mm 0,5 UV-I 258 W/m 6,1 C 15,3 C 9,7 km/h (2 Bft) 98,00 %
10.05.2017 18:28 15,6 C 16,1 C 56 % 1007,1 hPa 0,0 l/m 5,3 km/h (1 Bft) NO 55 2 min 0,000 mm 0,5 UV-I 252 W/m 6,9 C 15,6 C 8,0 km/h (2 Bft) 100,00 %
10.05.2017 18:30 15,5 C 16,1 C 55 % 1007,1 hPa 0,0 l/m 5,1 km/h (1 Bft) O-NO 65 2 min 0,000 mm 0,5 UV-I 245 W/m 6,5 C 15,5 C 8,0 km/h (2 Bft) 96,00 %
10.05.2017 18:32 15,4 C 16,1 C 55 % 1007,0 hPa 0,0 l/m 9,5 km/h (2 Bft) O-NO 73 2 min 0,000 mm 0,1 UV-I 240 W/m 6,4 C 13,8 C 16,1 km/h (3 Bft) 96,00 %
10.05.2017 18:34 15,4 C 16,1 C 56 % 1007,0 hPa 0,0 l/m 5,9 km/h (2 Bft) NO 52 2 min 0,000 mm 0,0 UV-I 235 W/m 6,7 C 15,4 C 11,3 km/h (2 Bft) 96,00 %
10.05.2017 18:36 15,3 C 16,1 C 56 % 1007,0 hPa 0,0 l/m 7,3 km/h (2 Bft) NO 51 2 min 0,000 mm 0,0 UV-I 230 W/m 6,6 C 14,8 C 9,7 km/h (2 Bft) 94,87 %
10.05.2017 18:38 15,3 C 16,1 C 55 % 1007,0 hPa 0,0 l/m 7,5 km/h (2 Bft) O-NO 69 2 min 0,000 mm 0,0 UV-I 224 W/m 6,3 C 14,7 C 9,7 km/h (2 Bft) 98,18 %
10.05.2017 18:40 15,3 C 16,1 C 55 % 1006,9 hPa 0,0 l/m 6,7 km/h (2 Bft) NO 47 2 min 0,000 mm 0,0 UV-I 218 W/m 6,3 C 15,1 C 11,3 km/h (2 Bft) 94,87 %
10.05.2017 18:42 15,3 C 16,1 C 55 % 1006,9 hPa 0,0 l/m 6,3 km/h (2 Bft) O-NO 65 2 min 0,000 mm 0,0 UV-I 211 W/m 6,3 C 15,3 C 12,9 km/h (3 Bft) 100,00 %
10.05.2017 18:44 15,2 C 16,1 C 54 % 1006,9 hPa 0,0 l/m 8,5 km/h (2 Bft) O-NO 69 2 min 0,000 mm 0,0 UV-I 206 W/m 6,0 C 14,1 C 12,9 km/h (3 Bft) 100,00 %
10.05.2017 18:46 15,2 C 16,1 C 54 % 1006,8 hPa 0,0 l/m 7,8 km/h (2 Bft) O-NO 67 2 min 0,000 mm 0,0 UV-I 200 W/m 6,0 C 14,4 C 12,9 km/h (3 Bft) 100,00 %
10.05.2017 18:48 15,2 C 15,6 C 56 % 1006,9 hPa 0,0 l/m 6,2 km/h (2 Bft) O-NO 67 2 min 0,000 mm 0,0 UV-I 195 W/m 6,5 C 15,2 C 8,0 km/h (2 Bft) 97,87 %
10.05.2017 18:50 15,2 C 15,6 C 58 % 1006,9 hPa 0,0 l/m 6,2 km/h (2 Bft) O-NO 60 2 min 0,000 mm 0,0 UV-I 190 W/m 7,0 C 15,2 C 12,9 km/h (3 Bft) 100,00 %
10.05.2017 18:52 15,3 C 16,1 C 57 % 1006,8 hPa 0,0 l/m 7,5 km/h (2 Bft) O-NO 61 2 min 0,000 mm 0,0 UV-I 184 W/m 6,8 C 14,7 C 12,9 km/h (3 Bft) 100,00 %
10.05.2017 18:54 15,2 C 15,6 C 54 % 1006,8 hPa 0,0 l/m 6,4 km/h (2 Bft) NO 46 2 min 0,000 mm 0,0 UV-I 178 W/m 6,0 C 15,2 C 9,7 km/h (2 Bft) 96,00 %
10.05.2017 18:56 15,2 C 15,6 C 57 % 1006,8 hPa 0,0 l/m 5,4 km/h (1 Bft) NO 53 2 min 0,000 mm 0,0 UV-I 173 W/m 6,7 C 15,2 C 8,0 km/h (2 Bft) 97,14 %
10.05.2017 18:58 15,2 C 15,6 C 56 % 1006,8 hPa 0,0 l/m 8,3 km/h (2 Bft) O-NO 69 2 min 0,000 mm 0,0 UV-I 169 W/m 6,5 C 14,2 C 12,9 km/h (3 Bft) 100,00 %
10.05.2017 19:00 15,1 C 15,6 C 58 % 1006,7 hPa 0,0 l/m 7,8 km/h (2 Bft) O-NO 69 2 min 0,178 mm 0,0 UV-I 163 W/m 6,9 C 14,3 C 12,9 km/h (3 Bft) 100,00 %
10.05.2017 19:02 15,1 C 15,6 C 57 % 1006,7 hPa 0,0 l/m 7,1 km/h (2 Bft) O-NO 59 2 min 0,000 mm 0,0 UV-I 158 W/m 6,6 C 14,7 C 9,7 km/h (2 Bft) 100,00 %
10.05.2017 19:04 15,0 C 15,6 C 58 % 1006,7 hPa 0,0 l/m 8,0 km/h (2 Bft) O-NO 73 2 min 0,000 mm 0,0 UV-I 153 W/m 6,8 C 14,1 C 12,9 km/h (3 Bft) 97,73 %
10.05.2017 19:06 14,9 C 15,6 C 57 % 1006,7 hPa 0,0 l/m 7,0 km/h (2 Bft) O-NO 74 2 min 0,000 mm 0,0 UV-I 148 W/m 6,5 C 14,6 C 11,3 km/h (2 Bft) 100,00 %
10.05.2017 19:08 14,9 C 15,6 C 58 % 1006,8 hPa 0,0 l/m 4,7 km/h (1 Bft) O-NO 68 2 min 0,000 mm 0,0 UV-I 142 W/m 6,7 C 14,9 C 8,0 km/h (2 Bft) 100,00 %
10.05.2017 19:10 14,9 C 15,6 C 59 % 1006,7 hPa 0,0 l/m 8,4 km/h (2 Bft) O-NO 74 2 min 0,000 mm 0,0 UV-I 138 W/m 7,0 C 13,8 C 11,3 km/h (2 Bft) 97,78 %
10.05.2017 19:13 14,9 C 15,6 C 59 % 1006,7 hPa 0,0 l/m 6,4 km/h (2 Bft) O 82 3 min 0,000 mm 0,0 UV-I 132 W/m 7,0 C 14,9 C 9,7 km/h (2 Bft) 94,12 %
10.05.2017 19:14 14,9 C 15,6 C 58 % 1006,7 hPa 0,0 l/m 5,3 km/h (1 Bft) O 84 1 min 0,000 mm 0,0 UV-I 127 W/m 6,7 C 14,9 C 8,0 km/h (2 Bft) 100,00 %
10.05.2017 19:16 14,8 C 15,6 C 57 % 1006,7 hPa 0,0 l/m 7,6 km/h (2 Bft) O 82 2 min 0,000 mm 0,0 UV-I 123 W/m 6,4 C 14,1 C 12,9 km/h (3 Bft) 96,23 %
10.05.2017 19:18 14,8 C 15,6 C 57 % 1006,7 hPa 0,0 l/m 4,9 km/h (1 Bft) O-NO 75 2 min 0,000 mm 0,0 UV-I 120 W/m 6,4 C 14,8 C 9,7 km/h (2 Bft) 95,74 %
10.05.2017 19:20 14,8 C 15,6 C 58 % 1006,6 hPa 0,0 l/m 7,5 km/h (2 Bft) O 88 2 min 0,000 mm 0,0 UV-I 114 W/m 6,6 C 14,2 C 9,7 km/h (2 Bft) 92,00 %
10.05.2017 19:22 14,7 C 15,6 C 58 % 1006,6 hPa 0,0 l/m 5,6 km/h (1 Bft) O-NO 78 2 min 0,000 mm 0,0 UV-I 109 W/m 6,5 C 14,7 C 11,3 km/h (2 Bft) 97,56 %
10.05.2017 19:24 14,7 C 15,6 C 56 % 1006,6 hPa 0,0 l/m 6,7 km/h (2 Bft) O-NO 73 2 min 0,000 mm 0,0 UV-I 105 W/m 6,0 C 14,5 C 11,3 km/h (2 Bft) 94,00 %
10.05.2017 19:26 14,6 C 15,6 C 57 % 1006,6 hPa 0,0 l/m 5,6 km/h (1 Bft) O 80 2 min 0,000 mm 0,0 UV-I 102 W/m 6,2 C 14,6 C 12,9 km/h (3 Bft) 95,12 %
10.05.2017 19:28 14,6 C 15,6 C 58 % 1006,6 hPa 0,0 l/m 9,7 km/h (2 Bft) O-NO 76 2 min 0,000 mm 0,0 UV-I 97 W/m 6,4 C 12,8 C 14,5 km/h (3 Bft) 95,74 %
10.05.2017 19:30 14,5 C 15,6 C 60 % 1006,6 hPa 0,0 l/m 6,6 km/h (2 Bft) O 80 2 min 0,000 mm 0,0 UV-I 93 W/m 6,8 C 14,4 C 11,3 km/h (2 Bft) 94,00 %
10.05.2017 19:32 14,4 C 15,6 C 61 % 1006,6 hPa 0,0 l/m 6,0 km/h (2 Bft) O-NO 74 2 min 0,000 mm 0,0 UV-I 89 W/m 7,0 C 14,4 C 9,7 km/h (2 Bft) 92,45 %
10.05.2017 19:34 14,4 C 15,6 C 62 % 1006,6 hPa 0,0 l/m 6,0 km/h (2 Bft) O-NO 61 2 min 0,000 mm 0,0 UV-I 84 W/m 7,2 C 14,4 C 8,0 km/h (2 Bft) 97,56 %
10.05.2017 19:36 14,3 C 15,6 C 63 % 1006,6 hPa 0,0 l/m 5,1 km/h (1 Bft) O-NO 70 2 min 0,000 mm 0,0 UV-I 82 W/m 7,4 C 14,3 C 8,0 km/h (2 Bft) 98,00 %
10.05.2017 19:38 14,3 C 15,6 C 63 % 1006,6 hPa 0,0 l/m 3,1 km/h (1 Bft) O-NO 67 2 min 0,000 mm 0,0 UV-I 77 W/m 7,4 C 14,3 C 4,8 km/h (1 Bft) 91,49 %
10.05.2017 19:40 14,2 C 15,6 C 62 % 1006,6 hPa 0,0 l/m 5,0 km/h (1 Bft) O-NO 75 2 min 0,000 mm 0,0 UV-I 72 W/m 7,0 C 14,2 C 6,4 km/h (2 Bft) 94,29 %
10.05.2017 19:42 14,2 C 15,6 C 61 % 1006,5 hPa 0,0 l/m 4,9 km/h (1 Bft) O-NO 74 2 min 0,000 mm 0,0 UV-I 68 W/m 6,8 C 14,2 C 6,4 km/h (2 Bft) 96,23 %
10.05.2017 19:44 14,2 C 15,6 C 61 % 1006,5 hPa 0,0 l/m 4,1 km/h (1 Bft) O-NO 75 2 min 0,000 mm 0,0 UV-I 64 W/m 6,8 C 14,2 C 6,4 km/h (2 Bft) 96,00 %
10.05.2017 19:46 14,1 C 15,6 C 61 % 1006,5 hPa 0,0 l/m 4,1 km/h (1 Bft) O 88 2 min 0,000 mm 0,0 UV-I 60 W/m 6,7 C 14,1 C 6,4 km/h (2 Bft) 97,87 %
10.05.2017 19:48 14,1 C 15,6 C 61 % 1006,5 hPa 0,0 l/m 5,0 km/h (1 Bft) O-NO 76 2 min 0,000 mm 0,0 UV-I 56 W/m 6,7 C 14,1 C 8,0 km/h (2 Bft) 91,49 %
10.05.2017 19:50 14,0 C 15,6 C 61 % 1006,5 hPa 0,0 l/m 4,8 km/h (1 Bft) O 80 2 min 0,000 mm 0,0 UV-I 53 W/m 6,6 C 14,0 C 6,4 km/h (2 Bft) 98,11 %
10.05.2017 19:52 13,9 C 15,6 C 62 % 1006,5 hPa 0,0 l/m 5,6 km/h (1 Bft) O-NO 62 2 min 0,000 mm 0,0 UV-I 49 W/m 6,7 C 13,9 C 8,0 km/h (2 Bft) 95,12 %
10.05.2017 19:54 13,8 C 15,6 C 61 % 1006,5 hPa 0,0 l/m 5,3 km/h (1 Bft) O 80 2 min 0,000 mm 0,0 UV-I 45 W/m 6,4 C 13,8 C 6,4 km/h (2 Bft) 97,87 %
10.05.2017 19:56 13,8 C 15,6 C 62 % 1006,6 hPa 0,0 l/m 5,6 km/h (1 Bft) O 80 2 min 0,000 mm 0,0 UV-I 43 W/m 6,6 C 13,8 C 8,0 km/h (2 Bft) 92,86 %
10.05.2017 19:58 13,7 C 15,6 C 63 % 1006,6 hPa 0,0 l/m 4,5 km/h (1 Bft) O-NO 71 2 min 0,000 mm 0,0 UV-I 39 W/m 6,8 C 13,7 C 6,4 km/h (2 Bft) 98,00 %
10.05.2017 20:00 13,5 C 15,6 C 64 % 1006,5 hPa 0,0 l/m 2,0 km/h (1 Bft) O-NO 71 2 min 0,000 mm 0,0 UV-I 36 W/m 6,8 C 13,5 C 3,2 km/h (1 Bft) 92,45 %
10.05.2017 20:02 13,3 C 15,6 C 63 % 1006,5 hPa 0,0 l/m 3,1 km/h (1 Bft) O-NO 71 2 min 0,076 mm 0,0 UV-I 33 W/m 6,4 C 13,3 C 6,4 km/h (2 Bft) 94,74 %
10.05.2017 20:04 13,3 C 15,6 C 63 % 1006,5 hPa 0,0 l/m 3,6 km/h (1 Bft) O-NO 67 2 min 0,000 mm 0,0 UV-I 31 W/m 6,4 C 13,3 C 6,4 km/h (2 Bft) 100,00 %
10.05.2017 20:06 13,2 C 15,6 C 64 % 1006,5 hPa 0,0 l/m 3,0 km/h (1 Bft) O-NO 59 2 min 0,000 mm 0,0 UV-I 29 W/m 6,5 C 13,2 C 4,8 km/h (1 Bft) 98,11 %
10.05.2017 20:10 13,1 C 15,6 C 65 % 1006,5 hPa 0,0 l/m 1,6 km/h (1 Bft) O-NO 67 4 min 0,000 mm 0,0 UV-I 26 W/m 6,7 C 13,1 C 4,8 km/h (1 Bft) 94,74 %
10.05.2017 20:12 13,0 C 15,6 C 65 % 1006,5 hPa 0,0 l/m 1,2 km/h (1 Bft) O-NO 59 2 min 0,000 mm 0,0 UV-I 19 W/m 6,6 C 13,0 C 3,2 km/h (1 Bft) 97,14 %
10.05.2017 20:14 12,9 C 15,6 C 66 % 1006,5 hPa 0,0 l/m 1,8 km/h (1 Bft) O-NO 59 2 min 0,000 mm 0,0 UV-I 18 W/m 6,7 C 12,9 C 3,2 km/h (1 Bft) 100,00 %
10.05.2017 20:16 12,8 C 15,6 C 66 % 1006,5 hPa 0,0 l/m 1,5 km/h (1 Bft) O-NO 59 2 min 0,000 mm 0,0 UV-I 17 W/m 6,6 C 12,8 C 3,2 km/h (1 Bft) 100,00 %
10.05.2017 20:18 12,8 C 15,6 C 66 % 1006,5 hPa 0,0 l/m 2,0 km/h (1 Bft) O-NO 59 2 min 0,000 mm 0,0 UV-I 14 W/m 6,6 C 12,8 C 3,2 km/h (1 Bft) 91,49 %
10.05.2017 20:20 12,7 C 15,6 C 67 % 1006,5 hPa 0,0 l/m 2,0 km/h (1 Bft) O-NO 59 0 min 0,000 mm 0,0 UV-I 13 W/m 6,7 C 12,7 C 3,2 km/h (1 Bft) 95,74 %
10.05.2017 20:22 12,6 C 15,6 C 68 % 1006,4 hPa 0,0 l/m 1,7 km/h (1 Bft) O-NO 59 0 min 0,000 mm 0,0 UV-I 12 W/m 6,9 C 12,6 C 3,2 km/h (1 Bft) 100,00 %
10.05.2017 20:24 12,5 C 15,6 C 69 % 1006,5 hPa 0,0 l/m 1,3 km/h (1 Bft) O-NO 59 0 min 0,000 mm 0,0 UV-I 12 W/m 7,0 C 12,5 C 3,2 km/h (1 Bft) 96,00 %
10.05.2017 20:26 12,3 C 15,6 C 69 % 1006,5 hPa 0,0 l/m 1,9 km/h (1 Bft) O-NO 59 0 min 0,000 mm 0,0 UV-I 11 W/m 6,8 C 12,3 C 3,2 km/h (1 Bft) 88,57 %
10.05.2017 20:28 12,2 C 15,6 C 70 % 1006,5 hPa 0,0 l/m 2,1 km/h (1 Bft) O-NO 59 0 min 0,000 mm 0,0 UV-I 10 W/m 6,9 C 12,2 C 3,2 km/h (1 Bft) 98,21 %
10.05.2017 20:30 12,1 C 15,6 C 70 % 1006,5 hPa 0,0 l/m 1,1 km/h (1 Bft) O-NO 59 0 min 0,000 mm 0,0 UV-I 9 W/m 6,8 C 12,1 C 1,6 km/h (1 Bft) 95,45 %
10.05.2017 20:32 12,0 C 15,6 C 70 % 1006,5 hPa 0,0 l/m 0,6 km/h (0 Bft) O-NO 59 0 min 0,000 mm 0,0 UV-I 9 W/m 6,7 C 12,0 C 3,2 km/h (1 Bft) 94,34 %
10.05.2017 20:34 11,9 C 15,6 C 70 % 1006,5 hPa 0,0 l/m 0,3 km/h (0 Bft) O-NO 59 0 min 0,000 mm 0,0 UV-I 7 W/m 6,6 C 11,9 C 1,6 km/h (1 Bft) 94,00 %
10.05.2017 20:36 11,8 C 15,6 C 71 % 1006,5 hPa 0,0 l/m 0,1 km/h (0 Bft) O-NO 59 0 min 0,000 mm 0,0 UV-I 7 W/m 6,7 C 11,8 C 1,6 km/h (1 Bft) 100,00 %
10.05.2017 20:38 11,7 C 15,6 C 72 % 1006,5 hPa 0,0 l/m 0,0 km/h (0 Bft) O-NO 59 0 min 0,000 mm 0,0 UV-I 7 W/m 6,8 C 11,7 C 0,0 km/h (0 Bft) 93,62 %
10.05.2017 20:40 11,6 C 15,6 C 74 % 1006,5 hPa 0,0 l/m 0,0 km/h (0 Bft) O-NO 59 0 min 0,000 mm 0,0 UV-I 5 W/m 7,1 C 11,6 C 0,0 km/h (0 Bft) 93,62 %
10.05.2017 20:42 11,3 C 15,6 C 76 % 1006,5 hPa 0,0 l/m 0,0 km/h (0 Bft) O-NO 59 0 min 0,000 mm 0,0 UV-I 5 W/m 7,2 C 11,3 C 0,0 km/h (0 Bft) 98,00 %
10.05.2017 20:44 10,9 C 15,6 C 77 % 1006,5 hPa 0,0 l/m 1,2 km/h (1 Bft) O-NO 59 0 min 0,000 mm 0,0 UV-I 5 W/m 7,0 C 10,9 C 4,8 km/h (1 Bft) 96,00 %
10.05.2017 20:46 10,7 C 15,6 C 79 % 1006,5 hPa 0,0 l/m 2,8 km/h (1 Bft) O-NO 59 0 min 0,000 mm 0,0 UV-I 5 W/m 7,2 C 10,7 C 3,2 km/h (1 Bft) 98,00 %
10.05.2017 20:48 10,6 C 15,6 C 79 % 1006,5 hPa 0,0 l/m 2,7 km/h (1 Bft) O-NO 59 0 min 0,000 mm 0,0 UV-I 3 W/m 7,1 C 10,6 C 3,2 km/h (1 Bft) 94,74 %
10.05.2017 20:50 10,6 C 15,6 C 80 % 1006,5 hPa 0,0 l/m 2,6 km/h (1 Bft) O-NO 59 0 min 0,000 mm 0,0 UV-I 0 W/m 7,3 C 10,6 C 3,2 km/h (1 Bft) 97,87 %
10.05.2017 20:52 10,5 C 15,6 C 78 % 1006,5 hPa 0,0 l/m 0,4 km/h (0 Bft) O-NO 59 0 min 0,000 mm 0,0 UV-I 0 W/m 6,8 C 10,5 C 3,2 km/h (1 Bft) 97,87 %
10.05.2017 20:54 10,5 C 15,6 C 79 % 1006,5 hPa 0,0 l/m 0,0 km/h (0 Bft) O-NO 59 0 min 0,000 mm 0,0 UV-I 0 W/m 7,0 C 10,5 C 0,0 km/h (0 Bft) 98,11 %
10.05.2017 20:56 10,4 C 15,6 C 80 % 1006,5 hPa 0,0 l/m 0,0 km/h (0 Bft) O-NO 59 0 min 0,000 mm 0,0 UV-I 0 W/m 7,1 C 10,4 C 0,0 km/h (0 Bft) 93,62 %
10.05.2017 20:58 10,4 C 15,6 C 79 % 1006,5 hPa 0,0 l/m 0,0 km/h (0 Bft) O-NO 59 0 min 0,000 mm 0,0 UV-I 0 W/m 6,9 C 10,4 C 0,0 km/h (0 Bft) 97,44 %
10.05.2017 21:00 10,3 C 15,6 C 79 % 1006,4 hPa 0,0 l/m 0,0 km/h (0 Bft) O-NO 59 0 min 0,000 mm 0,0 UV-I 0 W/m 6,8 C 10,3 C 0,0 km/h (0 Bft) 95,74 %
10.05.2017 21:02 10,3 C 15,6 C 79 % 1006,4 hPa 0,0 l/m 0,0 km/h (0 Bft) O-NO 59 0 min 0,026 mm 0,0 UV-I 0 W/m 6,8 C 10,3 C 0,0 km/h (0 Bft) 96,00 %
10.05.2017 21:04 10,2 C 15,6 C 79 % 1006,4 hPa 0,0 l/m 0,0 km/h (0 Bft) O-NO 59 0 min 0,000 mm 0,0 UV-I 0 W/m 6,7 C 10,2 C 0,0 km/h (0 Bft) 89,36 %
10.05.2017 21:06 10,2 C 15,6 C 80 % 1006,4 hPa 0,0 l/m 0,0 km/h (0 Bft) O-NO 59 0 min 0,000 mm 0,0 UV-I 0 W/m 6,9 C 10,2 C 0,0 km/h (0 Bft) 98,00 %
10.05.2017 21:08 10,1 C 15,6 C 81 % 1006,4 hPa 0,0 l/m 0,0 km/h (0 Bft) O-NO 59 0 min 0,000 mm 0,0 UV-I 0 W/m 7,0 C 10,1 C 0,0 km/h (0 Bft) 95,74 %
10.05.2017 21:10 9,9 C 15,6 C 82 % 1006,4 hPa 0,0 l/m 1,5 km/h (1 Bft) O-NO 59 0 min 0,000 mm 0,0 UV-I 0 W/m 7,0 C 9,9 C 4,8 km/h (1 Bft) 96,00 %
10.05.2017 21:12 9,8 C 15,6 C 83 % 1006,4 hPa 0,0 l/m 3,7 km/h (1 Bft) O-NO 59 0 min 0,000 mm 0,0 UV-I 0 W/m 7,1 C 9,8 C 4,8 km/h (1 Bft) 95,12 %
10.05.2017 21:14 9,7 C 15,6 C 84 % 1006,4 hPa 0,0 l/m 3,8 km/h (1 Bft) O-NO 59 0 min 0,000 mm 0,0 UV-I 0 W/m 7,1 C 9,7 C 4,8 km/h (1 Bft) 98,00 %
10.05.2017 21:16 9,6 C 15,6 C 85 % 1006,3 hPa 0,0 l/m 4,5 km/h (1 Bft) O-NO 59 0 min 0,000 mm 0,0 UV-I 0 W/m 7,2 C 9,6 C 4,8 km/h (1 Bft) 97,87 %
10.05.2017 21:18 9,5 C 15,6 C 84 % 1006,4 hPa 0,0 l/m 3,9 km/h (1 Bft) O-NO 59 0 min 0,000 mm 0,0 UV-I 0 W/m 6,9 C 9,5 C 4,8 km/h (1 Bft) 97,37 %
10.05.2017 21:20 9,4 C 15,6 C 85 % 1006,3 hPa 0,0 l/m 3,3 km/h (1 Bft) O-NO 59 0 min 0,000 mm 0,0 UV-I 0 W/m 7,0 C 9,4 C 4,8 km/h (1 Bft) 96,00 %
10.05.2017 21:22 9,4 C 15,6 C 84 % 1006,3 hPa 0,0 l/m 2,9 km/h (1 Bft) O-NO 59 0 min 0,000 mm 0,0 UV-I 0 W/m 6,8 C 9,4 C 4,8 km/h (1 Bft) 94,34 %
10.05.2017 21:24 9,3 C 15,6 C 84 % 1006,3 hPa 0,0 l/m 2,4 km/h (1 Bft) O-NO 59 0 min 0,000 mm 0,0 UV-I 0 W/m 6,7 C 9,3 C 4,8 km/h (1 Bft) 97,87 %
10.05.2017 21:26 9,3 C 15,6 C 85 % 1006,3 hPa 0,0 l/m 0,8 km/h (0 Bft) O-NO 59 0 min 0,000 mm 0,0 UV-I 0 W/m 6,9 C 9,3 C 3,2 km/h (1 Bft) 95,12 %
10.05.2017 21:28 9,2 C 15,6 C 85 % 1006,3 hPa 0,0 l/m 0,6 km/h (0 Bft) O-NO 59 0 min 0,000 mm 0,0 UV-I 0 W/m 6,8 C 9,2 C 1,6 km/h (1 Bft) 92,68 %
10.05.2017 21:30 9,3 C 15,6 C 84 % 1006,4 hPa 0,0 l/m 0,0 km/h (0 Bft) O-NO 59 0 min 0,000 mm 0,0 UV-I 0 W/m 6,7 C 9,3 C 0,0 km/h (0 Bft) 96,23 %
10.05.2017 21:32 9,3 C 15,6 C 85 % 1006,3 hPa 0,0 l/m 0,0 km/h (0 Bft) O-NO 59 0 min 0,000 mm 0,0 UV-I 0 W/m 6,9 C 9,3 C 0,0 km/h (0 Bft) 95,74 %
10.05.2017 21:34 9,2 C 15,6 C 85 % 1006,4 hPa 0,0 l/m 0,0 km/h (0 Bft) O-NO 59 0 min 0,000 mm 0,0 UV-I 0 W/m 6,8 C 9,2 C 0,0 km/h (0 Bft) 90,57 %
10.05.2017 21:36 9,2 C 15,6 C 85 % 1006,4 hPa 0,0 l/m 0,0 km/h (0 Bft) O-NO 59 0 min 0,000 mm 0,0 UV-I 0 W/m 6,8 C 9,2 C 0,0 km/h (0 Bft) 94,87 %
10.05.2017 21:38 9,1 C 15,6 C 85 % 1006,4 hPa 0,0 l/m 0,0 km/h (0 Bft) O-NO 59 0 min 0,000 mm 0,0 UV-I 0 W/m 6,7 C 9,1 C 0,0 km/h (0 Bft) 97,87 %
10.05.2017 21:40 9,1 C 15,6 C 85 % 1006,4 hPa 0,0 l/m 0,0 km/h (0 Bft) O-NO 59 0 min 0,000 mm 0,0 UV-I 0 W/m 6,7 C 9,1 C 1,6 km/h (1 Bft) 96,00 %
10.05.2017 21:42 8,9 C 15,6 C 85 % 1006,4 hPa 0,0 l/m 0,4 km/h (0 Bft) O-NO 59 0 min 0,000 mm 0,0 UV-I 0 W/m 6,5 C 8,9 C 1,6 km/h (1 Bft) 94,00 %
10.05.2017 21:44 8,8 C 15,6 C 86 % 1006,4 hPa 0,0 l/m 0,0 km/h (0 Bft) O-NO 59 0 min 0,000 mm 0,0 UV-I 0 W/m 6,6 C 8,8 C 0,0 km/h (0 Bft) 93,62 %
10.05.2017 21:46 8,8 C 15,6 C 87 % 1006,4 hPa 0,0 l/m 0,0 km/h (0 Bft) O-NO 59 0 min 0,000 mm 0,0 UV-I 0 W/m 6,8 C 8,8 C 0,0 km/h (0 Bft) 92,11 %
10.05.2017 21:48 8,7 C 15,6 C 87 % 1006,4 hPa 0,0 l/m 0,0 km/h (0 Bft) O-NO 59 0 min 0,000 mm 0,0 UV-I 0 W/m 6,7 C 8,7 C 0,0 km/h (0 Bft) 92,00 %
10.05.2017 21:50 8,7 C 15,6 C 87 % 1006,4 hPa 0,0 l/m 0,0 km/h (0 Bft) O-NO 59 0 min 0,000 mm 0,0 UV-I 0 W/m 6,7 C 8,7 C 0,0 km/h (0 Bft) 97,87 %
10.05.2017 21:52 8,7 C 15,6 C 87 % 1006,3 hPa 0,0 l/m 0,2 km/h (0 Bft) O-NO 59 0 min 0,000 mm 0,0 UV-I 0 W/m 6,7 C 8,7 C 3,2 km/h (1 Bft) 94,00 %
10.05.2017 21:54 8,8 C 15,6 C 87 % 1006,3 hPa 0,0 l/m 1,8 km/h (1 Bft) O-NO 59 0 min 0,000 mm 0,0 UV-I 0 W/m 6,8 C 8,8 C 3,2 km/h (1 Bft) 95,35 %
10.05.2017 21:56 8,8 C 15,6 C 86 % 1006,3 hPa 0,0 l/m 1,9 km/h (1 Bft) O-NO 59 0 min 0,000 mm 0,0 UV-I 0 W/m 6,6 C 8,8 C 3,2 km/h (1 Bft) 96,23 %
10.05.2017 21:58 8,8 C 15,6 C 86 % 1006,3 hPa 0,0 l/m 2,3 km/h (1 Bft) O-NO 59 0 min 0,000 mm 0,0 UV-I 0 W/m 6,6 C 8,8 C 3,2 km/h (1 Bft) 95,74 %
10.05.2017 22:00 8,7 C 15,6 C 87 % 1006,3 hPa 0,0 l/m 2,7 km/h (1 Bft) O-NO 59 0 min 0,000 mm 0,0 UV-I 0 W/m 6,7 C 8,7 C 3,2 km/h (1 Bft) 97,14 %
10.05.2017 22:02 8,7 C 15,6 C 86 % 1006,4 hPa 0,0 l/m 2,6 km/h (1 Bft) O-NO 59 0 min 0,000 mm 0,0 UV-I 0 W/m 6,5 C 8,7 C 4,8 km/h (1 Bft) 94,64 %
10.05.2017 22:04 8,6 C 15,6 C 86 % 1006,3 hPa 0,0 l/m 1,9 km/h (1 Bft) O-NO 59 0 min 0,000 mm 0,0 UV-I 0 W/m 6,4 C 8,6 C 3,2 km/h (1 Bft) 96,00 %
10.05.2017 22:06 8,5 C 15,6 C 86 % 1006,4 hPa 0,0 l/m 1,8 km/h (1 Bft) O-NO 59 0 min 0,000 mm 0,0 UV-I 0 W/m 6,3 C 8,5 C 4,8 km/h (1 Bft) 95,83 %
10.05.2017 22:08 8,4 C 15,6 C 86 % 1006,4 hPa 0,0 l/m 0,6 km/h (0 Bft) O-NO 59 0 min 0,000 mm 0,0 UV-I 0 W/m 6,2 C 8,4 C 3,2 km/h (1 Bft) 96,55 %
10.05.2017 22:10 8,4 C 15,6 C 86 % 1006,5 hPa 0,0 l/m 0,0 km/h (0 Bft) O-NO 59 0 min 0,000 mm 0,0 UV-I 0 W/m 6,2 C 8,4 C 1,6 km/h (1 Bft) 98,11 %
10.05.2017 22:12 8,4 C 15,6 C 86 % 1006,4 hPa 0,0 l/m 0,0 km/h (0 Bft) O-NO 59 0 min 0,000 mm 0,0 UV-I 0 W/m 6,2 C 8,4 C 0,0 km/h (0 Bft) 98,00 %
10.05.2017 22:14 8,4 C 15,6 C 87 % 1006,4 hPa 0,0 l/m 0,0 km/h (0 Bft) O-NO 59 0 min 0,000 mm 0,0 UV-I 0 W/m 6,4 C 8,4 C 0,0 km/h (0 Bft) 100,00 %
10.05.2017 22:16 8,4 C 15,6 C 87 % 1006,3 hPa 0,0 l/m 0,0 km/h (0 Bft) O-NO 59 0 min 0,000 mm 0,0 UV-I 0 W/m 6,4 C 8,4 C 0,0 km/h (0 Bft) 96,00 %
10.05.2017 22:18 8,4 C 15,6 C 87 % 1006,3 hPa 0,0 l/m 0,0 km/h (0 Bft) O-NO 59 0 min 0,000 mm 0,0 UV-I 0 W/m 6,4 C 8,4 C 0,0 km/h (0 Bft) 100,00 %
10.05.2017 22:20 8,3 C 15,6 C 87 % 1006,3 hPa 0,0 l/m 0,1 km/h (0 Bft) O-NO 59 0 min 0,000 mm 0,0 UV-I 0 W/m 6,3 C 8,3 C 1,6 km/h (1 Bft) 100,00 %
10.05.2017 22:22 8,3 C 15,6 C 87 % 1006,3 hPa 0,0 l/m 0,2 km/h (0 Bft) O-NO 59 0 min 0,000 mm 0,0 UV-I 0 W/m 6,3 C 8,3 C 1,6 km/h (1 Bft) 100,00 %
10.05.2017 22:24 8,2 C 15,6 C 87 % 1006,4 hPa 0,0 l/m 0,0 km/h (0 Bft) O-NO 59 0 min 0,000 mm 0,0 UV-I 0 W/m 6,2 C 8,2 C 0,0 km/h (0 Bft) 100,00 %
10.05.2017 22:26 8,2 C 15,6 C 87 % 1006,4 hPa 0,0 l/m 0,0 km/h (0 Bft) O-NO 59 0 min 0,000 mm 0,0 UV-I 0 W/m 6,2 C 8,2 C 1,6 km/h (1 Bft) 100,00 %
10.05.2017 22:28 8,1 C 15,6 C 87 % 1006,3 hPa 0,0 l/m 0,0 km/h (0 Bft) O-NO 59 0 min 0,000 mm 0,0 UV-I 0 W/m 6,1 C 8,1 C 0,0 km/h (0 Bft) 100,00 %
10.05.2017 22:30 8,1 C 15,6 C 87 % 1006,4 hPa 0,0 l/m 0,2 km/h (0 Bft) O-NO 59 0 min 0,000 mm 0,0 UV-I 0 W/m 6,1 C 8,1 C 1,6 km/h (1 Bft) 98,00 %
10.05.2017 22:32 8,1 C 15,6 C 88 % 1006,3 hPa 0,0 l/m 0,8 km/h (0 Bft) O-NO 59 0 min 0,000 mm 0,0 UV-I 0 W/m 6,2 C 8,1 C 1,6 km/h (1 Bft) 98,00 %
10.05.2017 22:34 8,1 C 15,6 C 87 % 1006,3 hPa 0,0 l/m 0,0 km/h (0 Bft) O-NO 59 0 min 0,000 mm 0,0 UV-I 0 W/m 6,1 C 8,1 C 0,0 km/h (0 Bft) 98,00 %
10.05.2017 22:36 8,1 C 15,6 C 87 % 1006,3 hPa 0,0 l/m 0,0 km/h (0 Bft) O-NO 59 0 min 0,000 mm 0,0 UV-I 0 W/m 6,1 C 8,1 C 0,0 km/h (0 Bft) 100,00 %
10.05.2017 22:38 8,0 C 15,6 C 87 % 1006,4 hPa 0,0 l/m 0,0 km/h (0 Bft) O-NO 59 0 min 0,000 mm 0,0 UV-I 0 W/m 6,0 C 8,0 C 0,0 km/h (0 Bft) 95,74 %
10.05.2017 22:40 8,0 C 15,6 C 87 % 1006,4 hPa 0,0 l/m 0,0 km/h (0 Bft) O-NO 59 0 min 0,000 mm 0,0 UV-I 0 W/m 6,0 C 8,0 C 0,0 km/h (0 Bft) 100,00 %
10.05.2017 22:42 8,0 C 15,6 C 87 % 1006,3 hPa 0,0 l/m 0,0 km/h (0 Bft) O-NO 59 0 min 0,000 mm 0,0 UV-I 0 W/m 6,0 C 8,0 C 0,0 km/h (0 Bft) 98,00 %
10.05.2017 22:44 8,1 C 15,6 C 88 % 1006,4 hPa 0,0 l/m 0,0 km/h (0 Bft) O-NO 59 0 min 0,000 mm 0,0 UV-I 0 W/m 6,2 C 8,1 C 0,0 km/h (0 Bft) 100,00 %
10.05.2017 22:46 8,0 C 15,6 C 88 % 1006,4 hPa 0,0 l/m 0,0 km/h (0 Bft) O-NO 59 0 min 0,000 mm 0,0 UV-I 0 W/m 6,1 C 8,0 C 0,0 km/h (0 Bft) 98,00 %
10.05.2017 22:48 8,0 C 15,6 C 87 % 1006,3 hPa 0,0 l/m 2,3 km/h (1 Bft) O-NO 59 0 min 0,000 mm 0,0 UV-I 0 W/m 6,0 C 8,0 C 3,2 km/h (1 Bft) 97,37 %
10.05.2017 22:50 7,9 C 15,6 C 87 % 1006,3 hPa 0,0 l/m 2,3 km/h (1 Bft) O-NO 59 0 min 0,000 mm 0,0 UV-I 0 W/m 5,9 C 7,9 C 3,2 km/h (1 Bft) 96,15 %
10.05.2017 22:52 7,9 C 15,6 C 87 % 1006,3 hPa 0,0 l/m 1,4 km/h (1 Bft) O-NO 59 0 min 0,000 mm 0,0 UV-I 0 W/m 5,9 C 7,9 C 3,2 km/h (1 Bft) 98,00 %
10.05.2017 22:54 7,9 C 15,6 C 88 % 1006,3 hPa 0,0 l/m 1,1 km/h (1 Bft) O-NO 59 0 min 0,000 mm 0,0 UV-I 0 W/m 6,0 C 7,9 C 1,6 km/h (1 Bft) 97,87 %
10.05.2017 22:56 7,9 C 15,6 C 88 % 1006,3 hPa 0,0 l/m 0,1 km/h (0 Bft) O-NO 59 0 min 0,000 mm 0,0 UV-I 0 W/m 6,0 C 7,9 C 1,6 km/h (1 Bft) 95,74 %
10.05.2017 22:58 7,9 C 15,6 C 88 % 1006,3 hPa 0,0 l/m 1,7 km/h (1 Bft) O-NO 59 0 min 0,000 mm 0,0 UV-I 0 W/m 6,0 C 7,9 C 3,2 km/h (1 Bft) 100,00 %
10.05.2017 23:00 7,9 C 15,6 C 88 % 1006,2 hPa 0,0 l/m 2,4 km/h (1 Bft) O-NO 59 0 min 0,000 mm 0,0 UV-I 0 W/m 6,0 C 7,9 C 3,2 km/h (1 Bft) 96,00 %
10.05.2017 23:02 7,9 C 15,6 C 88 % 1006,2 hPa 0,0 l/m 2,5 km/h (1 Bft) O-NO 59 0 min 0,000 mm 0,0 UV-I 0 W/m 6,0 C 7,9 C 3,2 km/h (1 Bft) 95,74 %
10.05.2017 23:04 7,9 C 15,6 C 88 % 1006,2 hPa 0,0 l/m 2,8 km/h (1 Bft) O-NO 59 0 min 0,000 mm 0,0 UV-I 0 W/m 6,0 C 7,9 C 4,8 km/h (1 Bft) 98,11 %
10.05.2017 23:06 7,8 C 15,6 C 88 % 1006,3 hPa 0,0 l/m 3,6 km/h (1 Bft) O-NO 61 0 min 0,000 mm 0,0 UV-I 0 W/m 5,9 C 7,8 C 4,8 km/h (1 Bft) 95,74 %
10.05.2017 23:08 7,8 C 15,6 C 88 % 1006,3 hPa 0,0 l/m 3,9 km/h (1 Bft) O-SO 123 0 min 0,000 mm 0,0 UV-I 0 W/m 5,9 C 7,8 C 4,8 km/h (1 Bft) 97,87 %
10.05.2017 23:10 7,8 C 15,6 C 88 % 1006,3 hPa 0,0 l/m 4,1 km/h (1 Bft) SO 144 0 min 0,000 mm 0,0 UV-I 0 W/m 5,9 C 7,8 C 4,8 km/h (1 Bft) 100,00 %
10.05.2017 23:12 7,7 C 15,6 C 89 % 1006,3 hPa 0,0 l/m 2,9 km/h (1 Bft) SO 144 0 min 0,000 mm 0,0 UV-I 0 W/m 6,0 C 7,7 C 4,8 km/h (1 Bft) 98,11 %
10.05.2017 23:14 7,7 C 15,6 C 89 % 1006,3 hPa 0,0 l/m 2,7 km/h (1 Bft) SO 144 0 min 0,000 mm 0,0 UV-I 0 W/m 6,0 C 7,7 C 4,8 km/h (1 Bft) 97,87 %
10.05.2017 23:16 7,6 C 15,6 C 89 % 1006,3 hPa 0,0 l/m 2,9 km/h (1 Bft) SO 144 0 min 0,000 mm 0,0 UV-I 0 W/m 5,9 C 7,6 C 4,8 km/h (1 Bft) 97,56 %
10.05.2017 23:18 7,5 C 15,6 C 89 % 1006,3 hPa 0,0 l/m 0,7 km/h (0 Bft) SO 144 0 min 0,000 mm 0,0 UV-I 0 W/m 5,8 C 7,5 C 3,2 km/h (1 Bft) 100,00 %
10.05.2017 23:20 7,4 C 15,6 C 89 % 1006,3 hPa 0,0 l/m 1,2 km/h (1 Bft) SO 144 0 min 0,000 mm 0,0 UV-I 0 W/m 5,7 C 7,4 C 3,2 km/h (1 Bft) 97,87 %
10.05.2017 23:22 7,4 C 15,6 C 90 % 1006,3 hPa 0,0 l/m 1,2 km/h (1 Bft) SO 144 0 min 0,000 mm 0,0 UV-I 0 W/m 5,9 C 7,4 C 1,6 km/h (1 Bft) 97,14 %
10.05.2017 23:24 7,5 C 15,6 C 90 % 1006,3 hPa 0,0 l/m 0,7 km/h (0 Bft) SO 144 0 min 0,000 mm 0,0 UV-I 0 W/m 6,0 C 7,5 C 1,6 km/h (1 Bft) 98,00 %
10.05.2017 23:26 7,6 C 15,6 C 90 % 1006,2 hPa 0,0 l/m 0,0 km/h (0 Bft) SO 144 0 min 0,000 mm 0,0 UV-I 0 W/m 6,1 C 7,6 C 0,0 km/h (0 Bft) 98,00 %
10.05.2017 23:28 7,6 C 15,6 C 90 % 1006,3 hPa 0,0 l/m 0,0 km/h (0 Bft) SO 144 0 min 0,000 mm 0,0 UV-I 0 W/m 6,1 C 7,6 C 0,0 km/h (0 Bft) 100,00 %
10.05.2017 23:30 7,5 C 15,6 C 90 % 1006,3 hPa 0,0 l/m 0,0 km/h (0 Bft) SO 144 0 min 0,000 mm 0,0 UV-I 0 W/m 6,0 C 7,5 C 0,0 km/h (0 Bft) 98,00 %
10.05.2017 23:32 7,4 C 15,6 C 90 % 1006,3 hPa 0,0 l/m 0,1 km/h (0 Bft) SO 144 0 min 0,000 mm 0,0 UV-I 0 W/m 5,9 C 7,4 C 1,6 km/h (1 Bft) 100,00 %
10.05.2017 23:34 7,3 C 15,6 C 90 % 1006,3 hPa 0,0 l/m 0,1 km/h (0 Bft) SO 144 0 min 0,000 mm 0,0 UV-I 0 W/m 5,8 C 7,3 C 1,6 km/h (1 Bft) 97,87 %
10.05.2017 23:36 7,3 C 15,6 C 90 % 1006,4 hPa 0,0 l/m 0,1 km/h (0 Bft) SO 144 0 min 0,000 mm 0,0 UV-I 0 W/m 5,8 C 7,3 C 1,6 km/h (1 Bft) 98,00 %
10.05.2017 23:38 7,3 C 15,6 C 91 % 1006,4 hPa 0,0 l/m 0,0 km/h (0 Bft) SO 144 0 min 0,000 mm 0,0 UV-I 0 W/m 5,9 C 7,3 C 0,0 km/h (0 Bft) 100,00 %
10.05.2017 23:40 7,3 C 15,6 C 91 % 1006,4 hPa 0,0 l/m 0,0 km/h (0 Bft) SO 144 0 min 0,000 mm 0,0 UV-I 0 W/m 5,9 C 7,3 C 0,0 km/h (0 Bft) 100,00 %
10.05.2017 23:42 7,3 C 15,6 C 91 % 1006,4 hPa 0,0 l/m 0,0 km/h (0 Bft) SO 144 0 min 0,000 mm 0,0 UV-I 0 W/m 5,9 C 7,3 C 0,0 km/h (0 Bft) 100,00 %
10.05.2017 23:44 7,3 C 15,6 C 92 % 1006,4 hPa 0,0 l/m 0,0 km/h (0 Bft) SO 144 0 min 0,000 mm 0,0 UV-I 0 W/m 6,1 C 7,3 C 0,0 km/h (0 Bft) 97,56 %
10.05.2017 23:46 7,4 C 15,6 C 92 % 1006,4 hPa 0,0 l/m 0,0 km/h (0 Bft) SO 144 0 min 0,000 mm 0,0 UV-I 0 W/m 6,2 C 7,4 C 0,0 km/h (0 Bft) 95,74 %
10.05.2017 23:48 7,4 C 15,6 C 91 % 1006,4 hPa 0,0 l/m 0,0 km/h (0 Bft) SO 144 0 min 0,000 mm 0,0 UV-I 0 W/m 6,0 C 7,4 C 0,0 km/h (0 Bft) 94,00 %
10.05.2017 23:50 7,4 C 15,6 C 91 % 1006,4 hPa 0,0 l/m 0,0 km/h (0 Bft) SO 144 0 min 0,000 mm 0,0 UV-I 0 W/m 6,0 C 7,4 C 0,0 km/h (0 Bft) 97,87 %
10.05.2017 23:52 7,4 C 15,6 C 91 % 1006,4 hPa 0,0 l/m 0,0 km/h (0 Bft) SO 144 0 min 0,000 mm 0,0 UV-I 0 W/m 6,0 C 7,4 C 0,0 km/h (0 Bft) 93,62 %
10.05.2017 23:54 7,3 C 15,6 C 91 % 1006,5 hPa 0,0 l/m 0,0 km/h (0 Bft) SO 144 0 min 0,000 mm 0,0 UV-I 0 W/m 5,9 C 7,3 C 0,0 km/h (0 Bft) 98,00 %
10.05.2017 23:56 7,2 C 15,6 C 91 % 1006,5 hPa 0,0 l/m 0,1 km/h (0 Bft) SO 144 0 min 0,000 mm 0,0 UV-I 0 W/m 5,8 C 7,2 C 1,6 km/h (1 Bft) 93,62 %
10.05.2017 23:58 7,1 C 15,6 C 91 % 1006,5 hPa 0,0 l/m 0,0 km/h (0 Bft) SO 144 0 min 0,000 mm 0,0 UV-I 0 W/m 5,7 C 7,1 C 0,0 km/h (0 Bft) 94,74 %
_ Min-Zeit 05:58 03:04 16:42 23:00 - 04:32 - - - - - - 05:58 07:10 04:32 07:34
Minimum _ 1,9 C 13,3 C 51 % 1006,2 hPa - 0,0 km/h (0 Bft) - - - - - - 1,5 C 1,9 C 0,0 km/h (0 Bft) 87,18 %
_ Max-Zeit 17:04 17:52 06:32 00:00 00:00 16:00 - - 20:10 14:00 13:26 13:32 15:42 17:04 12:30 00:02
Maximum _ 16,0 C 16,1 C 98 % 1015,2 hPa 0,0 l/m 11,8 km/h
SO (2 Bft)
- - 4 min 0,457 mm 5,3 UV-I 944 W/m 8,1 C 16,0 C 16,1 km/h
O (3 Bft)
100,00 %
Durchschnitt _ 8,6 C 14,4 C 80 % 1010,6 hPa #0,0 l/m 3,2 km/h (1 Bft) O-NO - #10:38 h #3,531 mm 3,0 UV-I 444 W/m 5,0 C 8,5 C 5,8 km/h (1 Bft) 96,66 %